Date StartTime U_cm/s V_cm/s W_cm/s Ustd_cm/s Vstd_cm/s Wstd_cm/s Uvar_(cm/s)^2 Vvar_(cm/s)^2 Wvar_(cm/s)^2 KE_(m/s)^2 TurbulentKE_(m/s)^2 HorizWindSpeed_cm/s FrictionSpeec_cm/s DragCoef SpeedOfSound_m/s SonicTemperature_C Pressure_mb 
10/09/2014  00:00:00      -49.420      -23.978       10.110       43.433       34.336       26.237     1886.465     1178.987      688.374        0.344        0.188       54.930       25.498        0.215      342.577       18.083      861.009
10/09/2014  00:01:00      -59.803      -48.637        1.443       33.976       39.683       24.747     1154.345     1574.780      612.393        0.464        0.167       77.084       24.325        0.100      342.602       18.125      861.015
10/09/2014  00:02:00      -63.132      -44.960        1.152       43.014       22.984       16.308     1850.210      528.267      265.961        0.433        0.132       77.505       15.834        0.042      342.688       18.273      861.015
10/09/2014  00:03:00      -49.625      -52.692       -2.038       31.019       22.199       15.692      962.187      492.814      246.240        0.347        0.085       72.382       15.697        0.047      342.641       18.194      861.016
10/09/2014  00:04:00      -33.911      -16.945        1.569       19.036       16.771        8.984      362.359      281.273       80.711        0.108        0.036       37.909        4.502        0.014      342.609       18.138      861.020
10/09/2014  00:05:00      -10.936      -20.364        3.378       23.861       15.704       10.890      569.357      246.619      118.592        0.074        0.047       23.115        8.730        0.143      342.374       17.738      861.021
10/09/2014  00:06:00       -3.979      -47.553        7.442       22.905       19.111       15.464      524.641      365.226      239.125        0.173        0.056       47.719       12.768        0.072      342.429       17.832      861.017
10/09/2014  00:07:00      -56.755      -56.484       -1.477       30.680       30.606       19.270      941.272      936.717      371.334        0.433        0.112       80.072        9.357        0.014      342.407       17.794      861.017
10/09/2014  00:08:00     -106.839      -71.591       -2.598       33.458       35.751       18.692     1119.405     1278.131      349.396        0.965        0.137      128.607       18.266        0.020      342.334       17.672      861.024
10/09/2014  00:09:00      -75.950      -32.884       -4.255       29.566       32.686       16.630      874.174     1068.359      276.540        0.454        0.111       82.764       14.068        0.029      342.172       17.395      861.017
10/09/2014  00:10:00      -59.328      -19.933        5.252       29.542       43.371       16.456      872.713     1881.060      270.815        0.348        0.151       62.587       13.100        0.044      342.063       17.210      861.016
10/09/2014  00:11:00      -76.630      -27.224        0.146       41.627       37.544       16.421     1732.820     1409.550      269.663        0.501        0.171       81.322       15.509        0.036      342.024       17.145      861.016
10/09/2014  00:12:00      -89.130      -46.543       -7.714       24.005       35.526       16.953      576.248     1262.084      287.410        0.615        0.106      100.550       13.138        0.017      341.993       17.091      861.017
10/09/2014  00:13:00      -91.062        9.457       -2.896       40.599       23.711       16.464     1648.279      562.201      271.059        0.544        0.124       91.552       17.569        0.037      341.861       16.870      861.014
10/09/2014  00:14:00      -68.644      -19.420        0.090       34.145       27.874       19.337     1165.864      776.940      373.924        0.370        0.116       71.338       20.344        0.081      341.792       16.751      861.019
10/09/2014  00:15:00      -67.493      -11.124        4.869       36.889       28.683       20.879     1360.787      822.693      435.917        0.366        0.131       68.404       20.193        0.087      341.618       16.457      861.012
10/09/2014  00:16:00     -128.164      -58.092        0.287       48.763       44.796       22.050     2377.796     2006.686      486.215        1.233        0.244      140.715       23.928        0.029      341.619       16.458      861.013
10/09/2014  00:17:00     -124.525      -68.547        6.911       41.700       34.903       23.094     1738.919     1218.243      533.323        1.187        0.175      142.145       20.085        0.020      341.588       16.405      861.014
10/09/2014  00:18:00      -99.890      -57.905       -1.394       30.232       28.467       21.260      913.985      810.349      451.984        0.775        0.109      115.460       18.648        0.026      341.558       16.354      861.001
10/09/2014  00:19:00      -95.539      -96.714       -8.506       39.501       26.423       22.656     1560.304      698.184      513.273        1.066        0.139      135.946       22.007        0.026      341.593       16.413      861.011
10/09/2014  00:20:00      -43.031      -84.113        8.711       42.665       38.653       29.931     1820.268     1494.063      895.843        0.661        0.211       94.481       27.053        0.082      341.562       16.360      861.006
10/09/2014  00:21:00      -31.971      -28.725        5.238       39.114       20.977       19.031     1529.921      440.021      362.187        0.210        0.117       42.980       18.904        0.193      341.490       16.238      861.013
10/09/2014  00:22:00      -80.362      -30.365       -2.744       48.080       27.883       19.584     2311.643      777.452      383.521        0.543        0.174       85.907       22.282        0.067      341.491       16.240      861.024
10/09/2014  00:23:00       -2.105      -56.921       12.393       26.212       20.734       14.182      687.088      429.897      201.138        0.236        0.066       56.960       12.778        0.050      341.537       16.317      861.035
10/09/2014  00:24:00      -13.250      -30.545        5.319       14.024       19.032       14.729      196.674      362.232      216.932        0.096        0.039       33.295       10.982        0.109      341.455       16.180      861.040
10/09/2014  00:25:00       -0.948        3.006        9.938        8.263        9.306        8.949       68.275       86.603       80.081        0.017        0.012        3.152        7.534        5.712      341.311       15.936      861.043
10/09/2014  00:26:00       -4.665       12.227       20.224        4.698       11.073       12.339       22.070      122.610      152.251        0.044        0.015       13.087       10.091        0.595      341.142       15.649      861.043
10/09/2014  00:27:00        2.895        5.687       -0.097        5.543        7.520        4.003       30.724       56.545       16.021        0.007        0.005        6.382        3.204        0.252      341.191       15.733      861.049
10/09/2014  00:28:00        5.795        8.872        3.069        4.481        7.070        3.585       20.083       49.987       12.854        0.010        0.004       10.597        2.339        0.049      341.184       15.720      861.051
10/09/2014  00:29:00        7.874        5.801        1.491        8.261        5.012        4.587       68.236       25.125       21.043        0.011        0.006        9.780        4.054        0.172      341.135       15.637      861.054
10/09/2014  00:30:00       -0.371        1.561       -0.834        2.459        3.154        3.253        6.048        9.947       10.580        0.001        0.001        1.604        2.074        1.670      341.078       15.542      861.069
10/09/2014  00:31:00        6.652        4.765        0.958        5.454        5.099        1.741       29.749       25.995        3.031        0.006        0.003        8.182        0.988        0.015      341.104       15.586      861.078
10/09/2014  00:32:00        9.882       15.929        9.874        6.224        4.464        5.722       38.744       19.924       32.739        0.027        0.005       18.745        2.337        0.016      341.102       15.583      861.076
10/09/2014  00:33:00        8.317       32.649        7.293        8.312       16.123       10.115       69.094      259.964      102.319        0.081        0.022       33.692       11.134        0.109      340.978       15.373      861.078
10/09/2014  00:34:00       36.094       63.189       -9.990       16.713       19.981        8.995      279.321      399.236       80.919        0.308        0.038       72.771        2.864        0.002      340.787       15.047      861.075
10/09/2014  00:35:00       26.435       46.878       -8.194       21.669       27.841       12.772      469.564      775.128      163.117        0.219        0.070       53.817       17.498        0.106      340.671       14.852      861.083
10/09/2014  00:36:00       16.110       23.924       -0.458       17.912       18.509       10.002      320.858      342.590      100.033        0.080        0.038       28.842       11.566        0.161      340.642       14.803      861.086
10/09/2014  00:37:00       26.239       12.595       -7.689       14.916       14.189        6.562      222.493      201.338       43.066        0.069        0.023       29.105        4.857        0.028      340.679       14.867      861.081
10/09/2014  00:38:00       44.530       47.052       16.359       18.762       11.332       20.548      352.003      128.421      422.205        0.268        0.045       64.783       13.628        0.044      340.746       14.979      861.071
10/09/2014  00:39:00      -14.857       20.815       -1.873       18.954       13.081       13.287      359.249      171.103      176.555        0.068        0.035       25.573       11.605        0.206      340.809       15.086      861.092
10/09/2014  00:40:00       37.422       17.158        9.617       18.235       21.044       17.794      332.530      442.836      316.627        0.144        0.055       41.168        6.020        0.021      340.620       14.767      861.091
10/09/2014  00:41:00       15.061      -27.802       -5.047        8.966       16.614       11.395       80.380      276.009      129.839        0.076        0.024       31.619        4.696        0.022      340.523       14.602      861.107
10/09/2014  00:42:00       17.571       -3.458       17.569       18.321       10.151       13.287      335.646      103.051      176.551        0.062        0.031       17.908       10.239        0.327      340.457       14.492      861.112
10/09/2014  00:43:00       -5.301        0.455        5.443        4.985        7.596        5.732       24.853       57.704       32.856        0.009        0.006        5.320        2.442        0.211      340.433       14.450      861.126
10/09/2014  00:44:00        1.920       -2.315        0.645        4.980        6.060        4.295       24.801       36.724       18.445        0.004        0.004        3.008        2.391        0.632      340.443       14.469      861.126
10/09/2014  00:45:00        4.667       14.602       -0.384        5.007        5.250        2.337       25.073       27.560        5.461        0.015        0.003       15.330        2.143        0.020      340.661       14.837      861.125
10/09/2014  00:46:00       -6.129        9.028       -2.267        5.344        6.199        4.276       28.558       38.430       18.282        0.010        0.004       10.912        3.012        0.076      340.635       14.792      861.129
10/09/2014  00:47:00        8.897       17.722        2.205        4.960        5.079        5.505       24.598       25.799       30.309        0.024        0.004       19.829        2.688        0.018      340.734       14.964      861.147
10/09/2014  00:48:00        5.706       35.289       -5.936        5.318       14.125        5.438       28.284      199.508       29.568        0.079        0.013       35.748        6.587        0.034      340.740       14.972      861.146
10/09/2014  00:49:00       16.963       29.333        1.324       13.916       24.781        9.749      193.645      614.077       95.046        0.103        0.045       33.885       12.409        0.134      340.635       14.791      861.150
10/09/2014  00:50:00       46.847       -2.812        2.704       24.027       17.174       15.104      577.293      294.963      228.134        0.165        0.055       46.932       11.804        0.063      340.195       14.049      861.152
10/09/2014  00:51:00       29.281      -11.728       18.092       25.875       23.927       18.288      669.525      572.520      334.445        0.145        0.079       31.543       11.918        0.143      339.999       13.717      861.145
10/09/2014  00:52:00       38.300      -25.924        3.097       34.010       31.747       25.463     1156.682     1007.889      648.348        0.248        0.141       46.249       20.060        0.188      339.833       13.439      861.144
10/09/2014  00:53:00       32.945      -30.443        6.697       26.407       18.667       16.306      697.304      348.446      265.898        0.168        0.066       44.856       11.958        0.071      339.971       13.669      861.136
10/09/2014  00:54:00       15.364      -41.511      -13.341       16.811       14.828       14.365      282.618      219.864      206.342        0.142        0.035       44.263        8.705        0.039      340.239       14.122      861.124
10/09/2014  00:55:00      -28.595      -14.177       -3.323       17.636       12.295        7.997      311.038      151.165       63.956        0.078        0.026       31.917        7.288        0.052      340.534       14.620      861.125
10/09/2014  00:56:00       21.206      -32.613       -6.060       20.867       27.654       16.177      435.445      764.751      261.680        0.151        0.073       38.901       13.103        0.113      340.287       14.204      861.103
10/09/2014  00:57:00       35.819      -39.759       -0.282       31.064       21.290       12.830      964.993      453.256      164.598        0.222        0.079       53.515        7.952        0.022      340.447       14.474      861.084
10/09/2014  00:58:00      -29.309      -23.611       -1.099       20.610       13.093       11.710      424.764      171.432      137.123        0.108        0.037       37.636        8.161        0.047      340.610       14.749      861.087
10/09/2014  00:59:00      -44.124       16.390       12.572       26.775       21.695       17.516      716.903      470.653      306.799        0.193        0.075       47.070       15.860        0.114      340.312       14.244      861.090
10/09/2014  01:00:00      -32.571      -14.841        3.551       32.902       22.312       12.978     1082.532      497.840      168.432        0.152        0.087       35.793       12.099        0.114      340.229       14.106      861.082
10/09/2014  01:01:00      -40.819      -70.599       -0.525       31.319       33.464       20.729      980.883     1119.829      429.679        0.459        0.127       81.550       19.212        0.056      340.594       14.723      861.087
10/09/2014  01:02:00        8.486      -34.752        5.073       26.523       23.153       22.667      703.490      536.082      513.810        0.153        0.088       35.773       19.072        0.284      340.198       14.054      861.079
10/09/2014  01:03:00       11.604      -45.235        0.548       24.606       24.982       22.829      605.460      624.117      521.184        0.197        0.088       46.700       13.227        0.080      340.300       14.225      861.085
10/09/2014  01:04:00      -28.486      -63.696       10.316       28.880       49.670       19.405      834.056     2467.078      376.553        0.433        0.184       69.776       18.341        0.069      340.495       14.556      861.084
10/09/2014  01:05:00      -40.611      -98.302        5.198       33.731       67.504       17.738     1137.805     4556.765      314.620        0.867        0.300      106.360       23.105        0.047      340.514       14.587      861.082
10/09/2014  01:06:00      -19.371      -10.206        6.314       22.461       17.655       15.690      504.499      311.704      246.175        0.079        0.053       21.895       11.233        0.263      340.309       14.240      861.082
10/09/2014  01:07:00      -41.058      -49.421       -1.756       26.329       34.956       16.336      693.232     1221.889      266.849        0.316        0.109       64.251       15.885        0.061      340.393       14.384      861.073
10/09/2014  01:08:00      -43.687      -67.594        4.462       35.605       30.480       18.622     1267.725      929.055      346.777        0.452        0.127       80.483       19.687        0.060      340.461       14.498      861.069
10/09/2014  01:09:00      -37.008      -32.958        9.779       34.157       30.776       16.126     1166.672      947.155      260.058        0.246        0.119       49.556       12.218        0.061      340.395       14.384      861.071
10/09/2014  01:10:00      -32.590      -32.369        6.670       26.763       23.964       11.124      716.262      574.260      123.737        0.178        0.071       45.933        6.669        0.021      340.385       14.370      861.071
10/09/2014  01:11:00      -55.357      -23.072       -3.143       26.560       17.957       12.752      705.423      322.454      162.601        0.240        0.060       59.972       11.114        0.034      340.350       14.312      861.066
10/09/2014  01:12:00      -67.129      -24.660       -5.395       27.574       11.236       11.886      760.332      126.247      141.282        0.309        0.051       71.516       12.185        0.029      340.338       14.290      861.077
10/09/2014  01:13:00      -47.320      -34.620        4.048       29.054       22.813       16.724      844.109      520.437      279.704        0.255        0.082       58.633       15.275        0.068      340.256       14.151      861.084
10/09/2014  01:14:00      -59.920      -26.943        2.053       27.846       19.402       17.183      775.397      376.442      295.271        0.288        0.072       65.699       14.951        0.052      340.179       14.022      861.089
10/09/2014  01:15:00      -79.884       -8.481        1.719       31.394       23.946       19.560      985.582      573.417      382.578        0.420        0.097       80.333       18.988        0.056      340.047       13.797      861.101
10/09/2014  01:16:00      -32.286      -14.226       10.461       39.217       16.077       14.121     1537.961      258.471      199.395        0.167        0.100       35.281       17.152        0.236      339.847       13.463      861.102
10/09/2014  01:17:00      -28.910       -8.689        8.287       24.793       20.026       12.975      614.716      401.059      168.363        0.108        0.059       30.188       12.601        0.174      339.889       13.531      861.113
10/09/2014  01:18:00      -43.824      -25.202        8.100       30.579       27.220       18.051      935.092      740.920      325.842        0.231        0.100       50.554       18.593        0.135      339.875       13.508      861.127
10/09/2014  01:19:00      -10.326       -0.831       -4.494       11.604        8.287        8.624      134.655       68.683       74.379        0.020        0.014       10.359        7.328        0.500      339.924       13.591      861.118
10/09/2014  01:20:00      -37.648      -13.083       -1.195       24.838       12.094        7.229      616.920      146.255       52.251        0.120        0.041       39.856        7.053        0.031      340.121       13.922      861.120
10/09/2014  01:21:00      -31.553       14.529        2.101       19.776        8.040        7.806      391.080       64.640       60.926        0.086        0.026       34.737        2.394        0.005      339.849       13.464      861.124
10/09/2014  01:22:00      -44.394      -13.686       -0.679       17.683       16.027        6.278      312.675      256.876       39.409        0.138        0.030       46.455        7.539        0.026      339.999       13.718      861.140
10/09/2014  01:23:00      -45.285      -33.700        3.586       24.754       10.634        8.207      612.751      113.078       67.360        0.200        0.040       56.449        5.045        0.008      339.992       13.706      861.133
10/09/2014  01:24:00      -44.502      -29.773        5.458       29.397       20.479       10.003      864.192      419.372      100.070        0.214        0.069       53.543       13.394        0.063      340.080       13.853      861.134
10/09/2014  01:25:00      -68.203      -22.052       -4.853       15.147       15.910        6.287      229.421      253.117       39.532        0.284        0.026       71.680        6.353        0.008      339.896       13.545      861.134
10/09/2014  01:26:00      -10.581      -12.102        4.359       18.988       16.396        9.601      360.551      268.823       92.171        0.050        0.036       16.075        7.677        0.228      339.774       13.337      861.117
10/09/2014  01:27:00       -3.268       -4.608       -0.588       23.931       19.412       16.072      572.680      376.843      258.306        0.062        0.060        5.649       12.541        4.929      339.578       13.008      861.109
10/09/2014  01:28:00       -2.244       -6.354        6.446       19.861       11.694       17.271      394.470      136.760      298.290        0.046        0.041        6.739       16.502        5.997      339.498       12.871      861.116
10/09/2014  01:29:00      -11.611      -14.269        6.633       26.301       23.109       10.568      691.735      534.046      111.679        0.086        0.067       18.396       12.685        0.476      339.661       13.147      861.125
10/09/2014  01:30:00      -53.933      -49.920        0.342       36.373       27.469       11.586     1323.024      754.537      134.236        0.381        0.111       73.490       10.928        0.022      340.014       13.744      861.139
10/09/2014  01:31:00       -5.016      -41.351      -13.529       31.030       27.411       13.846      962.830      751.340      191.704        0.191        0.095       41.654       13.142        0.100      339.778       13.345      861.139
10/09/2014  01:32:00      -36.824      -72.540       -0.204       26.733       20.179       14.707      714.665      407.195      216.287        0.398        0.067       81.351       14.029        0.030      340.047       13.797      861.143
10/09/2014  01:33:00        4.413      -36.481       -0.408       18.054       12.624       14.382      325.951      159.371      206.831        0.102        0.035       36.747        5.723        0.024      339.927       13.597      861.151
10/09/2014  01:34:00        7.435      -17.747        3.463       17.614       18.958       14.528      310.236      359.411      211.076        0.063        0.044       19.242        9.315        0.234      339.592       13.031      861.147
10/09/2014  01:35:00       -2.219        5.079        6.950       20.673       14.557       11.733      427.365      211.894      137.652        0.043        0.039        5.543        7.162        1.669      339.745       13.289      861.156
10/09/2014  01:36:00      -22.352      -29.604        5.801       13.585       20.044       10.179      184.555      401.743      103.606        0.105        0.034       37.095        9.580        0.067      339.890       13.532      861.173
10/09/2014  01:37:00      -31.644      -12.030        2.649       26.138       23.189       16.836      683.187      537.744      283.449        0.133        0.075       33.853       11.260        0.111      339.864       13.490      861.175
10/09/2014  01:38:00      -21.014      -23.904        6.950       21.355       20.420       12.349      456.035      416.979      152.492        0.104        0.051       31.828       10.876        0.117      339.855       13.475      861.197
10/09/2014  01:39:00      -19.084      -24.740        0.705       23.546       28.794       13.953      554.412      829.084      194.682        0.128        0.079       31.245       12.028        0.148      339.834       13.438      861.207
10/09/2014  01:40:00      -29.096      -50.729        3.878       26.443       29.631       15.883      699.214      878.010      252.264        0.263        0.091       58.481       14.122        0.058      339.915       13.575      861.203
10/09/2014  01:41:00      -27.336      -13.899       14.979       39.121       32.649       22.382     1530.442     1065.952      500.932        0.213        0.155       30.666       21.134        0.475      339.716       13.240      861.213
10/09/2014  01:42:00      -29.590      -23.392       14.997       32.545       35.157       26.889     1059.176     1236.020      722.998        0.233        0.151       37.719       22.523        0.357      339.765       13.324      861.209
10/09/2014  01:43:00      -56.087      -41.470       -0.850       39.905       26.504       17.312     1592.388      702.452      299.688        0.373        0.130       69.753       14.176        0.041      339.857       13.479      861.226
10/09/2014  01:44:00      -80.107      -26.929       -0.346       20.492       17.538        9.550      419.903      307.576       91.210        0.398        0.041       84.512        3.601        0.002      339.771       13.333      861.251
10/09/2014  01:45:00      -39.811      -18.319        5.565       35.792       16.094       14.961     1281.092      259.011      223.834        0.186        0.088       43.824       16.076        0.135      339.598       13.042      861.252
10/09/2014  01:46:00      -24.041      -43.667       -1.326       21.611       30.956       13.047      467.021      958.263      170.237        0.204        0.080       49.847        7.239        0.021      339.768       13.327      861.249
10/09/2014  01:47:00      -24.722      -46.319       -0.910       19.842       29.285       14.851      393.708      857.634      220.545        0.211        0.074       52.503       13.335        0.065      339.655       13.137      861.246
10/09/2014  01:48:00      -40.205      -25.899       -2.356       19.795       20.902       10.348      391.853      436.910      107.083        0.161        0.047       47.825        7.862        0.027      339.700       13.215      861.249
10/09/2014  01:49:00      -35.736      -27.662        2.719       36.454       19.989       13.467     1328.902      399.548      181.372        0.198        0.095       45.191       16.634        0.135      339.606       13.052      861.257
10/09/2014  01:50:00      -54.839      -59.070       -0.712       36.021       38.229       14.704     1297.539     1461.429      216.211        0.474        0.149       80.601        9.792        0.015      339.768       13.327      861.245
10/09/2014  01:51:00      -59.440      -16.538        1.203       18.818       33.622       10.812      354.123     1130.420      116.900        0.270        0.080       61.697        7.603        0.015      339.766       13.324      861.242
10/09/2014  01:52:00      -60.191      -29.613       -0.689       26.560       20.922       12.988      705.415      437.724      168.692        0.291        0.066       67.082        8.704        0.017      339.689       13.194      861.248
10/09/2014  01:53:00      -40.876       -4.458       -0.330       36.978       20.334       14.860     1367.382      413.467      220.820        0.185        0.100       41.119       17.232        0.176      339.479       12.840      861.270
10/09/2014  01:54:00      -10.927      -17.110        4.088       17.408       15.710       10.183      303.036      246.798      103.703        0.054        0.033       20.301        6.348        0.098      339.407       12.720      861.272
10/09/2014  01:55:00        4.639      -17.061       -0.687       12.946       14.204        8.748      167.589      201.761       76.519        0.038        0.022       17.680        3.993        0.051      339.319       12.571      861.280
10/09/2014  01:56:00        7.429      -18.615       -0.414       23.936       14.576       15.336      572.948      212.458      235.183        0.071        0.051       20.043        6.326        0.100      339.164       12.309      861.288
10/09/2014  01:57:00      -20.309       -2.371        2.776       20.414        8.409       10.675      416.714       70.706      113.962        0.051        0.030       20.447       12.001        0.344      339.205       12.377      861.284
10/09/2014  01:58:00      -35.875       11.077       -1.959       18.421       11.144        7.023      339.335      124.178       49.328        0.096        0.026       37.546        7.881        0.044      339.435       12.766      861.288
10/09/2014  01:59:00      -44.670      -13.398       -1.300       12.047        9.903        6.882      145.124       98.075       47.365        0.123        0.015       46.636        4.618        0.010      339.500       12.875      861.298
10/09/2014  02:00:00      -54.363      -14.735       -3.577       15.084       14.365        7.718      227.529      206.361       59.575        0.184        0.025       56.325        4.907        0.008      339.243       12.442      861.308
10/09/2014  02:01:00      -53.133      -21.949       -1.069       12.105       12.797        8.074      146.527      163.762       65.182        0.184        0.019       57.488        4.002        0.005      339.340       12.606      861.324
10/09/2014  02:02:00      -45.211      -18.505       -1.518       21.886       13.296        8.608      478.997      176.774       74.099        0.156        0.036       48.852        6.759        0.019      339.272       12.493      861.332
10/09/2014  02:03:00      -73.511       -9.711       -5.248       14.358       12.587        8.119      206.144      158.435       65.912        0.298        0.022       74.150        6.599        0.008      339.234       12.427      861.341
10/09/2014  02:04:00      -93.477      -12.997       -6.947       22.098       18.064       14.434      488.306      326.309      208.341        0.499        0.051       94.377       13.231        0.020      339.144       12.276      861.354
10/09/2014  02:05:00      -76.140       -2.188       -3.532       31.506       21.493       20.084      992.648      461.964      403.352        0.384        0.093       76.171       18.905        0.062      339.044       12.108      861.380
10/09/2014  02:06:00      -49.843       -5.515       -1.470       19.248       11.593       10.465      370.476      134.398      109.506        0.157        0.031       50.147       11.296        0.051      339.187       12.347      861.385
10/09/2014  02:07:00      -35.104      -24.986        2.032       15.113        9.782        9.196      228.404       95.688       84.560        0.113        0.020       43.088        7.472        0.030      339.289       12.519      861.386
10/09/2014  02:08:00      -76.813      -37.060       -4.998       12.082       12.412        8.051      145.983      154.066       64.811        0.383        0.018       85.286        6.010        0.005      339.217       12.399      861.396
10/09/2014  02:09:00      -88.923      -21.891       -8.102       14.433       15.498        8.647      208.298      240.191       74.773        0.449        0.026       91.578        4.511        0.002      339.082       12.170      861.413
10/09/2014  02:10:00      -63.186       -7.777       -2.609       19.368       14.307       11.493      375.127      204.692      132.094        0.239        0.036       63.663       10.790        0.029      339.127       12.248      861.433
10/09/2014  02:11:00      -28.957      -23.719       -0.863       15.500       14.030        9.191      240.258      196.849       84.469        0.096        0.026       37.432        6.184        0.027      339.196       12.364      861.445
10/09/2014  02:12:00       -3.076      -17.547        5.260        6.885        7.825        8.285       47.400       61.226       68.639        0.026        0.009       17.814        5.364        0.091      339.107       12.213      861.444
10/09/2014  02:13:00      -19.748      -29.163       10.685       34.136       20.712       11.037     1165.268      428.972      121.823        0.154        0.086       35.220       14.428        0.168      338.975       11.993      861.454
10/09/2014  02:14:00      -68.906      -10.809        0.812       27.917       24.856       18.541      779.337      617.830      343.780        0.330        0.087       69.749       16.114        0.053      338.958       11.963      861.456
10/09/2014  02:15:00      -49.773       -3.595       -0.631       15.355       14.350       10.693      235.781      205.910      114.335        0.152        0.028       49.903        7.402        0.022      338.916       11.893      861.450
10/09/2014  02:16:00      -46.785      -17.381        4.176       13.755       14.695        8.999      189.209      215.955       80.977        0.150        0.024       49.909        7.741        0.024      339.096       12.197      861.457
10/09/2014  02:17:00      -46.368      -24.301       -0.024       12.827       14.355        9.892      164.536      206.077       97.861        0.160        0.023       52.350        8.669        0.027      339.118       12.230      861.467
10/09/2014  02:18:00      -84.480      -29.851       -2.730       18.043        9.044        7.236      325.535       81.789       52.364        0.425        0.023       89.599        8.697        0.009      339.091       12.185      861.465
10/09/2014  02:19:00      -96.867       -9.630      -10.007       18.406       16.800       10.615      338.766      282.254      112.680        0.515        0.037       97.344        7.358        0.006      339.008       12.046      861.478
10/09/2014  02:20:00     -125.799       22.670       -7.041       19.233       15.635       13.397      369.916      244.456      179.483        0.859        0.040      127.825        7.690        0.004      338.928       11.912      861.479
10/09/2014  02:21:00      -89.183      -14.452       -0.610       35.277       22.508       17.382     1244.498      506.593      302.122        0.511        0.103       90.347       18.105        0.040      338.848       11.777      861.493
10/09/2014  02:22:00      -95.350      -27.140        0.469       29.488       29.191       16.179      869.519      852.090      261.752        0.591        0.099       99.137       15.142        0.023      338.721       11.564      861.498
10/09/2014  02:23:00      -37.126       -9.561        3.206       51.742       21.260       16.975     2677.253      451.972      288.146        0.245        0.171       38.337       20.285        0.280      338.639       11.426      861.500
10/09/2014  02:24:00      -19.502      -28.532       -1.363       31.586       15.384       11.394      997.654      236.665      129.830        0.128        0.068       34.560        6.457        0.035      338.943       11.937      861.491
10/09/2014  02:25:00      -63.073      -33.551       -2.733       28.543       15.097       11.230      814.721      227.924      126.104        0.314        0.058       71.441       14.764        0.043      339.125       12.245      861.493
10/09/2014  02:26:00     -101.834       -7.031      -10.737       31.533       25.969       13.451      994.319      674.377      180.929        0.619        0.092      102.076       14.548        0.020      338.909       11.881      861.490
10/09/2014  02:27:00      -92.473       -6.612      -11.044       30.308       26.631       14.168      918.576      709.185      200.718        0.527        0.091       92.709       13.197        0.020      338.667       11.473      861.496
10/09/2014  02:28:00      -58.366       -9.841       -5.820       19.716       18.430       11.831      388.737      339.669      139.966        0.220        0.043       59.190        9.660        0.027      338.787       11.675      861.491
10/09/2014  02:29:00      -88.419      -10.499      -10.835       24.338       14.337        9.457      592.361      205.542       89.436        0.447        0.044       89.041        8.969        0.010      338.887       11.843      861.484
10/09/2014  02:30:00     -123.389      -31.101      -12.056       19.786       23.485       16.512      391.502      551.558      272.656        0.878        0.061      127.248       14.556        0.013      338.753       11.619      861.482
10/09/2014  02:31:00     -105.274      -18.396       -5.661       27.381       36.609       21.239      749.700     1340.222      451.110        0.700        0.127      106.869       18.738        0.031      338.651       11.448      861.489
10/09/2014  02:32:00      -89.286       -6.749       -7.547       28.397       24.294       18.087      806.406      590.203      327.143        0.490        0.086       89.541       13.728        0.024      338.731       11.581      861.482
10/09/2014  02:33:00     -102.404       -3.431       -8.433       30.266       17.306       13.034      916.039      299.499      169.892        0.598        0.069      102.461       14.126        0.019      338.866       11.809      861.467
10/09/2014  02:34:00      -67.121      -40.351        0.200       24.176       22.108       13.651      584.489      488.770      186.337        0.370        0.063       78.316       10.877        0.019      338.911       11.884      861.451
10/09/2014  02:35:00      -98.788      -52.177       -2.412       29.251       20.626       16.469      855.616      425.443      271.230        0.702        0.078      111.721       17.342        0.024      338.891       11.851      861.437
10/09/2014  02:36:00      -93.824      -41.250       -1.238       14.100       17.370       10.844      198.822      301.724      117.585        0.556        0.031      102.492        9.673        0.009      338.883       11.837      861.423
10/09/2014  02:37:00     -102.706      -41.386       -9.234        7.674        8.434        6.811       58.891       71.138       46.387        0.626        0.009      110.731        2.634        0.001      338.854       11.789      861.422
10/09/2014  02:38:00      -89.717      -48.280       -8.181       27.133       28.042       14.146      736.194      786.368      200.099        0.608        0.086      101.883       12.906        0.016      338.895       11.857      861.398
10/09/2014  02:39:00     -105.641      -39.960       -4.810       16.842       16.228       11.250      283.637      263.339      126.559        0.673        0.034      112.946        8.791        0.006      338.916       11.893      861.387
10/09/2014  02:40:00      -97.609      -42.436      -10.957       16.763       16.459       12.937      280.986      270.901      167.369        0.608        0.036      106.435        5.426        0.003      338.932       11.922      861.391
10/09/2014  02:41:00     -104.572      -37.190       -9.388       15.248       14.209       11.222      232.504      201.882      125.923        0.648        0.028      110.989        4.663        0.002      338.927       11.910      861.378
10/09/2014  02:42:00     -128.131      -57.323       -7.609       13.872       13.828       11.216      192.435      191.202      125.804        1.014        0.025      140.369        3.591        0.001      338.886       11.841      861.371
10/09/2014  02:43:00     -136.970      -44.221       -0.072       23.571       22.593       13.747      555.611      510.451      188.988        1.099        0.063      143.931       13.336        0.009      338.755       11.622      861.378
10/09/2014  02:44:00     -125.149      -37.881       -0.620       29.439       24.315       15.744      866.631      591.197      247.860        0.940        0.085      130.756       12.100        0.009      338.678       11.492      861.367
10/09/2014  02:45:00     -129.511      -46.630        0.660       24.474       21.933       15.797      598.978      481.075      249.532        1.014        0.066      137.650       14.958        0.012      338.681       11.498      861.361
10/09/2014  02:46:00     -132.971      -42.952       -4.306       29.238       25.790       17.251      854.853      665.146      297.581        1.068        0.091      139.736       15.212        0.012      338.660       11.462      861.356
10/09/2014  02:47:00     -133.613      -46.883        1.283       31.926       23.878       19.239     1019.265      570.157      370.129        1.101        0.098      141.600       14.424        0.010      338.742       11.600      861.337
10/09/2014  02:48:00     -114.911      -41.234       -4.979       17.058       15.537        9.062      290.965      241.389       82.111        0.777        0.031      122.085        7.082        0.003      338.823       11.737      861.327
10/09/2014  02:49:00      -84.411      -27.779       -0.854       25.408       24.135       13.333      645.568      582.519      177.779        0.465        0.070       88.864       11.407        0.016      338.666       11.472      861.317
10/09/2014  02:50:00     -104.302      -58.003       -2.191       18.176       17.953       12.412      330.380      322.319      154.051        0.753        0.040      119.345        9.558        0.006      338.718       11.560      861.304
10/09/2014  02:51:00      -65.712      -53.856        2.430       33.513       28.305       18.480     1123.140      801.156      341.506        0.474        0.113       84.962       18.355        0.047      338.726       11.573      861.285
10/09/2014  02:52:00      -93.987      -67.664       -3.699       35.728       26.873       20.198     1276.478      722.178      407.951        0.792        0.120      115.810       18.944        0.027      338.805       11.705      861.295
10/09/2014  02:53:00      -67.183      -46.477        3.756       40.208       25.025       19.307     1616.654      626.266      372.757        0.465        0.131       81.692       22.637        0.077      338.729       11.579      861.294
10/09/2014  02:54:00      -75.016      -46.300       -0.562       30.462       21.434       17.086      927.917      459.402      291.938        0.473        0.084       88.154       17.485        0.039      338.744       11.603      861.286
10/09/2014  02:55:00      -74.686      -51.012        1.225       38.691       18.916       19.899     1496.993      357.808      395.968        0.522        0.113       90.444       21.974        0.059      338.667       11.474      861.302
10/09/2014  02:56:00     -103.488      -39.701        2.320       31.276       24.466       19.656      978.163      598.599      386.353        0.713        0.098      110.842       17.463        0.025      338.574       11.318      861.313
10/09/2014  02:57:00      -76.890      -35.535        7.487       40.166       24.778       17.664     1613.289      613.974      312.033        0.488        0.127       84.704       18.403        0.047      338.526       11.238      861.311
10/09/2014  02:58:00      -91.775      -43.188        3.705       36.369       24.425       16.366     1322.728      596.591      267.843        0.624        0.109      101.429       16.304        0.026      338.556       11.287      861.320
10/09/2014  02:59:00      -89.307      -31.999        2.003       33.855       20.241       14.021     1146.159      409.718      196.576        0.538        0.088       94.866       16.769        0.031      338.590       11.344      861.310
10/09/2014  03:00:00      -81.539      -17.618       -2.792       32.837       32.455       21.365     1078.299     1053.357      456.465        0.478        0.129       83.421       21.751        0.068      338.501       11.195      861.301
10/09/2014  03:01:00      -89.659      -27.914        0.940       30.367       27.828       16.600      922.139      774.418      275.552        0.540        0.099       93.904       16.306        0.030      338.488       11.173      861.304
10/09/2014  03:02:00      -88.065      -46.414       -9.547       25.678       17.805       18.412      659.384      317.019      339.010        0.566        0.066       99.548       19.168        0.037      338.440       11.093      861.303
10/09/2014  03:03:00     -117.802      -57.008      -10.258       19.925       17.102       11.416      396.989      292.462      130.331        0.903        0.041      130.872        4.896        0.001      338.504       11.200      861.307
10/09/2014  03:04:00     -132.778      -64.899      -11.223       21.495       25.800       11.327      462.051      665.615      128.292        1.161        0.063      147.790        6.660        0.002      338.565       11.303      861.311
10/09/2014  03:05:00      -98.312      -46.616       -4.885       29.600       17.301       12.336      876.166      299.317      152.181        0.659        0.066      108.804       12.658        0.014      338.606       11.372      861.319
10/09/2014  03:06:00      -80.247      -50.831       -0.596       34.830       23.022       14.842     1213.104      529.998      220.283        0.549        0.098       94.992        4.243        0.002      338.672       11.482      861.309
10/09/2014  03:07:00      -99.553      -49.677       -5.866       17.137       13.963       12.432      293.678      194.968      154.542        0.653        0.032      111.260        5.794        0.003      338.617       11.390      861.295
10/09/2014  03:08:00      -97.646      -47.038      -13.044       13.653       12.752       11.437      186.394      162.611      130.809        0.620        0.024      108.385        6.258        0.003      338.647       11.441      861.276
10/09/2014  03:09:00      -90.455      -53.863       -5.621       20.930       15.771       12.368      438.046      248.730      152.974        0.598        0.042      105.278        9.725        0.009      338.683       11.502      861.254
10/09/2014  03:10:00     -120.828      -36.397       -7.386       25.519       24.284       14.238      651.244      589.699      202.723        0.871        0.072      126.191       12.772        0.010      338.606       11.373      861.250
10/09/2014  03:11:00     -131.153      -42.588       -3.699       19.481       18.088       13.625      379.501      327.188      185.643        0.996        0.045      137.894       10.536        0.006      338.558       11.292      861.251
10/09/2014  03:12:00     -100.342      -50.336        1.594       27.497       17.805       16.051      756.105      317.017      257.639        0.697        0.067      112.259       13.049        0.014      338.455       11.118      861.237
10/09/2014  03:13:00      -86.258      -46.714       -2.888       32.702       22.572       19.033     1069.452      509.508      362.272        0.579        0.097       98.095       16.222        0.027      338.506       11.205      861.217
10/09/2014  03:14:00      -87.604      -44.461        1.404       35.724       22.594       18.988     1276.217      510.472      360.534        0.590        0.107       98.241       18.085        0.034      338.506       11.204      861.219
10/09/2014  03:15:00     -101.506      -50.887       -4.478       31.887       30.976       16.458     1016.796      959.524      270.850        0.758        0.112      113.547       14.146        0.016      338.527       11.238      861.217
10/09/2014  03:16:00      -92.067      -76.548        0.930       36.320       33.092       19.632     1319.140     1095.107      385.422        0.857        0.140      119.733       17.977        0.023      338.708       11.542      861.208
10/09/2014  03:17:00      -86.135      -61.247       -0.769       39.973       29.617       20.350     1597.846      877.146      414.106        0.703        0.144      105.691       21.815        0.043      338.694       11.519      861.209
10/09/2014  03:18:00      -87.727      -54.425       -1.731       40.756       21.925       19.823     1661.086      480.704      392.962        0.660        0.127      103.238       22.651        0.048      338.667       11.475      861.215
10/09/2014  03:19:00      -48.241      -28.659        6.532       40.269       18.948       15.848     1621.617      359.020      251.169        0.271        0.112       56.112       16.370        0.085      338.624       11.401      861.212
10/09/2014  03:20:00      -93.699      -28.641       -1.276       42.343       17.771       14.872     1792.942      315.815      221.178        0.597        0.116       97.979       19.838        0.041      338.626       11.406      861.203
10/09/2014  03:21:00      -56.065      -34.402        5.810       36.488       19.086       14.776     1331.379      364.283      218.316        0.314        0.096       65.778       15.284        0.054      338.600       11.361      861.203
10/09/2014  03:22:00      -73.112      -77.059       -3.374       26.580       22.975       17.283      706.517      527.861      298.698        0.641        0.077      106.223       14.692        0.019      338.775       11.655      861.220
10/09/2014  03:23:00      -46.423      -52.686       -1.416       40.657       20.116       17.112     1653.001      404.672      292.806        0.364        0.118       70.220       11.152        0.025      338.784       11.672      861.198
10/09/2014  03:24:00      -41.105      -51.162        4.416       33.732       28.381       19.922     1137.854      805.495      396.902        0.333        0.117       65.629       16.462        0.063      338.784       11.670      861.185
10/09/2014  03:25:00      -66.139      -45.815        2.686       33.452       27.513       17.885     1119.063      756.965      319.857        0.434        0.110       80.457       16.264        0.041      338.737       11.592      861.178
10/09/2014  03:26:00      -86.870      -36.738       -2.825       27.508       23.383       15.107      756.716      546.759      228.216        0.522        0.077       94.320       12.522        0.018      338.631       11.414      861.178
10/09/2014  03:27:00      -80.648      -59.055        3.123       49.562       27.697       20.609     2456.417      767.112      424.711        0.682        0.182       99.958       16.729        0.028      338.575       11.319      861.183
10/09/2014  03:28:00      -88.501      -52.031        6.650       42.573       31.560       22.212     1812.429      996.059      493.383        0.694        0.165      102.663       23.678        0.053      338.581       11.328      861.178
10/09/2014  03:29:00      -55.574      -41.460        4.912       35.411       35.527       19.459     1253.921     1262.145      378.634        0.386        0.145       69.335       19.264        0.077      338.581       11.329      861.182
10/09/2014  03:30:00      -54.168      -43.469        6.792       37.071       29.444       13.768     1374.281      866.921      189.549        0.365        0.122       69.453       17.294        0.062      338.596       11.354      861.180
10/09/2014  03:31:00      -76.864      -62.502        3.776       57.921       39.774       27.268     3354.825     1581.944      743.525        0.775        0.284       99.068       31.447        0.101      338.558       11.290      861.176
10/09/2014  03:32:00     -125.482      -81.039        0.286       44.365       43.712       25.992     1968.252     1910.753      675.576        1.343        0.228      149.376       16.626        0.012      338.679       11.494      861.171
10/09/2014  03:33:00     -103.861      -69.096       -3.814       48.840       32.955       24.769     2385.311     1086.022      613.513        0.983        0.204      124.745       22.421        0.032      338.590       11.345      861.185
10/09/2014  03:34:00      -95.725      -77.775       -3.154       39.130       49.590       19.679     1531.142     2459.155      387.269        0.980        0.219      123.338       18.323        0.022      338.590       11.344      861.182
10/09/2014  03:35:00     -113.374      -99.368       -8.423       37.532       27.440       19.802     1408.633      752.952      392.134        1.268        0.128      150.757       12.477        0.007      338.574       11.319      861.179
10/09/2014  03:36:00      -76.874      -56.109        8.387       47.074       26.026       20.661     2215.935      677.329      426.884        0.622        0.166       95.173       19.584        0.042      338.517       11.223      861.184
10/09/2014  03:37:00      -69.058      -41.519       -0.941       28.365       28.805       19.849      804.560      829.704      393.971        0.426        0.101       80.579       12.595        0.024      338.580       11.328      861.183
10/09/2014  03:38:00      -88.523      -53.508       -3.651       31.284       28.634       18.096      978.717      819.930      327.467        0.642        0.106      103.438       17.213        0.028      338.544       11.267      861.173
10/09/2014  03:39:00     -109.079      -67.032       -6.555       30.617       28.270       19.390      937.371      799.183      375.958        0.927        0.106      128.029       17.326        0.018      338.616       11.389      861.164
10/09/2014  03:40:00      -85.411      -56.279        3.212       36.060       30.877       21.784     1300.308      953.407      474.561        0.660        0.136      102.286       15.175        0.022      338.546       11.272      861.162
10/09/2014  03:41:00      -73.623      -44.983       -1.612       39.226       26.138       19.693     1538.643      683.170      387.819        0.503        0.130       86.277       15.169        0.031      338.565       11.302      861.161
10/09/2014  03:42:00     -101.226      -67.736       -4.768       26.631       38.069       19.524      709.219     1449.213      381.183        0.870        0.127      121.799       15.261        0.016      338.539       11.259      861.157
10/09/2014  03:43:00     -101.914      -39.148       -8.132       26.080       20.756       13.821      680.180      430.804      191.023        0.664        0.065      109.174        5.775        0.003      338.458       11.124      861.154
10/09/2014  03:44:00      -71.991      -39.083       -2.358       41.038       19.894       16.317     1684.150      395.769      266.248        0.453        0.117       81.916       18.791        0.053      338.394       11.016      861.150
10/09/2014  03:45:00      -83.182      -68.067       -0.654       33.009       30.388       20.477     1089.583      923.412      419.290        0.699        0.122      107.482       16.145        0.023      338.514       11.215      861.128
10/09/2014  03:46:00     -118.381      -80.194       -6.882       25.125       26.025       15.879      631.256      677.323      252.142        1.103        0.078      142.987       11.922        0.007      338.567       11.307      861.118
10/09/2014  03:47:00     -120.500      -34.815       -7.925       37.820       35.770       21.341     1430.374     1279.507      455.430        0.948        0.158      125.429       19.940        0.025      338.468       11.139      861.123
10/09/2014  03:48:00      -98.251      -40.045        2.760       34.750       34.506       19.278     1207.541     1190.631      371.637        0.702        0.138      106.098       20.381        0.037      338.427       11.071      861.126
10/09/2014  03:49:00      -98.471      -36.319       -4.455       29.442       28.649       15.898      866.831      820.782      252.751        0.649        0.097      104.955        6.285        0.004      338.438       11.089      861.114
10/09/2014  03:50:00      -79.331      -41.971       -6.140       34.277       35.444       17.551     1174.921     1256.280      308.026        0.542        0.137       89.750       18.183        0.041      338.452       11.112      861.102
10/09/2014  03:51:00      -88.606      -42.708       -2.636       20.976       26.302       17.028      440.013      691.781      289.952        0.555        0.071       98.361        8.682        0.008      338.488       11.174      861.095
10/09/2014  03:52:00      -57.883      -28.928       -0.884       20.206       20.428       15.346      408.282      417.286      235.505        0.262        0.053       64.709       12.948        0.040      338.408       11.040      861.089
10/09/2014  03:53:00      -17.031      -32.514        4.127       37.782       20.946       14.535     1427.486      438.748      211.274        0.172        0.104       36.704       18.580        0.256      338.464       11.133      861.090
10/09/2014  03:54:00      -77.125      -42.643       -9.954       29.694       24.362       15.003      881.739      593.522      225.078        0.478        0.085       88.129        7.344        0.007      338.489       11.176      861.106
10/09/2014  03:55:00     -108.012      -19.938       -8.524       31.356       22.796       18.409      983.193      519.645      338.885        0.699        0.092      109.836       16.436        0.022      338.311       10.876      861.128
10/09/2014  03:56:00     -102.009      -20.363       -2.998       41.406       30.818       18.158     1714.467      949.721      329.697        0.691        0.150      104.021       20.180        0.038      338.162       10.625      861.140
10/09/2014  03:57:00     -124.579      -51.255       -1.875       28.409       25.647       16.370      807.075      657.786      267.967        0.994        0.087      134.710       15.725        0.014      338.335       10.916      861.141
10/09/2014  03:58:00      -97.339      -22.275       -3.381       37.123       36.068       18.315     1378.080     1300.878      335.438        0.650        0.151       99.855       16.161        0.026      338.203       10.695      861.142
10/09/2014  03:59:00      -93.511      -35.426        2.251       23.814       21.467       14.528      567.094      460.843      211.073        0.562        0.062       99.996       13.883        0.019      338.166       10.632      861.135
10/09/2014  04:00:00      -73.830      -42.778        0.405       50.384       24.659       15.165     2538.595      608.078      229.985        0.533        0.169       85.328       20.123        0.056      338.201       10.692      861.138
10/09/2014  04:01:00     -115.386      -26.416        3.765       38.650       31.847       19.865     1493.837     1014.220      394.633        0.846        0.145      118.371       19.699        0.028      338.145       10.597      861.151
10/09/2014  04:02:00      -82.538      -17.640        8.158       41.412       26.243       20.818     1714.932      688.703      433.377        0.501        0.142       84.402       21.530        0.065      337.936       10.246      861.169
10/09/2014  04:03:00      -63.747      -42.701        1.675       29.370       23.736       16.004      862.572      563.385      256.128        0.379        0.084       76.727       14.874        0.038      338.219       10.722      861.168
10/09/2014  04:04:00      -68.209      -41.552        2.011       55.699       24.499       15.664     3102.394      600.209      245.376        0.516        0.197       79.869       21.501        0.072      338.287       10.835      861.153
10/09/2014  04:05:00     -159.540      -41.014       -8.468       45.737       34.590       21.305     2091.871     1196.439      453.921        1.547        0.187      164.728       21.383        0.017      338.129       10.570      861.147
10/09/2014  04:06:00     -146.188      -64.443        2.411       42.549       39.941       21.142     1810.387     1595.244      446.964        1.469        0.193      159.761       18.710        0.014      338.116       10.548      861.154
10/09/2014  04:07:00      -72.187      -64.064       -5.702       42.687       27.838       18.815     1822.172      774.928      354.014        0.615        0.148       96.515       22.667        0.055      338.260       10.790      861.151
10/09/2014  04:08:00     -101.382      -38.894       -7.972       22.024       27.163       13.522      485.077      737.849      182.842        0.663        0.070      108.587        9.944        0.008      338.241       10.758      861.138
10/09/2014  04:09:00     -114.458      -24.922       -1.138       47.618       26.393       22.376     2267.456      696.603      500.671        0.859        0.173      117.140       24.024        0.042      338.114       10.544      861.132
10/09/2014  04:10:00     -160.486      -26.204      -10.451       39.214       28.901       21.741     1537.725      835.284      472.664        1.470        0.142      162.611       18.519        0.013      337.771        9.971      861.139
10/09/2014  04:11:00     -140.700      -65.096       -8.056       24.789       23.303       16.232      614.513      543.027      263.485        1.276        0.071      155.029       11.214        0.005      337.702        9.855      861.137
10/09/2014  04:12:00     -114.103      -57.037       -7.337       39.585       31.083       16.576     1566.945      966.182      274.753        0.957        0.140      127.565       19.985        0.025      337.788        9.999      861.129
10/09/2014  04:13:00      -73.719      -20.820       -9.619       38.350       22.318       14.230     1470.714      498.098      202.494        0.407        0.109       76.603       16.860        0.048      337.765        9.960      861.114
10/09/2014  04:14:00      -80.872      -18.836      -10.937       27.735       19.691       16.798      769.240      387.746      282.177        0.423        0.072       83.037       12.224        0.022      337.731        9.904      861.111
10/09/2014  04:15:00     -149.144      -47.777      -17.281       22.283       24.825       15.176      496.523      616.297      230.296        1.308        0.067      156.610        2.498        0.000      337.621        9.719      861.124
10/09/2014  04:16:00     -129.833      -21.973      -10.573       32.216       34.995       17.428     1037.849     1224.640      303.727        1.001        0.128      131.679       15.003        0.013      337.562        9.620      861.137
10/09/2014  04:17:00     -134.082       18.240       -5.998       41.635       40.036       27.310     1733.448     1602.906      745.854        1.121        0.204      135.317       23.838        0.031      337.716        9.878      861.136
10/09/2014  04:18:00      -50.589       -7.157       -0.177       51.864       29.669       24.946     2689.830      880.265      622.301        0.340        0.210       51.093       23.256        0.207      337.729        9.900      861.136
10/09/2014  04:19:00        4.928      -24.040       10.004       25.803       34.199       21.250      665.807     1169.597      451.553        0.149        0.114       24.540       18.893        0.593      337.742        9.921      861.137
10/09/2014  04:20:00      -18.472      -18.070       -2.677       20.370       10.921       11.170      414.950      119.261      124.780        0.067        0.033       25.840        9.116        0.124      337.695        9.841      861.141
10/09/2014  04:21:00      -35.727      -23.785       -0.652       14.808       13.020        8.735      219.286      169.510       76.304        0.115        0.023       42.920        4.143        0.009      337.709        9.866      861.151
10/09/2014  04:22:00      -33.984      -13.482       -1.272       19.057       10.966        7.798      363.184      120.242       60.816        0.094        0.027       36.560        4.102        0.013      337.764        9.959      861.167
10/09/2014  04:23:00      -12.660      -24.931       -9.857       26.459       12.033       10.080      700.052      144.789      101.602        0.091        0.047       27.962       10.708        0.147      337.787        9.997      861.168
10/09/2014  04:24:00      -14.418      -19.817       -3.722       16.624       13.095       10.852      276.353      171.490      117.762        0.059        0.028       24.507        6.183        0.064      337.827       10.063      861.166
10/09/2014  04:25:00      -38.613      -29.191        5.643       40.453       23.977       12.232     1636.439      574.919      149.625        0.237        0.118       48.406       15.683        0.105      337.770        9.969      861.171
10/09/2014  04:26:00      -75.659      -25.555       -6.344       23.553       28.146       16.688      554.740      792.202      278.490        0.402        0.081       79.858       14.831        0.034      337.804       10.026      861.181
10/09/2014  04:27:00      -57.395      -26.042       -1.089       17.208       18.532       13.508      296.108      343.452      182.475        0.240        0.041       63.027        9.773        0.024      337.677        9.811      861.176
10/09/2014  04:28:00      -78.495      -25.715      -10.077       10.512       12.291        8.134      110.509      151.062       66.162        0.363        0.016       82.600        6.252        0.006      337.758        9.949      861.179
10/09/2014  04:29:00      -83.662      -25.188       -7.021       13.061       11.753       10.265      170.588      138.133      105.377        0.405        0.021       87.371        3.177        0.001      337.859       10.118      861.197
10/09/2014  04:30:00      -95.156      -40.892       -6.696       14.376       16.482        9.969      206.655      271.659       99.378        0.567        0.029      103.570        6.060        0.003      337.856       10.112      861.196
10/09/2014  04:31:00      -99.884      -29.406       -5.236       13.045       15.093        7.141      170.180      227.802       50.992        0.566        0.022      104.123        4.842        0.002      337.884       10.160      861.205
10/09/2014  04:32:00     -102.395      -31.559       -6.320       14.847       15.474        8.179      220.443      239.448       66.893        0.602        0.026      107.148        2.092        0.000      337.753        9.939      861.225
10/09/2014  04:33:00      -61.809      -29.587       -2.716       15.465       12.595        7.771      239.163      158.640       60.394        0.258        0.023       68.525        5.558        0.007      337.710        9.868      861.229
10/09/2014  04:34:00      -25.002      -23.125       -0.053       25.753       10.737        9.313      663.210      115.289       86.737        0.101        0.043       34.057        9.997        0.086      337.777        9.980      861.228
10/09/2014  04:35:00      -51.616      -30.233       -6.582       16.738       11.994        8.952      280.174      143.857       80.136        0.206        0.025       59.819        5.099        0.007      337.863       10.126      861.235
10/09/2014  04:36:00      -95.742      -27.905       -8.960       11.955       14.235       10.423      142.921      202.645      108.631        0.524        0.023       99.726        6.223        0.004      337.787        9.998      861.246
10/09/2014  04:37:00     -120.052      -27.575      -14.900       20.238       16.252       11.655      409.559      264.121      135.839        0.810        0.040      123.178        8.927        0.005      337.741        9.921      861.258
10/09/2014  04:38:00      -95.423      -37.921       -7.163       12.098       12.236        6.950      146.371      149.719       48.304        0.547        0.017      102.682        2.311        0.001      337.774        9.974      861.259
10/09/2014  04:39:00      -89.582      -30.582       -8.170       20.093       15.997        9.805      403.717      255.906       96.147        0.489        0.038       94.658        8.806        0.009      337.975       10.313      861.247
10/09/2014  04:40:00      -81.748      -25.372       -4.695       11.720       18.555        9.723      137.361      344.279       94.529        0.396        0.029       85.595        4.000        0.002      337.841       10.088      861.250
10/09/2014  04:41:00      -74.943      -19.827       -6.247       13.948        8.535        6.543      194.539       72.843       42.817        0.318        0.016       77.522        4.813        0.004      337.870       10.136      861.262
10/09/2014  04:42:00      -60.704      -27.353       -9.040       16.037       10.540       10.580      257.182      111.086      111.935        0.250        0.024       66.582        8.619        0.017      337.903       10.192      861.266
10/09/2014  04:43:00      -49.472      -25.712      -12.657       13.051       15.822        8.263      170.316      250.326       68.270        0.188        0.024       55.755        4.902        0.008      337.919       10.219      861.258
10/09/2014  04:44:00      -37.204      -26.638      -14.541       19.811       15.659       13.482      392.471      245.190      181.758        0.156        0.041       45.757        6.741        0.022      337.862       10.120      861.254
10/09/2014  04:45:00      -49.886      -29.197       -5.646       31.824       14.542       15.190     1012.742      211.481      230.743        0.241        0.073       57.803       17.637        0.093      337.777        9.979      861.265
10/09/2014  04:46:00     -104.694      -37.999      -15.893       17.621       16.566       12.441      310.488      274.417      154.768        0.670        0.037      111.377        7.283        0.004      337.609        9.697      861.267
10/09/2014  04:47:00     -116.725      -44.754      -15.977       15.940       18.761       13.499      254.079      351.978      182.231        0.834        0.039      125.011        8.941        0.005      337.586        9.661      861.272
10/09/2014  04:48:00     -101.483      -31.778      -13.829       11.611       12.455       10.663      134.814      155.139      113.698        0.595        0.020      106.342        4.397        0.002      337.579        9.648      861.272
10/09/2014  04:49:00      -90.579      -41.939      -16.293       12.227       14.060        9.375      149.507      197.671       87.892        0.533        0.022       99.817        7.872        0.006      337.624        9.722      861.273
10/09/2014  04:50:00     -106.725      -34.288      -19.309       17.009       12.487        9.357      289.319      155.920       87.561        0.674        0.027      112.097        8.064        0.005      337.589        9.666      861.283
10/09/2014  04:51:00     -125.177      -39.294      -13.004       20.187       20.690       14.987      407.503      428.076      224.615        0.922        0.053      131.200        8.263        0.004      337.630        9.735      861.289
10/09/2014  04:52:00     -140.766      -46.309      -10.113       24.351       18.702       13.353      592.990      349.780      178.308        1.159        0.056      148.187       13.216        0.008      337.606        9.694      861.310
10/09/2014  04:53:00      -82.005      -42.927       -1.688       28.700       25.440       15.332      823.704      647.171      235.073        0.514        0.085       92.561       13.642        0.022      337.625        9.724      861.319
10/09/2014  04:54:00      -59.892      -45.070       -8.054       17.617       17.355       13.705      310.368      301.186      187.832        0.324        0.040       74.956       10.506        0.020      337.752        9.939      861.331
10/09/2014  04:55:00      -44.191      -42.752       -1.905       22.425       19.571       11.517      502.884      383.038      132.635        0.240        0.051       61.486        8.117        0.017      337.978       10.317      861.336
10/09/2014  04:56:00      -84.704      -28.786       -8.566       13.719       18.311        8.995      188.209      335.310       80.901        0.434        0.030       89.462        5.107        0.003      337.822       10.056      861.337
10/09/2014  04:57:00      -81.982      -19.133       -2.331       38.575       23.785       18.083     1488.000      565.739      326.985        0.474        0.119       84.185       19.393        0.053      337.733        9.907      861.347
10/09/2014  04:58:00      -82.819      -22.699       -0.858       28.196       21.481       14.974      795.039      461.444      224.224        0.443        0.074       85.873       14.413        0.028      337.673        9.807      861.360
10/09/2014  04:59:00      -80.362      -26.942       -3.388       17.066       10.436       10.472      291.234      108.905      109.668        0.385        0.025       84.758        7.137        0.007      337.848       10.099      861.367
10/09/2014  05:00:00      -55.412      -22.937       -2.093       12.898       12.293        7.194      166.358      151.110       51.749        0.199        0.018       59.971        4.025        0.005      337.872       10.138      861.362
10/09/2014  05:01:00      -79.452      -23.133       -3.935       14.578       21.015        9.819      212.504      441.633       96.418        0.381        0.038       82.751        6.755        0.007      337.845       10.094      861.366
10/09/2014  05:02:00      -91.000      -23.169      -13.351       16.494       14.632       10.031      272.053      214.082      100.626        0.479        0.029       93.903        6.067        0.004      337.855       10.110      861.370
10/09/2014  05:03:00     -101.275      -28.815       -9.794       10.446       10.113        8.170      109.111      102.277       66.756        0.573        0.014      105.295        2.809        0.001      337.856       10.112      861.378
10/09/2014  05:04:00      -63.058      -40.226        0.559       36.106       20.068       15.909     1303.670      402.705      253.111        0.378        0.098       74.796       19.552        0.068      337.798       10.016      861.391
10/09/2014  05:05:00      -52.072      -49.183        4.340       38.656       31.333       20.824     1494.299      981.754      433.653        0.403        0.145       71.627       19.541        0.074      337.790       10.001      861.399
10/09/2014  05:06:00      -63.418      -35.528        3.442       35.540       21.155       18.975     1263.064      447.523      360.047        0.368        0.104       72.692       21.268        0.086      337.755        9.943      861.402
10/09/2014  05:07:00      -79.848      -39.855        0.496       30.294       17.999       12.064      917.710      323.978      145.548        0.468        0.069       89.242       10.348        0.013      337.815       10.046      861.409
10/09/2014  05:08:00     -108.777      -33.238       -5.270       26.450       16.914       15.916      699.591      286.079      253.306        0.710        0.062      113.742       12.557        0.012      337.852       10.106      861.410
10/09/2014  05:09:00      -94.438      -13.344       -9.988       36.460       26.979       19.865     1329.323      727.871      394.633        0.582        0.123       95.376       21.874        0.053      337.769        9.967      861.410
10/09/2014  05:10:00     -113.048      -13.709       -2.231       32.585       22.512       18.182     1061.802      506.778      330.602        0.744        0.095      113.877       17.328        0.023      337.567        9.628      861.409
10/09/2014  05:11:00      -72.465      -46.821        8.491       48.661       22.061       21.174     2367.867      486.702      448.341        0.541        0.165       86.275       23.574        0.075      337.620        9.717      861.415
10/09/2014  05:12:00      -97.777      -52.379       -4.690       40.030       22.035       16.808     1602.439      485.527      282.525        0.735        0.119      110.923       17.773        0.026      337.740        9.918      861.420
10/09/2014  05:13:00     -113.510      -28.040       -1.144       29.282       24.422       15.743      857.432      596.432      247.838        0.769        0.085      116.922       11.735        0.010      337.756        9.943      861.417
10/09/2014  05:14:00     -116.266      -43.156        5.410       30.333       20.920       16.620      920.119      437.666      276.209        0.852        0.082      124.018       14.274        0.013      337.688        9.832      861.427
10/09/2014  05:15:00     -121.616      -56.789        0.506       29.753       18.262       17.345      885.223      333.513      300.849        0.977        0.076      134.221       15.389        0.013      337.810       10.035      861.425
10/09/2014  05:16:00     -123.417      -34.005       -5.861       16.697       17.023       11.888      278.791      289.798      141.318        0.857        0.035      128.016        8.719        0.005      337.866       10.130      861.417
10/09/2014  05:17:00      -94.125       -6.691       -3.606       30.625       18.751       15.931      937.905      351.587      253.790        0.523        0.077       94.363       17.250        0.033      337.606        9.694      861.411
10/09/2014  05:18:00      -73.318      -25.258        0.117       24.822       19.923       16.128      616.150      396.937      260.122        0.364        0.064       77.547       13.866        0.032      337.648        9.765      861.417
10/09/2014  05:19:00      -68.469      -29.374        4.134       34.031       23.050       15.736     1158.088      531.313      247.613        0.375        0.097       74.504       17.975        0.058      337.767        9.964      861.430
10/09/2014  05:20:00      -64.579      -41.715       -3.147       24.437       21.546       15.832      597.189      464.237      250.666        0.362        0.066       76.880       13.872        0.033      337.719        9.883      861.434
10/09/2014  05:21:00      -78.472      -22.205       -5.552       17.862       18.594       12.441      319.045      345.729      154.775        0.375        0.041       81.553        8.370        0.011      337.573        9.638      861.437
10/09/2014  05:22:00     -102.119      -39.938        1.001       20.475       20.650       13.748      419.216      426.410      189.016        0.653        0.052      109.650       10.950        0.010      337.551        9.602      861.439
10/09/2014  05:23:00      -21.892      -30.039       10.490       36.836       24.380       15.084     1356.864      594.375      227.518        0.183        0.109       37.170       15.206        0.167      337.637        9.747      861.442
10/09/2014  05:24:00      -13.434      -41.919        5.508       33.441       17.767       15.178     1118.313      315.672      230.365        0.182        0.083       44.018       18.653        0.180      337.797       10.014      861.447
10/09/2014  05:25:00      -39.784      -18.935        6.471       36.160       22.161       13.421     1307.513      491.121      180.133        0.198        0.099       44.060       16.316        0.137      337.808       10.033      861.457
10/09/2014  05:26:00      -81.883      -21.665       -6.862       22.696       23.075       15.644      515.130      532.450      244.743        0.426        0.065       84.700       15.809        0.035      337.742        9.921      861.460
10/09/2014  05:27:00      -53.137      -13.885       -2.210       20.464       18.223       13.346      418.762      332.069      178.120        0.197        0.046       54.921       11.526        0.044      337.555        9.608      861.466
10/09/2014  05:28:00      -46.842       -6.075        0.170       16.644       17.730       12.518      277.037      314.337      156.691        0.149        0.037       47.234        7.842        0.028      337.597        9.677      861.456
10/09/2014  05:29:00      -45.556      -23.344       -0.151       20.803       12.025        8.536      432.759      144.601       72.858        0.164        0.033       51.189        7.638        0.022      337.718        9.881      861.459
10/09/2014  05:30:00      -43.895      -35.361       -5.103       24.769       13.468        9.120      613.503      181.393       83.180        0.204        0.044       56.366        7.474        0.018      337.866       10.130      861.469
10/09/2014  05:31:00      -80.586      -31.631       -6.043       12.729       11.952        7.764      162.019      142.839       60.272        0.395        0.018       86.571        3.499        0.002      337.760        9.952      861.474
10/09/2014  05:32:00      -63.119      -16.691       -3.903       26.691       21.612       14.457      712.421      467.085      209.016        0.283        0.069       65.289       14.707        0.051      337.651        9.769      861.479
10/09/2014  05:33:00      -57.355       14.054       -0.233       45.183       26.703       14.154     2041.484      713.043      200.349        0.322        0.148       59.052       12.716        0.046      337.529        9.565      861.485
10/09/2014  05:34:00      -98.808        6.938       -7.197       23.288       20.749       12.798      542.323      430.517      163.782        0.550        0.057       99.052       10.498        0.011      337.485        9.491      861.492
10/09/2014  05:35:00      -89.559       -8.239       -6.490       26.851       20.043       12.441      720.967      401.704      154.777        0.470        0.064       89.938        9.828        0.012      337.359        9.281      861.485
10/09/2014  05:36:00      -96.946      -13.940       -4.655       29.314       21.641       17.436      859.308      468.320      304.029        0.562        0.082       97.944       14.602        0.022      337.272        9.134      861.480
10/09/2014  05:37:00      -97.694       -6.868       -3.761       42.465       26.582       23.046     1803.269      706.584      531.127        0.632        0.152       97.935       25.124        0.066      337.262        9.118      861.471
10/09/2014  05:38:00     -101.144      -21.403       -9.460       27.666       29.736       18.064      765.432      884.241      326.300        0.638        0.099      103.383       15.015        0.021      337.258        9.112      861.463
10/09/2014  05:39:00     -107.652      -34.805       -3.929       24.273       27.675       16.923      589.155      765.899      286.386        0.723        0.082      113.139       10.802        0.009      337.134        8.904      861.450
10/09/2014  05:40:00     -121.715      -35.448      -14.240       19.760       25.548       15.067      390.464      652.677      227.017        0.877        0.064      126.772        8.924        0.005      337.170        8.963      861.447
10/09/2014  05:41:00     -108.178      -30.501       -9.552       24.346       20.080       13.483      592.744      403.212      181.782        0.695        0.059      112.395       10.108        0.008      337.136        8.907      861.446
10/09/2014  05:42:00      -95.620      -14.055       -8.163       35.579       20.864       17.756     1265.843      435.327      315.284        0.571        0.101       96.647       16.238        0.028      337.040        8.746      861.460
10/09/2014  05:43:00      -90.358      -22.987       -4.295       53.495       30.950       23.012     2861.687      957.888      529.548        0.653        0.217       93.236       24.281        0.068      336.988        8.658      861.467
10/09/2014  05:44:00      -68.032      -28.605       -2.042       41.753       25.893       17.269     1743.308      670.469      298.209        0.408        0.136       73.801       21.577        0.085      337.006        8.687      861.480
10/09/2014  05:45:00      -71.543      -27.317       -4.028       23.551       22.687       14.253      554.661      514.719      203.148        0.358        0.064       76.581       12.404        0.026      337.037        8.740      861.480
10/09/2014  05:46:00     -102.665      -28.255      -12.743       14.522       17.735       14.100      210.879      314.532      198.809        0.611        0.036      106.482        6.793        0.004      337.147        8.926      861.481
10/09/2014  05:47:00     -103.744      -17.533      -13.498       18.569       14.491       11.822      344.808      209.977      139.767        0.597        0.035      105.215        9.022        0.007      337.117        8.874      861.492
10/09/2014  05:48:00     -110.431      -40.812      -14.093       14.751       17.350        9.537      217.580      301.022       90.954        0.733        0.030      117.731        6.441        0.003      337.216        9.039      861.489
10/09/2014  05:49:00      -93.847      -26.086       -9.773       17.294       18.339       10.999      299.080      336.320      120.985        0.517        0.038       97.405        9.354        0.009      337.288        9.162      861.489
10/09/2014  05:50:00      -95.666      -37.309      -14.402        8.175        9.313        9.546       66.834       86.735       91.119        0.550        0.012      102.684        5.204        0.003      337.242        9.084      861.493
10/09/2014  05:51:00      -83.914      -19.081       -7.013       16.809       20.373       14.504      282.555      415.065      210.359        0.418        0.045       86.056       10.759        0.016      337.220        9.047      861.509
10/09/2014  05:52:00      -94.974      -16.423      -10.307       14.563       13.079       14.286      212.087      171.059      204.080        0.499        0.029       96.384        7.706        0.006      337.168        8.962      861.521
10/09/2014  05:53:00      -96.177      -42.585      -11.407       22.729       20.234       13.355      516.616      409.412      178.368        0.615        0.055      105.183       10.203        0.009      337.102        8.849      861.528
10/09/2014  05:54:00     -100.163      -29.887      -11.669       31.605       22.825       16.676      998.854      520.993      278.084        0.643        0.090      104.527       11.417        0.012      337.079        8.812      861.536
10/09/2014  05:55:00     -133.380      -48.595      -21.801       24.849       29.104       16.379      617.489      847.033      268.283        1.118        0.087      141.956       11.593        0.007      336.968        8.622      861.548
10/09/2014  05:56:00      -95.612      -42.678       -9.608       25.878       16.522       14.437      669.689      272.974      208.429        0.610        0.058      104.705       13.592        0.017      336.930        8.561      861.561
10/09/2014  05:57:00      -70.103      -36.998       -6.100       22.338       31.928       20.740      498.994     1019.416      430.155        0.413        0.097       79.267       12.984        0.027      337.033        8.734      861.561
10/09/2014  05:58:00      -41.168      -39.519       -2.184       20.911       22.950       14.405      437.259      526.705      207.504        0.222        0.059       57.066        8.525        0.022      337.023        8.716      861.564
10/09/2014  05:59:00      -41.064      -31.075       -4.614       36.361       20.133       18.921     1322.088      405.329      357.995        0.238        0.104       51.497       18.541        0.130      337.106        8.854      861.575
10/09/2014  06:00:00      -73.209      -25.090      -15.671       22.075       13.998       14.976      487.304      195.953      224.284        0.357        0.045       77.389       14.135        0.033      337.146        8.923      861.578
10/09/2014  06:01:00      -71.865      -26.006      -13.773       13.286       17.760       13.216      176.526      315.406      174.673        0.335        0.033       76.426        7.688        0.010      337.194        9.004      861.579
10/09/2014  06:02:00      -94.678      -35.102      -14.625       13.451       12.286        8.457      180.938      150.954       71.521        0.541        0.020      100.976        7.205        0.005      337.254        9.104      861.582
10/09/2014  06:03:00      -78.562      -30.084      -12.756       10.177        8.552        4.975      103.565       73.143       24.754        0.372        0.010       84.126        3.385        0.002      337.331        9.232      861.580
10/09/2014  06:04:00      -85.763      -22.826      -15.805        8.621       10.878        7.901       74.313      118.340       62.427        0.419        0.013       88.748        2.625        0.001      337.325        9.224      861.579
10/09/2014  06:05:00      -79.471       -7.149      -10.176       19.722       19.321       12.959      388.943      373.307      167.934        0.370        0.047       79.792        9.982        0.016      337.305        9.190      861.578
10/09/2014  06:06:00     -112.515       -0.820      -18.072       13.662       13.568       13.156      186.654      184.090      173.075        0.677        0.027      112.518        8.036        0.005      337.121        8.881      861.581
10/09/2014  06:07:00     -103.126      -30.415       -7.223       22.727       17.759       11.221      516.539      315.387      125.916        0.628        0.048      107.518       11.070        0.011      337.140        8.913      861.576
10/09/2014  06:08:00     -105.908      -38.305      -13.033       15.255       16.510       12.976      232.714      272.587      168.387        0.676        0.034      112.623        9.693        0.007      337.180        8.980      861.580
10/09/2014  06:09:00      -78.779      -29.854       -5.149       20.377       18.023       14.807      415.224      324.842      219.242        0.404        0.048       84.246       13.157        0.024      337.206        9.023      861.585
10/09/2014  06:10:00      -71.349      -24.006       -8.767       17.266       19.221       12.284      298.126      369.429      150.889        0.328        0.041       75.279        9.735        0.017      337.268        9.128      861.578
10/09/2014  06:11:00      -80.086      -17.162      -13.627        7.250        8.008        6.673       52.556       64.131       44.527        0.353        0.008       81.904        2.265        0.001      337.304        9.188      861.572
10/09/2014  06:12:00      -69.671      -40.010      -14.787       22.036       14.095        8.860      485.599      198.664       78.496        0.372        0.038       80.342        3.301        0.002      337.299        9.180      861.579
10/09/2014  06:13:00      -39.103      -32.465        2.653       26.774       15.411       14.960      716.835      237.498      223.815        0.188        0.059       50.824       14.935        0.086      337.244        9.088      861.590
10/09/2014  06:14:00      -87.450      -48.936       -8.383       25.675       15.873       14.048      659.190      251.963      197.354        0.561        0.055      100.211        8.371        0.007      337.282        9.150      861.597
10/09/2014  06:15:00     -113.013      -50.399       -7.120       24.545       17.179       16.852      602.462      295.113      283.995        0.827        0.059      123.741       14.660        0.014      337.218        9.045      861.601
10/09/2014  06:16:00     -103.551      -36.893       -7.786       21.301       21.370       15.391      453.713      456.682      236.877        0.665        0.057      109.927       11.111        0.010      337.225        9.056      861.599
10/09/2014  06:17:00     -116.351      -44.155      -14.610       16.457       18.003       11.956      270.830      324.105      142.948        0.822        0.037      124.447        6.744        0.003      337.256        9.108      861.605
10/09/2014  06:18:00     -110.368      -44.593       -3.416       30.105       21.034       18.615      906.315      442.443      346.515        0.794        0.085      119.036       16.277        0.019      337.235        9.073      861.597
10/09/2014  06:19:00     -118.076      -24.039      -15.140       14.624       16.064       13.044      213.872      258.044      170.149        0.770        0.032      120.498        9.088        0.006      337.160        8.947      861.606
10/09/2014  06:20:00     -130.333        2.878      -22.216       14.446       15.679       13.282      208.693      245.829      176.415        0.906        0.032      130.365        7.576        0.003      337.131        8.898      861.601
10/09/2014  06:21:00     -141.651       -1.178      -23.145       14.501       14.243       12.561      210.279      202.853      157.789        1.059        0.029      141.656        6.259        0.002      337.119        8.876      861.591
10/09/2014  06:22:00     -136.695      -22.258      -18.483       27.148       15.909       14.806      737.009      253.081      219.229        1.037        0.060      138.496       14.576        0.011      337.111        8.863      861.578
10/09/2014  06:23:00     -109.611      -32.382      -16.461       13.636       12.959       11.688      185.930      167.945      136.603        0.691        0.025      114.295        6.551        0.003      337.114        8.869      861.571
10/09/2014  06:24:00      -99.651      -42.789      -16.699       13.913       14.023       11.180      193.573      196.641      124.983        0.628        0.026      108.449        6.331        0.003      337.134        8.901      861.571
10/09/2014  06:25:00     -110.022      -27.042      -19.587       20.184       12.908       15.997      407.385      166.614      255.889        0.702        0.041      113.296       11.432        0.010      337.132        8.898      861.585
10/09/2014  06:26:00     -120.160      -47.401      -10.781       14.099       16.293        9.441      198.790      265.472       89.131        0.868        0.028      129.171        5.869        0.002      337.145        8.922      861.607
10/09/2014  06:27:00      -95.706      -48.710      -15.419       23.214       15.130       13.932      538.888      228.920      194.105        0.637        0.048      107.389        8.317        0.006      337.185        8.989      861.623
10/09/2014  06:28:00     -100.054      -36.043       -5.140       24.738       16.392       12.348      611.969      268.682      152.468        0.618        0.052      106.348        8.729        0.007      337.249        9.095      861.629
10/09/2014  06:29:00     -124.058      -27.591      -16.011       12.878       12.350       12.356      165.843      152.529      152.659        0.844        0.024      127.090        4.855        0.001      337.212        9.034      861.636
10/09/2014  06:30:00     -107.422      -14.830       -4.700       35.115       28.336       19.986     1233.098      802.907      399.460        0.711        0.122      108.441       16.703        0.024      337.316        9.208      861.629
10/09/2014  06:31:00     -122.882      -32.330       -3.593       26.071       19.316       14.575      679.688      373.102      212.425        0.871        0.063      127.064       12.844        0.010      337.253        9.103      861.632
10/09/2014  06:32:00     -113.031      -43.733       -6.660       14.860       16.511        9.273      220.820      272.609       85.990        0.766        0.029      121.197        6.183        0.003      337.103        8.851      861.641
10/09/2014  06:33:00     -121.129      -53.050       -6.919       19.865       21.832       15.155      394.610      476.632      229.667        0.932        0.055      132.236       12.716        0.009      337.240        9.081      861.641
10/09/2014  06:34:00      -92.763      -48.790       -0.099       41.629       26.801       17.287     1732.973      718.293      298.852        0.687        0.138      104.811       18.441        0.031      337.246        9.090      861.649
10/09/2014  06:35:00      -38.799      -40.695        2.640       31.738       19.935       14.055     1007.292      397.398      197.537        0.239        0.080       56.227        9.349        0.028      337.326        9.225      861.663
10/09/2014  06:36:00      -28.076      -25.621       10.826       38.723       29.978       21.911     1499.454      898.702      480.076        0.222        0.144       38.009       24.848        0.427      337.287        9.159      861.677
10/09/2014  06:37:00      -75.553      -53.123        2.602       31.484       26.737       18.575      991.265      714.844      345.026        0.529        0.103       92.360       16.399        0.032      337.339        9.247      861.675
10/09/2014  06:38:00      -60.904      -40.479       -2.356       32.187       26.256       16.877     1036.024      689.385      284.834        0.368        0.101       73.129       14.140        0.037      337.329        9.228      861.671
10/09/2014  06:39:00      -39.129      -21.610        1.753       24.027       19.047       12.321      577.283      362.783      151.796        0.155        0.055       44.700       11.980        0.072      337.271        9.133      861.675
10/09/2014  06:40:00      -37.668      -34.870        5.200       30.872       28.717       19.641      953.067      824.670      385.761        0.241        0.108       51.330       19.403        0.143      337.230        9.064      861.681
10/09/2014  06:41:00      -62.357      -39.293        2.356       35.521       19.238       16.038     1261.733      370.114      257.230        0.366        0.094       73.704        9.641        0.017      337.212        9.034      861.694
10/09/2014  06:42:00      -94.978      -44.287       -6.472       19.922       15.763       11.778      396.895      248.475      138.724        0.590        0.039      104.795       10.577        0.010      337.226        9.057      861.711
10/09/2014  06:43:00     -113.501       -2.966      -12.701       24.722       16.339       13.926      611.175      266.951      193.946        0.706        0.054      113.540        9.961        0.008      337.167        8.958      861.723
10/09/2014  06:44:00     -128.673      -18.347      -18.952       16.367       15.633       14.207      267.892      244.389      201.841        0.898        0.036      129.975        8.054        0.004      337.107        8.858      861.739
10/09/2014  06:45:00     -103.002      -15.277      -11.998       24.066       15.469       14.854      579.169      239.299      220.644        0.601        0.052      104.129       15.513        0.022      337.059        8.776      861.755
10/09/2014  06:46:00      -93.842      -21.471      -11.258       17.888       16.695       10.989      319.994      278.707      120.767        0.506        0.036       96.267       10.905        0.013      337.113        8.867      861.767
10/09/2014  06:47:00     -118.579      -41.651      -10.033       18.292       11.940       10.788      334.590      142.566      116.370        0.824        0.030      125.682        9.450        0.006      337.163        8.950      861.771
10/09/2014  06:48:00     -108.562      -49.067       -8.762       20.799       16.591       14.106      432.589      275.248      198.968        0.759        0.045      119.136       11.682        0.010      337.153        8.935      861.778
10/09/2014  06:49:00      -84.734      -20.460       -3.949       22.461       18.262       11.933      504.480      333.486      142.408        0.430        0.049       87.169        9.982        0.013      337.083        8.818      861.777
10/09/2014  06:50:00      -79.969      -55.753      -10.056       20.066       22.438       11.033      402.640      503.447      121.716        0.532        0.051       97.485        9.060        0.009      337.009        8.692      861.778
10/09/2014  06:51:00     -132.803      -40.728      -16.436       21.530       16.045       12.311      463.549      257.431      151.568        1.022        0.044      138.907        5.673        0.002      337.068        8.790      861.771
10/09/2014  06:52:00     -117.467      -43.587       -9.641       24.138       21.784       16.216      582.646      474.540      262.948        0.856        0.066      125.293       11.574        0.009      337.081        8.814      861.758
10/09/2014  06:53:00      -83.690      -54.974       -6.506       20.000       22.403       15.221      399.984      501.892      231.686        0.560        0.057      100.131        4.767        0.002      337.050        8.761      861.751
10/09/2014  06:54:00      -37.394      -21.117       -0.430       33.178       24.892       14.850     1100.792      619.601      220.511        0.189        0.097       42.945       14.530        0.114      336.970        8.628      861.748
10/09/2014  06:55:00      -73.009      -41.147      -11.442       25.442       35.778       16.553      647.306     1280.047      274.002        0.468        0.110       83.805       19.325        0.053      336.941        8.580      861.751
10/09/2014  06:56:00      -86.680      -40.761      -11.219       17.910       20.614       10.364      320.781      424.937      107.402        0.508        0.043       95.786        8.212        0.007      336.962        8.613      861.752
10/09/2014  06:57:00      -73.002      -21.736       -2.118       37.622       21.805       18.651     1415.422      475.477      347.848        0.402        0.112       76.169       19.802        0.068      336.951        8.596      861.747
10/09/2014  06:58:00     -100.846      -26.867       -7.977       20.781       17.318       10.661      431.832      299.924      113.662        0.590        0.042      104.364       11.108        0.011      336.938        8.574      861.751
10/09/2014  06:59:00      -97.273      -28.153      -11.743       17.687       13.996       12.250      312.831      195.887      150.074        0.553        0.033      101.265        9.235        0.008      336.985        8.652      861.748
10/09/2014  07:00:00      -88.398      -29.983      -12.161       30.087       29.235       14.262      905.219      854.701      203.416        0.541        0.098       93.344       14.185        0.023      336.952        8.597      861.737
10/09/2014  07:01:00      -93.834      -13.043       -6.990       29.088       21.819       20.021      846.105      476.084      400.825        0.537        0.086       94.737       16.752        0.031      336.830        8.395      861.736
10/09/2014  07:02:00      -77.674      -24.496       -9.516       21.022       15.995       14.929      441.933      255.831      222.885        0.382        0.046       81.445        6.595        0.007      336.878        8.474      861.741
10/09/2014  07:03:00      -58.298      -62.299       -4.488       35.781       22.578       21.477     1280.247      509.766      461.269        0.478        0.113       85.322       16.781        0.039      336.846        8.422      861.753
10/09/2014  07:04:00      -82.296      -47.594       -9.873       36.980       27.795       18.853     1367.533      772.577      355.453        0.582        0.125       95.068       18.226        0.037      336.881        8.481      861.758
10/09/2014  07:05:00      -54.860       -8.913       -1.841       39.758       33.416       23.202     1580.726     1116.601      538.354        0.316        0.162       55.579       23.295        0.176      336.842        8.416      861.768
10/09/2014  07:06:00      -77.529      -30.861       -2.631       21.517       15.743       15.349      462.989      247.832      235.582        0.396        0.047       83.446       13.262        0.025      336.791        8.331      861.779
10/09/2014  07:07:00      -91.033      -18.235       -6.063       15.979       19.837       13.420      255.327      393.522      180.103        0.474        0.041       92.841        6.045        0.004      336.896        8.504      861.787
10/09/2014  07:08:00      -74.500      -40.333      -15.133       41.771       23.231       18.614     1744.799      539.694      346.489        0.502        0.132       84.718       14.006        0.027      336.851        8.431      861.790
10/09/2014  07:09:00     -104.152      -36.471      -11.387       30.084       23.469       19.640      905.033      550.815      385.713        0.707        0.092      110.353       12.601        0.013      336.797        8.341      861.784
10/09/2014  07:10:00      -50.087       -3.340       -3.174       27.783       16.388       14.786      771.883      268.558      218.631        0.189        0.063       50.198       10.489        0.044      336.823        8.383      861.783
10/09/2014  07:11:00      -47.778      -41.037      -13.769       20.901       17.938       13.686      436.857      321.787      187.309        0.255        0.047       62.983       11.764        0.035      336.860        8.446      861.780
10/09/2014  07:12:00      -48.467      -10.517        2.197       27.157       22.471       18.392      737.515      504.946      338.257        0.202        0.079       49.595       14.296        0.083      336.868        8.459      861.784
10/09/2014  07:13:00      -57.657       -6.174       -5.291       19.900       15.577       15.333      396.023      242.644      235.105        0.213        0.044       57.987        9.035        0.024      336.856        8.440      861.790
10/09/2014  07:14:00       -5.958      -17.659       -6.828       16.870       16.682       11.863      284.583      278.282      140.734        0.055        0.035       18.637        5.514        0.088      336.950        8.596      861.811
10/09/2014  07:15:00      -53.997      -47.580      -11.967       30.255       14.324       11.531      915.373      205.173      132.962        0.329        0.063       71.969        4.500        0.004      336.897        8.508      861.817
10/09/2014  07:16:00      -80.140      -59.816       -3.484       28.145       18.548       14.830      792.153      344.040      219.936        0.568        0.068      100.002       13.292        0.018      336.890        8.496      861.819
10/09/2014  07:17:00      -86.477      -45.806       -3.344       17.607       20.378       13.438      310.001      415.245      180.586        0.525        0.045       97.859        8.538        0.008      336.886        8.488      861.823
10/09/2014  07:18:00      -64.709      -27.398       -2.453       19.331       17.960       11.854      373.698      322.547      140.517        0.289        0.042       70.270        8.408        0.014      336.934        8.567      861.826
10/09/2014  07:19:00      -74.105      -49.145       -5.056       23.291       17.592       12.095      542.486      309.482      146.297        0.447        0.050       88.920       11.121        0.016      336.994        8.667      861.832
10/09/2014  07:20:00      -19.315      -34.786        5.920       30.610       20.913       22.963      936.951      437.354      527.318        0.176        0.095       39.789       22.284        0.314      337.051        8.762      861.840
10/09/2014  07:21:00      -41.623      -52.050        2.165       30.060       22.996       17.719      903.619      528.794      313.953        0.310        0.087       66.646       17.058        0.066      337.037        8.740      861.848
10/09/2014  07:22:00      -23.063      -19.987       16.240       37.903       22.144       21.207     1436.651      490.342      449.750        0.179        0.119       30.518       22.563        0.547      337.021        8.713      861.857
10/09/2014  07:23:00      -39.406      -27.754        2.234       39.499       25.112       15.655     1560.168      630.629      245.067        0.238        0.122       48.199       18.349        0.145      337.033        8.734      861.863
10/09/2014  07:24:00      -99.290      -26.869       -1.209       18.547       21.352       13.514      344.009      455.901      182.627        0.578        0.049      102.861        7.001        0.005      336.897        8.507      861.871
10/09/2014  07:25:00      -62.694      -63.172       -3.266       16.788       27.849       14.655      281.848      775.562      214.769        0.460        0.064       89.001        9.706        0.012      337.191        8.998      861.874
10/09/2014  07:26:00      -42.546      -33.466        3.010       19.161       27.119       14.395      367.126      735.435      207.219        0.212        0.065       54.131       14.570        0.072      337.363        9.286      861.873
10/09/2014  07:27:00      -27.678      -36.045       -0.057       29.366       34.878       12.215      862.351     1216.447      149.209        0.215        0.111       45.446       12.844        0.080      337.343        9.254      861.879
10/09/2014  07:28:00      -81.425      -89.188        1.493       34.027       33.487       23.254     1157.824     1121.379      540.728        0.870        0.141      120.766       20.311        0.028      337.328        9.229      861.890
10/09/2014  07:29:00      -83.207      -66.395       -5.802       43.443       47.470       23.251     1887.319     2253.403      540.631        0.802        0.234      106.450       24.628        0.054      337.344        9.256      861.902
10/09/2014  07:30:00      -98.651      -63.957      -14.588       34.533       22.352       22.071     1192.513      499.617      487.131        0.811        0.109      117.569       21.459        0.033      337.438        9.410      861.910
10/09/2014  07:31:00     -118.769      -58.763       -4.481       26.885       29.685       16.910      722.791      881.183      285.937        0.973        0.094      132.511        8.960        0.005      337.412        9.368      861.913
10/09/2014  07:32:00     -100.363      -57.986       -3.201       35.469       32.817       17.871     1258.044     1076.971      319.357        0.805        0.133      115.910       15.715        0.018      337.404        9.354      861.925
10/09/2014  07:33:00      -76.345      -49.328       -4.382       20.706       17.325       11.403      428.757      300.147      130.031        0.457        0.043       90.894        8.045        0.008      337.441        9.418      861.938
10/09/2014  07:34:00      -79.002      -45.264       -3.536       28.260       17.509       13.642      798.638      306.564      186.109        0.480        0.065       91.050       10.494        0.013      337.476        9.476      861.938
10/09/2014  07:35:00      -69.478      -33.712       -1.382       26.951       17.864       14.474      726.382      319.137      209.505        0.361        0.063       77.225       14.908        0.037      337.506        9.526      861.945
10/09/2014  07:36:00      -94.945      -23.508       -8.395       20.030       22.829       12.225      401.191      521.167      149.452        0.535        0.054       97.812        6.442        0.004      337.489        9.497      861.937
10/09/2014  07:37:00      -75.934      -19.406       -4.934       14.408       17.986       10.280      207.593      323.514      105.670        0.340        0.032       78.375        7.614        0.009      337.526        9.560      861.941
10/09/2014  07:38:00      -64.317      -15.718       -6.721       15.479       20.150        9.821      239.608      406.014       96.457        0.259        0.037       66.210        6.809        0.011      337.524        9.556      861.938
10/09/2014  07:39:00      -55.088      -13.968       -3.396       20.672       17.481       11.548      427.344      305.590      133.350        0.205        0.043       56.831       10.287        0.033      337.508        9.531      861.947
10/09/2014  07:40:00      -55.753      -25.464       -1.615       17.494       24.773       10.284      306.049      613.722      105.769        0.239        0.051       61.293        9.283        0.023      337.582        9.653      861.956
10/09/2014  07:41:00      -72.641      -38.376       -4.896       12.697       11.132        8.753      161.215      123.924       76.610        0.357        0.018       82.155        2.098        0.001      337.611        9.703      861.973
10/09/2014  07:42:00      -58.427      -48.190       -0.229       30.932       30.825       16.247      956.796      950.189      263.961        0.395        0.109       75.736       15.901        0.044      337.611        9.704      861.986
10/09/2014  07:43:00      -59.033      -40.959       -3.967       32.316       25.980       13.159     1044.342      674.941      173.148        0.354        0.095       71.851       12.511        0.030      337.611        9.702      861.996
10/09/2014  07:44:00      -60.857      -50.842       -4.081       37.578       22.914       17.345     1412.107      525.037      300.859        0.427        0.112       79.299       10.793        0.019      337.620        9.718      861.989
10/09/2014  07:45:00      -67.175      -80.857       -5.316       33.527       19.236       19.309     1124.089      370.027      372.823        0.647        0.093      105.121       21.625        0.042      337.599        9.682      861.985
10/09/2014  07:46:00      -49.321      -55.662        1.071       30.653       26.602       20.945      939.583      707.674      438.698        0.381        0.104       74.369       19.269        0.067      337.600        9.683      861.978
10/09/2014  07:47:00      -47.583      -44.300        1.659       37.236       27.654       19.574     1386.508      764.750      383.136        0.338        0.127       65.013       13.768        0.045      337.629        9.732      861.975
10/09/2014  07:48:00      -52.722      -36.648       -4.818       16.591       18.302       12.480      275.273      334.972      155.753        0.246        0.038       64.208        6.319        0.010      337.689        9.833      861.968
10/09/2014  07:49:00      -13.704      -27.482        5.898       26.690       21.780       11.378      712.358      474.381      129.462        0.115        0.066       30.709        8.914        0.084      337.758        9.948      861.971
10/09/2014  07:50:00      -45.741      -27.236       -3.091       18.172       13.131        9.628      330.228      172.433       92.692        0.172        0.030       53.236        6.135        0.013      337.723        9.890      861.978
10/09/2014  07:51:00      -48.332      -31.719       -8.854       13.811       14.346        8.417      190.742      205.818       70.843        0.194        0.023       57.811        5.080        0.008      337.808       10.032      861.981
10/09/2014  07:52:00      -37.792      -22.331        1.469       16.628       15.247       11.669      276.489      232.463      136.171        0.129        0.032       43.897        7.001        0.025      337.863       10.126      861.982
10/09/2014  07:53:00      -39.498      -16.703       -4.234       25.200       17.162       12.213      635.042      294.542      149.169        0.147        0.054       42.884       12.216        0.081      337.882       10.156      861.988
10/09/2014  07:54:00       -9.940       -1.198        2.778       22.296       12.462       14.743      497.099      155.289      217.367        0.049        0.043       10.012       10.894        1.184      338.165       10.631      861.990
10/09/2014  07:55:00      -10.039      -13.851       -1.988       10.129       16.416       12.930      102.607      269.499      167.183        0.042        0.027       17.106       11.276        0.434      338.031       10.405      861.993
10/09/2014  07:56:00      -12.710       15.862       19.777       11.356       15.108       15.621      128.948      228.262      244.011        0.070        0.030       20.326        9.003        0.196      338.413       11.048      861.999
10/09/2014  07:57:00      -34.538        2.320       -1.676       14.969        7.242       11.669      224.086       52.445      136.164        0.081        0.021       34.616        5.209        0.023      338.031       10.406      862.007
10/09/2014  07:58:00      -17.871        9.714        7.465       10.153       15.889       18.195      103.083      252.455      331.060        0.058        0.034       20.341       12.140        0.356      338.335       10.917      862.018
10/09/2014  07:59:00      -21.241       -0.784        9.412       15.317       11.509       12.198      234.598      132.451      148.786        0.053        0.026       21.256       10.749        0.256      338.287       10.835      862.026
10/09/2014  08:00:00      -15.384        4.305       25.759       11.129       15.192       11.415      123.844      230.799      130.293        0.070        0.024       15.975       10.236        0.411      338.395       11.018      862.029
10/09/2014  08:01:00       -0.169       10.836       31.007       23.202       14.211       15.894      538.310      201.954      252.616        0.104        0.050       10.837        4.624        0.182      338.501       11.197      862.029
10/09/2014  08:02:00       11.548       -3.300       29.589       20.984       16.425       22.373      440.346      269.776      500.572        0.112        0.061       12.011       10.654        0.787      338.479       11.159      862.035
10/09/2014  08:03:00       13.097       -7.793       27.131       30.034       26.059       19.430      902.012      679.059      377.530        0.146        0.098       15.240       16.467        1.168      338.459       11.124      862.042
10/09/2014  08:04:00       14.608       -2.982       18.522       16.854       32.325       19.679      284.069     1044.926      387.266        0.114        0.086       14.909       15.992        1.151      338.455       11.116      862.041
10/09/2014  08:05:00       18.764       36.785       29.428       26.654       13.804       13.787      710.428      190.561      190.082        0.183        0.055       41.294        8.662        0.044      338.358       10.954      862.043
10/09/2014  08:06:00       36.415       30.578        6.848       13.105       13.699       13.134      171.748      187.672      172.511        0.142        0.027       47.551        4.820        0.010      338.201       10.689      862.055
10/09/2014  08:07:00       16.117       10.955       12.074       12.800       12.489        9.893      163.852      155.964       97.873        0.047        0.021       19.488        4.281        0.048      338.518       11.223      862.055
10/09/2014  08:08:00        0.723       17.186       20.844       13.635       11.734        9.863      185.910      137.698       97.270        0.058        0.021       17.201        7.416        0.186      338.581       11.329      862.066
10/09/2014  08:09:00      -32.682       -7.255       -1.867       11.019       18.049       10.461      121.416      325.767      109.438        0.084        0.028       33.477        3.474        0.011      338.325       10.901      862.082
10/09/2014  08:10:00      -35.011      -23.059        0.281       23.212       10.797       10.875      538.811      116.578      118.261        0.127        0.039       41.922        8.989        0.046      338.376       10.986      862.088
10/09/2014  08:11:00      -42.360      -20.700       -3.460       12.139       10.263        7.861      147.363      105.337       61.802        0.127        0.016       47.147        5.636        0.014      338.324       10.897      862.098
10/09/2014  08:12:00       -7.372      -27.444       -0.067       13.173       12.356       11.327      173.539      152.663      128.307        0.063        0.023       28.417        5.220        0.034      338.385       11.000      862.105
10/09/2014  08:13:00      -12.814      -27.615        4.789       11.348       14.128        9.912      128.780      199.588       98.240        0.069        0.021       30.443        4.571        0.023      338.350       10.943      862.115
10/09/2014  08:14:00      -26.168      -22.373        6.521        9.936       15.016        9.858       98.730      225.477       97.185        0.082        0.021       34.428        7.582        0.048      338.456       11.120      862.118
10/09/2014  08:15:00      -41.457      -28.759       -2.738       11.409       10.322       12.151      130.166      106.540      147.646        0.147        0.019       50.455        8.518        0.029      338.443       11.098      862.125
10/09/2014  08:16:00      -40.660      -12.736       -7.821       11.482       11.039        9.195      131.835      121.850       84.544        0.111        0.017       42.608        7.357        0.030      338.470       11.142      862.133
10/09/2014  08:17:00        7.116      -20.887        2.521       29.878       23.268       16.844      892.699      541.385      283.704        0.111        0.086       22.066       16.655        0.570      338.478       11.156      862.146
10/09/2014  08:18:00        8.158       -0.457       24.948       15.455       15.217       15.350      238.871      231.559      235.635        0.070        0.035        8.170        8.909        1.189      339.106       12.212      862.153
10/09/2014  08:19:00       18.547      -20.443        0.477       21.851       16.990       22.659      477.448      288.656      513.441        0.102        0.064       27.602       14.389        0.272      338.664       11.469      862.170
10/09/2014  08:20:00        5.507       -0.383       12.472       23.123       22.437       27.209      534.652      503.399      740.326        0.098        0.089        5.520       23.528       18.165      338.956       11.962      862.183
10/09/2014  08:21:00       23.199      -42.152        5.482       29.911       34.771       25.246      894.665     1209.026      637.339        0.254        0.137       48.114       19.268        0.160      338.821       11.733      862.190
10/09/2014  08:22:00       11.118      -60.382        6.110       22.244       28.379       20.706      494.815      805.341      428.738        0.277        0.086       61.398       14.593        0.056      338.704       11.536      862.194
10/09/2014  08:23:00       24.071       -6.545       20.999       23.744       20.679       23.467      563.756      427.607      550.697        0.130        0.077       24.945       16.910        0.460      338.971       11.984      862.197
10/09/2014  08:24:00       34.245        4.346       27.595       41.264       40.525       29.688     1702.734     1642.243      881.376        0.309        0.211       34.520       36.258        1.103      338.793       11.687      862.196
10/09/2014  08:25:00       20.456        8.375       33.297       25.499       29.950       19.846      650.184      896.999      393.868        0.177        0.097       22.104       17.469        0.625      339.045       12.109      862.195
10/09/2014  08:26:00       22.221      -28.116        5.505       31.658       26.036       27.318     1002.240      677.862      746.288        0.187        0.121       35.837       18.471        0.266      338.726       11.573      862.212
10/09/2014  08:27:00       -9.947      -20.264        5.487       16.403       11.928       12.311      269.053      142.273      151.554        0.055        0.028       22.573        6.526        0.084      338.870       11.815      862.222
10/09/2014  08:28:00      -24.619       -2.711       -5.705       13.840        6.152        8.107      191.553       37.844       65.718        0.047        0.015       24.768        5.768        0.054      338.776       11.658      862.221
10/09/2014  08:29:00      -40.331      -17.567      -11.741       16.993       11.217        7.337      288.769      125.818       53.829        0.127        0.023       43.991        5.135        0.014      338.713       11.551      862.227
10/09/2014  08:30:00      -33.206        5.706       -2.387       23.627       13.266       12.634      558.235      175.989      159.617        0.102        0.045       33.693        5.853        0.030      338.878       11.827      862.242
10/09/2014  08:31:00      -40.833       18.070       -1.922       19.282       19.441       18.497      371.783      377.936      342.135        0.154        0.055       44.653       15.758        0.125      338.771       11.649      862.252
10/09/2014  08:32:00      -24.052       -4.699        2.064       12.918       22.653       18.251      166.870      513.142      333.115        0.081        0.051       24.507       17.602        0.516      338.899       11.863      862.266
10/09/2014  08:33:00      -14.718       -1.829       -1.915       13.500       13.152       12.752      182.249      172.986      162.606        0.037        0.026       14.831        8.149        0.302      338.977       11.995      862.274
10/09/2014  08:34:00      -30.556      -13.093       -8.661       12.823       13.752        8.780      164.440      189.130       77.080        0.081        0.022       33.243        5.533        0.028      338.868       11.812      862.280
10/09/2014  08:35:00      -10.814      -14.892        4.465       10.694        9.752        8.974      114.369       95.104       80.524        0.032        0.014       18.404        9.071        0.243      339.065       12.144      862.289
10/09/2014  08:36:00      -15.060      -15.853       -3.373       13.642       13.816       10.504      186.106      190.873      110.343        0.049        0.024       21.866        4.780        0.048      338.967       11.978      862.290
10/09/2014  08:37:00      -32.829      -23.329        4.233       15.227       14.084       15.098      231.876      198.373      227.949        0.115        0.033       40.274       11.114        0.076      339.033       12.090      862.293
10/09/2014  08:38:00      -52.318      -29.144       -3.476       15.804       12.818       10.638      249.764      164.302      113.167        0.206        0.026       59.888        7.338        0.015      338.938       11.930      862.287
10/09/2014  08:39:00      -18.189      -17.664       -0.319       16.095       14.205       14.770      259.042      201.768      218.166        0.066        0.034       25.354        9.401        0.137      339.140       12.270      862.293
10/09/2014  08:40:00      -32.307      -17.442       -4.972       26.608       19.060       16.282      707.991      363.287      265.091        0.135        0.067       36.715       16.406        0.200      339.192       12.357      862.298
10/09/2014  08:41:00      -41.058      -11.799        6.833        8.330       10.459        7.339       69.384      109.393       53.862        0.105        0.012       42.720        3.640        0.007      339.019       12.066      862.309
10/09/2014  08:42:00      -19.913       12.975       -9.018       21.804       11.113        9.345      475.406      123.504       87.328        0.067        0.034       23.767       11.712        0.243      339.120       12.236      862.319
10/09/2014  08:43:00      -17.389      -13.689       -0.986       14.956       21.649       14.784      223.679      468.695      218.559        0.070        0.046       22.130        6.663        0.091      339.313       12.561      862.327
10/09/2014  08:44:00      -15.098      -17.888        2.977        8.803       15.276        7.353       77.488      233.351       54.059        0.046        0.018       23.408        5.856        0.063      339.182       12.339      862.336
10/09/2014  08:45:00      -17.673        5.802        0.200       11.815       10.356       12.787      139.598      107.248      163.514        0.038        0.021       18.601        6.554        0.124      339.585       13.020      862.348
10/09/2014  08:46:00      -39.513        6.614       -8.940        8.490        9.129        7.225       72.087       83.337       52.199        0.095        0.010       40.063        4.773        0.014      339.175       12.329      862.355
10/09/2014  08:47:00      -44.562      -19.942       -4.326        9.829       27.008        6.164       96.612      729.422       37.992        0.163        0.043       48.820        6.160        0.016      339.122       12.238      862.362
10/09/2014  08:48:00      -49.638      -38.859      -11.150       14.511       21.944       11.130      210.579      481.519      123.866        0.246        0.041       63.039       11.195        0.032      339.111       12.221      862.364
10/09/2014  08:49:00      -46.271      -20.451       -9.452       19.364       13.735        9.938      374.975      188.655       98.758        0.166        0.033       50.589        8.376        0.027      339.245       12.446      862.366
10/09/2014  08:50:00      -56.880       -3.772        0.661       20.583       35.585       16.136      423.677     1266.316      260.371        0.260        0.098       57.005       16.884        0.088      339.262       12.474      862.380
10/09/2014  08:51:00      -57.551      -20.284       -6.935       35.526       20.579       21.195     1262.073      423.488      449.216        0.295        0.107       61.021       19.802        0.105      339.292       12.525      862.389
10/09/2014  08:52:00      -68.893      -39.915      -11.543       25.810       28.063       14.003      666.172      787.557      196.092        0.406        0.082       79.621        8.986        0.013      339.243       12.442      862.405
10/09/2014  08:53:00      -64.497      -38.212        0.205       19.200       25.029       14.306      368.643      626.439      204.670        0.341        0.060       74.967       11.660        0.024      339.250       12.454      862.413
10/09/2014  08:54:00      -36.129      -60.846       -1.604       25.520       25.050       17.606      651.282      627.520      309.958        0.330        0.079       70.764       15.651        0.049      339.277       12.500      862.416
10/09/2014  08:55:00      -36.676      -37.882        2.232       23.553       21.980       15.418      554.743      483.111      237.707        0.203        0.064       52.728       11.770        0.050      339.323       12.576      862.423
10/09/2014  08:56:00      -24.603      -37.686       11.265       34.610       32.580       19.736     1197.819     1061.428      389.503        0.240        0.132       45.006       26.279        0.341      339.565       12.986      862.428
10/09/2014  08:57:00      -47.237      -94.640       -1.044       13.983       14.845       10.617      195.518      220.360      112.726        0.586        0.026      105.774        7.232        0.005      339.206       12.382      862.440
10/09/2014  08:58:00      -23.920      -52.500        3.133       27.879       42.868       18.564      777.232     1837.701      344.621        0.315        0.148       57.693       13.537        0.055      339.451       12.793      862.449
10/09/2014  08:59:00      -63.679      -58.672       -4.780       27.570       27.758       15.507      760.123      770.519      240.459        0.465        0.089       86.588        9.617        0.012      339.408       12.722      862.450
10/09/2014  09:00:00      -22.303      -48.105      -10.223       14.049       34.354       20.505      197.362     1180.186      420.438        0.236        0.090       53.024       12.712        0.057      339.541       12.945      862.445
10/09/2014  09:01:00      -46.823      -26.882        3.868       27.099       22.875       15.998      734.344      523.273      255.949        0.222        0.076       53.992       15.874        0.086      339.603       13.050      862.449
10/09/2014  09:02:00      -30.806      -58.544       -3.361       30.631       42.263       16.321      938.260     1786.197      266.371        0.369        0.150       66.154       19.277        0.085      339.692       13.199      862.449
10/09/2014  09:03:00      -46.599      -99.505       -5.894       15.904       18.847       18.302      252.927      355.223      334.975        0.653        0.047      109.876       11.652        0.011      339.510       12.892      862.442
10/09/2014  09:04:00      -43.831     -108.393       -4.116       22.660       16.715       14.552      513.458      279.404      211.766        0.735        0.050      116.920        7.276        0.004      339.504       12.883      862.441
10/09/2014  09:05:00      -71.288      -65.002       -8.570        8.383       16.270       15.308       70.281      264.704      234.323        0.497        0.028       96.474        6.241        0.004      339.529       12.925      862.440
10/09/2014  09:06:00      -67.603      -39.291      -11.062       18.823       24.762       13.179      354.323      613.162      173.686        0.369        0.057       78.192       11.658        0.022      339.598       13.041      862.445
10/09/2014  09:07:00      -62.834      -71.427      -10.293       32.599       22.540       10.345     1062.709      508.050      107.028        0.542        0.084       95.131       10.614        0.012      339.662       13.150      862.444
10/09/2014  09:08:00      -28.160      -37.240       -5.613       22.331       15.813       11.115      498.680      250.054      123.544        0.154        0.044       46.688        9.225        0.039      339.794       13.372      862.442
10/09/2014  09:09:00       -5.257      -20.416        3.140       11.723       13.215       11.602      137.437      174.648      134.612        0.045        0.022       21.082        8.208        0.152      339.948       13.631      862.432
10/09/2014  09:10:00       -8.051      -16.000       10.094       37.793       29.582       24.543     1428.345      875.096      602.346        0.166        0.145       17.912       23.410        1.708      339.740       13.281      862.426
10/09/2014  09:11:00       -1.192        8.767       30.832       17.151       23.108       18.688      294.143      534.002      349.227        0.110        0.059        8.848       10.410        1.384      340.479       14.528      862.417
10/09/2014  09:12:00       -2.181       11.383       29.366       19.075       17.860       15.281      363.850      318.977      233.516        0.096        0.046       11.590       10.676        0.848      340.584       14.706      862.411
10/09/2014  09:13:00       -6.726       38.153       62.025       18.989       34.144       18.655      360.597     1165.809      348.011        0.361        0.094       38.741       16.915        0.191      340.539       14.630      862.409
10/09/2014  09:14:00       15.548       43.884       52.615       36.420       30.824       29.155     1326.435      950.106      850.020        0.403        0.156       46.557       22.920        0.242      340.226       14.100      862.396
10/09/2014  09:15:00       31.692       42.014       56.289       52.375       34.052       33.567     2743.090     1159.510     1126.748        0.548        0.251       52.627       27.738        0.278      340.053       13.808      862.396
10/09/2014  09:16:00       47.500        7.777       42.168       41.173       28.153       27.256     1695.235      792.599      742.883        0.366        0.162       48.132       19.988        0.172      340.159       13.989      862.390
10/09/2014  09:17:00       30.189       -1.489       23.930       34.606       29.806       29.857     1197.588      888.425      891.463        0.223        0.149       30.226       24.971        0.683      340.289       14.208      862.394
10/09/2014  09:18:00       51.948       -1.917       19.299       45.214       30.542       27.147     2044.268      932.798      736.977        0.339        0.186       51.983       15.718        0.091      340.098       13.884      862.385
10/09/2014  09:19:00       43.051       20.184       30.510       46.380       30.732       27.084     2151.127      944.469      733.555        0.351        0.191       47.547       22.880        0.232      340.229       14.106      862.382
10/09/2014  09:20:00       36.608      -21.865       16.251       32.295       42.738       31.347     1042.947     1826.575      982.627        0.297        0.193       42.641       29.156        0.468      340.132       13.943      862.381
10/09/2014  09:21:00        9.278        6.913       39.831       33.076       39.671       30.702     1093.996     1573.816      942.628        0.266        0.181       11.570       33.192        8.229      340.430       14.446      862.386
10/09/2014  09:22:00        8.592       21.158       15.951       23.103       25.914       22.739      533.742      671.521      517.048        0.125        0.086       22.836       15.570        0.465      340.555       14.655      862.385
10/09/2014  09:23:00       11.240      -25.667       -1.977       38.784       30.398       22.780     1504.232      924.016      518.912        0.187        0.147       28.020       15.202        0.294      340.023       13.758      862.381
10/09/2014  09:24:00        7.096      -24.554       13.285       24.427       37.601       28.238      596.691     1413.851      797.388        0.182        0.140       25.559       19.684        0.593      340.554       14.655      862.375
10/09/2014  09:25:00       15.721      -47.185        2.067       22.394       27.392       27.288      501.474      750.296      744.648        0.224        0.100       49.735       14.441        0.084      340.200       14.057      862.370
10/09/2014  09:26:00       28.128      -40.861        4.995       38.021       34.369       32.212     1445.586     1181.218     1037.627        0.307        0.183       49.606       26.804        0.292      340.263       14.162      862.361
10/09/2014  09:27:00       -1.735       46.099       68.735       39.879       49.926       34.485     1590.357     2492.590     1189.186        0.606        0.264       46.132       33.215        0.518      340.808       15.085      862.353
10/09/2014  09:28:00        3.856        6.655       50.564       34.183       51.837       32.812     1168.493     2687.112     1076.640        0.377        0.247        7.691       28.451       13.683      340.768       15.018      862.350
10/09/2014  09:29:00       -0.064       28.715       48.913       33.878       45.074       32.455     1147.693     2031.644     1053.338        0.372        0.212       28.716       27.454        0.914      340.693       14.891      862.342
10/09/2014  09:30:00       -1.659      -20.084       35.501       31.352       41.056       31.005      982.924     1685.562      961.319        0.265        0.181       20.152       27.018        1.797      340.767       15.014      862.341
10/09/2014  09:31:00       22.853       19.977       49.777       27.311       36.512       18.943      745.889     1333.128      358.838        0.292        0.122       30.354       11.660        0.148      341.010       15.426      862.339
10/09/2014  09:32:00       53.919       45.383       59.565       34.970       28.300       23.029     1222.907      800.865      530.337        0.553        0.128       70.476       12.507        0.031      340.641       14.802      862.342
10/09/2014  09:33:00        8.474       24.973       41.238       31.339       38.700       26.435      982.146     1497.701      698.819        0.279        0.159       26.372       21.306        0.653      340.984       15.382      862.345
10/09/2014  09:34:00        7.663        1.551       32.977       23.167       26.757       21.508      536.689      715.913      462.585        0.143        0.086        7.818       20.748        7.043      341.055       15.503      862.343
10/09/2014  09:35:00       42.298        8.799       12.359       27.377       27.134       31.717      749.501      736.250     1005.985        0.226        0.125       43.204       22.910        0.281      340.696       14.896      862.342
10/09/2014  09:36:00       43.617        8.882       10.221       45.084       34.297       27.417     2032.593     1176.308      751.713        0.302        0.198       44.512       11.701        0.069      340.703       14.907      862.338
10/09/2014  09:37:00       36.041       32.022       30.754       26.881       26.432       28.088      722.569      698.665      788.908        0.274        0.111       48.212        9.548        0.039      340.806       15.081      862.333
10/09/2014  09:38:00       23.065       25.461       10.058       32.737       23.500       26.981     1071.718      552.237      727.994        0.182        0.118       34.355       17.572        0.262      340.585       14.708      862.333
10/09/2014  09:39:00       22.697       13.127       32.621       31.936       42.821       27.917     1019.929     1833.637      779.335        0.269        0.182       26.220       31.521        1.445      341.030       15.460      862.332
10/09/2014  09:40:00       22.395       40.689       33.451       29.251       33.124       22.529      855.623     1097.207      507.546        0.287        0.123       46.445       15.736        0.115      340.888       15.220      862.331
10/09/2014  09:41:00       28.215       38.527       33.938       22.528       28.178       25.874      507.506      794.026      669.482        0.270        0.099       47.754       14.837        0.097      340.939       15.306      862.333
10/09/2014  09:42:00       60.345       63.603       25.476       38.692       30.524       29.707     1497.100      931.739      882.533        0.582        0.166       87.674       21.883        0.062      340.895       15.233      862.325
10/09/2014  09:43:00       14.402       55.475       63.243       24.644       32.764       20.106      607.346     1073.470      404.238        0.468        0.104       57.314        7.333        0.016      341.033       15.465      862.326
10/09/2014  09:44:00       47.075       54.934       23.112       26.225       22.475       27.404      687.759      505.106      750.954        0.386        0.097       72.345       20.152        0.078      340.855       15.164      862.327
10/09/2014  09:45:00       60.873       26.446       14.732       26.496       21.810       24.062      702.042      475.665      579.002        0.319        0.088       66.369       11.295        0.029      340.868       15.185      862.324
10/09/2014  09:46:00       29.726        0.923        4.462       30.177       26.900       23.361      910.662      723.606      545.744        0.154        0.109       29.740        9.488        0.102      341.042       15.479      862.329
10/09/2014  09:47:00       18.602        1.729       29.480       33.691       49.232       42.857     1135.113     2423.835     1836.709        0.331        0.270       18.682       42.564        5.191      341.186       15.724      862.316
10/09/2014  09:48:00       57.714       50.043       45.340       24.665       23.053       24.527      608.358      531.446      601.573        0.482        0.087       76.388       10.215        0.018      341.016       15.437      862.318
10/09/2014  09:49:00       42.999       -1.118       19.076       32.548       45.265       34.536     1059.355     2048.881     1192.734        0.326        0.215       43.013       24.325        0.320      340.823       15.109      862.316
10/09/2014  09:50:00       47.136       33.341       34.557       30.755       45.782       35.489      945.858     2095.990     1259.462        0.441        0.215       57.736       33.205        0.331      340.932       15.293      862.322
10/09/2014  09:51:00       55.034      -43.977       25.086       39.110       46.077       31.445     1529.583     2123.092      988.768        0.512        0.232       70.446       27.328        0.150      340.993       15.396      862.317
10/09/2014  09:52:00       16.497      -20.446       32.658       34.076       46.351       27.574     1161.169     2148.381      760.305        0.291        0.203       26.272       25.883        0.971      341.466       16.199      862.319
10/09/2014  09:53:00       49.960      -70.568       -4.194       22.696       26.829       21.326      515.114      719.815      454.813        0.459        0.084       86.462       11.314        0.017      340.842       15.141      862.329
10/09/2014  09:54:00       17.620      -58.070       -4.248       23.943       25.897       20.858      573.252      670.656      435.050        0.269        0.084       60.685       13.110        0.047      340.746       14.979      862.325
10/09/2014  09:55:00       24.560      -43.101        2.920       22.782       30.866       21.930      519.028      952.695      480.916        0.221        0.098       49.607       12.456        0.063      340.939       15.307      862.326
10/09/2014  09:56:00       35.239      -30.344        1.419       35.181       40.264       32.581     1237.711     1621.190     1061.496        0.304        0.196       46.503       30.499        0.430      340.994       15.399      862.330
10/09/2014  09:57:00        3.685        1.496       16.451       15.237       20.139       30.021      232.167      405.568      901.272        0.091        0.077        3.977       14.971       14.170      341.831       16.817      862.330
10/09/2014  09:58:00       20.074       40.171       53.049       35.492       38.209       38.374     1259.649     1459.939     1472.575        0.451        0.210       44.908       16.658        0.138      341.571       16.377      862.335
10/09/2014  09:59:00        8.355        9.027       48.383       27.143       44.134       36.450      736.738     1947.771     1328.597        0.325        0.201       12.300       26.192        4.534      341.537       16.317      862.336
10/09/2014  10:00:00      -12.093       13.870       34.885       22.940       40.534       22.905      526.252     1642.983      524.633        0.212        0.135       18.402       12.612        0.470      341.802       16.769      862.350
10/09/2014  10:01:00       21.517      -36.352       27.304       28.513       35.402       26.405      812.969     1253.320      697.202        0.265        0.138       42.242       21.655        0.263      341.392       16.074      862.360
10/09/2014  10:02:00       81.952       71.340       50.859       47.273       40.745       45.438     2234.783     1660.151     2064.635        1.017        0.298      108.653       36.181        0.111      341.253       15.838      862.364
10/09/2014  10:03:00       61.422       55.676        4.877       42.586       30.928       36.178     1813.589      956.551     1308.835        0.549        0.204       82.901       20.489        0.061      341.425       16.129      862.375
10/09/2014  10:04:00       79.428       77.126        5.196       44.681       38.072       31.538     1996.407     1449.442      994.648        0.836        0.222      110.712       24.380        0.048      341.548       16.338      862.365
10/09/2014  10:05:00       31.835       50.512       58.398       63.573       47.801       32.683     4041.566     2284.898     1068.195        0.718        0.370       59.707       27.223        0.208      341.914       16.958      862.371
10/09/2014  10:06:00      112.521       72.329       33.963       36.041       35.097       34.825     1298.979     1231.781     1212.787        1.139        0.187      133.763       20.972        0.025      341.356       16.012      862.361
10/09/2014  10:07:00       74.397       41.571        9.512       35.985       24.580       27.002     1294.928      604.183      729.084        0.499        0.131       85.224        8.813        0.011      341.639       16.490      862.357
10/09/2014  10:08:00       -1.314      -27.544       13.927       42.271       40.256       25.335     1786.853     1620.578      641.853        0.250        0.202       27.575       21.927        0.632      341.761       16.698      862.358
10/09/2014  10:09:00       17.141      -29.549        9.299       38.965       67.262       34.619     1518.246     4524.163     1198.455        0.425        0.362       34.161       28.257        0.684      341.426       16.130      862.343
10/09/2014  10:10:00       -3.633      -64.344        2.706       34.367       56.520       23.190     1181.089     3194.496      537.754        0.454        0.246       64.447       25.143        0.152      341.676       16.555      862.345
10/09/2014  10:11:00       63.576      -55.292        3.910       36.956       45.382       29.082     1365.772     2059.517      845.747        0.569        0.214       84.256       21.319        0.064      341.545       16.332      862.347
10/09/2014  10:12:00       63.994      -86.374       -7.997       46.885       40.118       29.923     2198.247     1609.419      895.405        0.816        0.235      107.497       21.698        0.041      341.234       15.804      862.341
10/09/2014  10:13:00       27.352      -19.118       14.672       33.923       33.937       34.199     1150.778     1151.741     1169.600        0.240        0.174       33.371       20.581        0.380      341.450       16.173      862.337
10/09/2014  10:14:00        9.490      -42.655        7.310       17.805       26.194       26.309      317.013      686.117      692.172        0.183        0.085       43.698       16.614        0.145      341.519       16.288      862.337
10/09/2014  10:15:00       20.118      -38.274       10.216       32.524       38.936       31.779     1057.820     1516.010     1009.891        0.278        0.179       43.239       28.324        0.429      341.773       16.717      862.338
10/09/2014  10:16:00      -34.827      -23.932       16.121       36.972       43.438       28.196     1366.956     1886.860      794.987        0.305        0.202       42.258       29.067        0.473      341.862       16.868      862.336
10/09/2014  10:17:00      -11.874      -35.431       13.567       26.811       35.576       22.394      718.836     1265.622      501.482        0.203        0.124       37.368       22.769        0.371      342.023       17.142      862.335
10/09/2014  10:18:00      -23.404      -35.979        9.088       18.803       32.696       19.856      353.570     1069.015      394.280        0.187        0.091       42.921       23.012        0.287      341.929       16.983      862.338
10/09/2014  10:19:00      -40.710      -36.976       -8.758       18.318       21.509       11.514      335.535      462.626      132.579        0.202        0.047       54.996        6.263        0.013      341.679       16.560      862.338
10/09/2014  10:20:00      -31.612      -19.361       -5.936       17.190       11.954       12.185      295.483      142.903      148.479        0.100        0.029       37.069       12.171        0.108      341.758       16.694      862.323
10/09/2014  10:21:00       -2.540      -26.171       11.956       15.292       17.256       17.439      233.835      297.775      304.101        0.083        0.042       26.294       11.171        0.180      342.002       17.107      862.322
10/09/2014  10:22:00       -9.838      -38.048       -0.417       15.068       14.428       15.257      227.036      208.165      232.772        0.111        0.033       39.299       13.250        0.114      341.838       16.829      862.305
10/09/2014  10:23:00       16.061        7.858       20.086       30.758       20.135       24.888      946.058      405.408      619.422        0.135        0.099       17.880       12.635        0.499      342.494       17.943      862.302
10/09/2014  10:24:00       -6.842       55.782       -3.274       28.185       21.042       23.675      794.382      442.745      560.508        0.248        0.090       56.200       17.691        0.099      342.204       17.450      862.296
10/09/2014  10:25:00        4.024       11.728        2.077       13.783       27.344       15.178      189.966      747.688      230.367        0.066        0.058       12.399       17.058        1.893      342.354       17.706      862.303
10/09/2014  10:26:00       -0.871       -8.139       13.417       15.249        8.868       12.956      232.530       78.650      167.869        0.036        0.024        8.186       10.763        1.729      342.808       18.478      862.293
10/09/2014  10:27:00      -11.482        1.517       12.101       11.586       17.051       19.123      134.227      290.720      365.702        0.054        0.040       11.582       12.842        1.229      342.647       18.203      862.280
10/09/2014  10:28:00       19.004       19.686       15.568       38.257       40.107       18.810     1463.620     1608.541      353.820        0.221        0.171       27.362       20.425        0.557      342.284       17.586      862.276
10/09/2014  10:29:00       19.835       13.083       21.006       22.314       16.228       16.227      497.930      263.346      263.310        0.102        0.051       23.761        9.374        0.156      342.378       17.745      862.266
10/09/2014  10:30:00      -16.790       46.130       -6.877       24.437       36.542       17.055      597.169     1335.287      290.866        0.234        0.111       49.091       14.789        0.091      342.312       17.635      862.259
10/09/2014  10:31:00      -24.778       10.925       12.084       19.865       32.626       20.858      394.622     1064.460      435.059        0.139        0.095       27.079       15.759        0.339      342.826       18.508      862.249
10/09/2014  10:32:00       -6.200        9.672        8.284       23.318       20.131       20.583      543.722      405.237      423.672        0.079        0.069       11.488       12.109        1.111      342.924       18.674      862.233
10/09/2014  10:33:00        9.054        1.950       28.475       20.732       30.075       18.349      429.796      904.528      336.694        0.128        0.084        9.262       17.752        3.674      342.924       18.674      862.225
10/09/2014  10:34:00       18.321       16.660       30.642       29.037       26.900       22.710      843.134      723.598      515.747        0.182        0.104       24.764        6.163        0.062      342.977       18.764      862.212
10/09/2014  10:35:00        5.572       33.051       19.470       39.548       26.555       21.722     1564.063      705.176      471.825        0.212        0.137       33.517       10.317        0.095      342.528       18.000      862.197
10/09/2014  10:36:00       19.088       18.324       21.958       35.145       26.648       21.679     1235.173      710.110      469.989        0.180        0.121       26.460       15.865        0.360      342.752       18.382      862.180
10/09/2014  10:37:00       50.711       31.525        4.566       30.103       21.771       18.366      906.164      473.980      337.293        0.265        0.086       59.711       14.933        0.063      342.471       17.905      862.175
10/09/2014  10:38:00       17.004       16.378       -3.439       44.212       49.487       25.071     1954.719     2448.982      628.530        0.280        0.252       23.609       14.416        0.373      342.642       18.195      862.166
10/09/2014  10:39:00        2.474       24.064       39.323       18.905       34.102       28.058      357.398     1162.970      787.264        0.222        0.115       24.191       18.885        0.609      342.961       18.737      862.153
10/09/2014  10:40:00       19.818        1.753       29.762       30.724       36.529       26.461      943.991     1334.403      700.186        0.213        0.149       19.895       18.953        0.908      342.860       18.567      862.151
10/09/2014  10:41:00       10.796      -22.774       19.424       22.567       25.156       15.896      509.290      632.832      252.671        0.120        0.070       25.203       12.424        0.243      342.745       18.370      862.139
10/09/2014  10:42:00       21.412       42.949        9.287       32.624       39.538       31.114     1064.307     1563.267      968.086        0.299        0.180       47.991       24.602        0.263      342.865       18.575      862.130
10/09/2014  10:43:00       19.661       45.201       -6.436       33.555       24.948       23.219     1125.924      622.423      539.127        0.238        0.114       49.292       12.132        0.061      342.554       18.044      862.126
10/09/2014  10:44:00       42.920       43.663       -2.251       40.845       33.356       27.232     1668.305     1112.644      741.596        0.364        0.176       61.226       12.392        0.041      342.750       18.378      862.122
10/09/2014  10:45:00       11.909       72.898       56.727       34.881       36.767       31.338     1216.686     1351.825      982.064        0.611        0.178       73.865       22.895        0.096      342.861       18.567      862.112
10/09/2014  10:46:00       21.541       41.574       19.484       30.838       29.839       32.426      950.996      890.352     1051.440        0.273        0.145       46.823       16.845        0.129      342.736       18.355      862.106
10/09/2014  10:47:00       26.941       32.473       40.457       36.089       34.536       29.436     1302.435     1192.765      866.459        0.339        0.168       42.193       14.764        0.122      342.898       18.629      862.098
10/09/2014  10:48:00       34.592      -45.650       16.852       45.753       68.805       39.093     2093.306     4734.060     1528.243        0.596        0.418       57.276       44.229        0.596      342.772       18.416      862.099
10/09/2014  10:49:00       46.532       -7.265       29.094       37.893       57.569       35.337     1435.890     3314.198     1248.694        0.453        0.300       47.095       36.030        0.585      342.999       18.803      862.086
10/09/2014  10:50:00       34.775      -34.194       10.564       34.053       62.549       38.753     1159.641     3912.390     1501.766        0.453        0.329       48.770       45.586        0.874      342.696       18.287      862.090
10/09/2014  10:51:00       19.105      -81.238       -9.294       33.741       27.554       28.733     1138.470      759.208      825.567        0.489        0.136       83.455       24.877        0.089      342.792       18.450      862.071
10/09/2014  10:52:00      -44.028      -33.482        0.840       35.652       25.318       17.014     1271.059      640.985      289.473        0.263        0.110       55.313       11.768        0.045      342.759       18.392      862.062
10/09/2014  10:53:00       -1.384       -2.284       27.098       13.695       21.116       22.740      187.565      445.896      517.098        0.095        0.058        2.671       16.847       39.797      343.514       19.680      862.051
10/09/2014  10:54:00        4.655       -2.193       30.871       14.156       19.407       14.152      200.389      376.634      200.267        0.088        0.039        5.146       13.092        6.472      343.530       19.707      862.050
10/09/2014  10:55:00       -2.157       10.311       40.437       21.579       19.451       14.188      465.656      378.351      201.300        0.140        0.052       10.534        8.790        0.696      343.338       19.379      862.049
10/09/2014  10:56:00       -2.422       52.499        3.044       53.098       38.936       28.684     2819.401     1516.040      822.765        0.396        0.258       52.555       13.424        0.065      343.155       19.067      862.046
10/09/2014  10:57:00      -13.284        1.197       16.835       51.149       40.877       31.188     2616.253     1670.893      972.681        0.286        0.263       13.338       25.527        3.663      343.472       19.609      862.042
10/09/2014  10:58:00       94.534       60.499        8.454       60.185       38.387       35.331     3622.278     1473.551     1248.280        0.951        0.317      112.235       21.003        0.035      342.992       18.790      862.033
10/09/2014  10:59:00       88.461       -3.727        4.987       44.895       52.151       25.355     2015.529     2719.705      642.893        0.662        0.269       88.539       11.875        0.018      342.533       18.009      862.028
10/09/2014  11:00:00       11.665       28.570       24.767       29.968       27.676       28.034      898.075      765.987      785.905        0.201        0.122       30.859       19.601        0.403      343.209       19.159      862.011
10/09/2014  11:01:00       26.155       28.132       18.726       38.297       46.391       32.891     1466.668     2152.079     1081.800        0.326        0.235       38.413       23.080        0.361      343.248       19.227      862.013
10/09/2014  11:02:00       23.327      -18.565       32.049       48.606       50.948       24.787     2362.586     2595.659      614.375        0.374        0.279       29.813        4.331        0.021      343.344       19.389      862.004
10/09/2014  11:03:00       65.170       21.860       14.031       50.161       31.098       30.189     2516.124      967.064      911.394        0.466        0.220       68.738       17.613        0.066      343.186       19.120      862.014
10/09/2014  11:04:00        3.878        9.199       25.514       27.193       15.779       19.507      739.462      248.969      380.541        0.106        0.068        9.983       12.075        1.463      343.789       20.148      862.005
10/09/2014  11:05:00        1.374      -18.917       20.676       23.191       38.396       20.370      537.832     1474.280      414.931        0.161        0.121       18.967        9.859        0.270      343.269       19.264      862.004
10/09/2014  11:06:00        5.552      -21.611       47.019       25.931       49.726       27.853      672.395     2472.707      775.806        0.331        0.196       22.313       29.655        1.766      342.963       18.741      861.992
10/09/2014  11:07:00       22.757      -19.240       37.941       28.755       45.125       25.397      826.872     2036.279      645.015        0.292        0.175       29.800       23.127        0.602      343.121       19.009      862.001
10/09/2014  11:08:00       17.283      -33.580       26.379       32.686       40.098       27.143     1068.367     1607.873      736.757        0.277        0.171       37.767       27.216        0.519      343.326       19.359      862.005
10/09/2014  11:09:00       44.798       36.035       14.154       49.478       46.620       32.229     2448.048     2173.452     1038.708        0.458        0.283       57.492       26.717        0.216      343.219       19.177      862.007
10/09/2014  11:10:00       61.793       57.339        5.199       51.372       33.362       34.032     2639.091     1112.996     1158.199        0.602        0.246       84.298       18.915        0.050      343.322       19.352      861.988
10/09/2014  11:11:00       60.912       56.557       14.001       59.877       49.492       38.648     3585.198     2449.455     1493.647        0.732        0.376       83.120       25.877        0.097      343.358       19.414      861.987
10/09/2014  11:12:00       93.690       65.591       20.419       84.388       58.313       43.825     7121.412     3400.394     1920.610        1.297        0.622      114.368       18.853        0.027      343.370       19.433      861.975
10/09/2014  11:13:00       64.084      -14.147       19.688       79.385      129.870       50.426     6301.992    16866.237     2542.764        1.520        1.286       65.627       69.589        1.124      343.495       19.646      861.969
10/09/2014  11:14:00       36.722      -47.981       14.105       62.263       69.500       57.595     3876.620     4830.278     3317.214        0.793        0.601       60.421       58.364        0.933      343.736       20.057      861.964
10/09/2014  11:15:00       17.946      -46.621       21.136       46.634       59.383       44.591     2174.714     3526.379     1988.358        0.531        0.384       49.955       33.412        0.447      343.587       19.803      861.958
10/09/2014  11:16:00       40.938       -2.369       27.406       32.243       43.175       40.248     1039.627     1864.076     1619.899        0.348        0.226       41.006       31.026        0.572      343.291       19.300      861.944
10/09/2014  11:17:00       36.076      -72.169       12.982       47.996       62.449       33.484     2303.618     3899.867     1121.152        0.700        0.366       80.684       25.069        0.097      343.148       19.056      861.938
10/09/2014  11:18:00        0.340       25.547       49.459       45.300       34.329       33.509     2052.080     1178.490     1122.831        0.373        0.218       25.549       24.185        0.896      343.921       20.374      861.930
10/09/2014  11:19:00       46.219       14.813       24.809       44.038       36.829       45.686     1939.342     1356.392     2087.226        0.418        0.269       48.535       35.184        0.526      343.356       19.412      861.941
10/09/2014  11:20:00       30.074       13.460       12.207       74.910       61.038       42.733     5611.538     3725.679     1826.078        0.620        0.558       32.949       35.016        1.129      343.383       19.457      861.933
10/09/2014  11:21:00       26.845       31.553       59.082       48.145       39.107       33.476     2317.954     1529.353     1120.627        0.509        0.248       41.428       25.512        0.379      343.522       19.692      861.940
10/09/2014  11:22:00       24.122      -15.304       18.393       28.521       42.026       35.206      813.438     1766.213     1239.476        0.249        0.191       28.567       28.078        0.966      343.340       19.384      861.932
10/09/2014  11:23:00       28.544       35.411       62.245       33.412       43.192       22.027     1116.387     1865.510      485.181        0.470        0.173       45.483       22.517        0.245      343.491       19.642      861.913
10/09/2014  11:24:00       98.674       85.249       44.174       40.000       40.873       41.987     1600.037     1670.633     1762.915        1.199        0.252      130.399       34.050        0.068      343.129       19.022      861.910
10/09/2014  11:25:00      169.587      107.292        8.392       61.772       46.808       48.308     3815.831     2190.984     2333.669        2.434        0.417      200.678       35.039        0.030      343.123       19.011      861.892
10/09/2014  11:26:00       99.786       88.093        1.215       58.042       47.637       36.423     3368.860     2269.317     1326.651        1.234        0.348      133.108       23.952        0.032      343.310       19.331      861.881
10/09/2014  11:27:00       92.503       84.467       17.094       59.651       52.628       40.217     3558.188     2769.717     1617.437        1.196        0.397      125.266       24.043        0.037      343.591       19.812      861.888
10/09/2014  11:28:00       70.599       43.342       55.462       43.479       66.404       41.603     1890.422     4409.472     1730.792        0.898        0.402       82.842       37.045        0.200      343.479       19.620      861.887
10/09/2014  11:29:00       87.048       62.553        6.203       47.461       43.427       40.274     2252.593     1885.884     1621.956        0.864        0.288      107.193       18.155        0.029      343.459       19.585      861.891
10/09/2014  11:30:00       -4.489       33.202       13.254       20.664       39.662       23.191      427.019     1573.086      537.806        0.192        0.127       33.504       17.835        0.283      344.195       20.842      861.881
10/09/2014  11:31:00       -8.530      -81.689        8.301       33.076       35.243       26.774     1094.014     1242.090      716.824        0.493        0.153       82.133       20.742        0.064      343.709       20.012      861.873
10/09/2014  11:32:00       -4.749       12.902       49.279       17.558       39.670       21.021      308.293     1573.716      441.876        0.247        0.116       13.748       22.297        2.630      343.964       20.449      861.877
10/09/2014  11:33:00      -13.201       33.542       21.619       18.965       22.587       30.727      359.689      510.194      944.178        0.179        0.091       36.046        9.692        0.072      343.747       20.077      861.871
10/09/2014  11:34:00      -22.353        8.225       -0.675       18.270       14.957       15.986      333.778      223.704      255.544        0.069        0.041       23.818       10.316        0.188      343.777       20.127      861.869
10/09/2014  11:35:00      -17.089       -5.122       18.935       20.020       20.112       17.824      400.791      404.496      317.698        0.090        0.056       17.840       14.027        0.618      344.305       21.029      861.864
10/09/2014  11:36:00      -34.292      -13.035        4.336       16.212       11.374       12.883      262.836      129.372      165.963        0.096        0.028       36.686        7.735        0.044      344.002       20.510      861.853
10/09/2014  11:37:00      -62.537      -39.216        2.074       36.848       25.162       18.062     1357.776      633.148      326.227        0.388        0.116       73.816       20.153        0.075      343.784       20.140      861.845
10/09/2014  11:38:00      -12.688      -19.725        5.605       33.567       26.882       22.123     1126.746      722.667      489.440        0.146        0.117       23.453       16.319        0.484      344.045       20.585      861.837
10/09/2014  11:39:00      -26.374      -37.160       50.380       64.824       61.997       45.114     4202.147     3843.619     2035.236        0.735        0.504       45.568       31.192        0.469      344.190       20.834      861.822
10/09/2014  11:40:00       58.208      -65.229       14.180       60.289       80.605       50.025     3634.732     6497.110     2502.492        1.024        0.632       87.425       51.716        0.350      344.061       20.613      861.824
10/09/2014  11:41:00       34.453      -25.369       45.440       55.402       78.392       47.169     3069.381     6145.367     2224.867        0.767        0.572       42.785       42.989        1.010      344.009       20.523      861.799
10/09/2014  11:42:00       35.473       -4.660       44.938       38.722       79.464       42.006     1499.374     6314.571     1764.498        0.644        0.479       35.778       42.601        1.418      343.783       20.139      861.797
10/09/2014  11:43:00       28.310      114.827      132.513       72.100       57.015       35.300     5198.440     3250.665     1246.099        2.062        0.485      118.265       30.426        0.066      343.891       20.320      861.789
10/09/2014  11:44:00       29.759       19.226       62.742       32.752       48.923       24.551     1072.665     2393.441      602.764        0.463        0.203       35.429       22.713        0.411      343.965       20.449      861.785
10/09/2014  11:45:00      150.565       68.403       40.612       66.686       43.696       40.656     4446.968     1909.355     1652.939        1.850        0.400      165.375       35.263        0.045      343.701       19.997      861.780
10/09/2014  11:46:00       81.454       71.744       12.271       52.274       30.810       31.593     2732.598      949.272      998.133        0.831        0.234      108.545       21.392        0.039      343.818       20.196      861.771
10/09/2014  11:47:00       36.150       15.551       31.136       44.554       56.369       26.481     1985.058     3177.489      701.236        0.419        0.293       39.353        7.367        0.035      344.232       20.905      861.764
10/09/2014  11:48:00       44.199      -48.203        3.394       41.280       38.330       34.625     1704.025     1469.211     1198.875        0.433        0.219       65.399       22.413        0.117      343.653       19.917      861.771
10/09/2014  11:49:00       37.068      -20.529       24.170       39.542       43.155       45.868     1563.535     1862.350     2103.855        0.395        0.276       42.373       35.451        0.700      344.434       21.250      861.770
10/09/2014  11:50:00        3.261       47.443       60.398       39.864       45.288       25.365     1589.128     2051.013      643.398        0.510        0.214       47.555       26.296        0.306      344.177       20.811      861.763
10/09/2014  11:51:00       84.634       84.604       29.128       56.385       32.938       41.585     3179.299     1084.881     1729.331        1.058        0.300      119.670       13.879        0.013      343.873       20.291      861.750
10/09/2014  11:52:00       24.155       21.066       37.424       33.385       32.223       22.584     1114.556     1038.327      510.039        0.254        0.133       32.051       10.382        0.105      344.394       21.182      861.740
10/09/2014  11:53:00       39.492      -53.143       23.813       63.828       95.320       46.983     4073.982     9085.987     2207.365        1.016        0.768       66.210       61.030        0.850      344.292       21.007      861.724
10/09/2014  11:54:00       72.246      -55.690       31.767       66.559       78.228       43.443     4430.070     6119.567     1887.304        1.088        0.622       91.218       39.611        0.189      344.369       21.139      861.712
10/09/2014  11:55:00       88.971     -136.401       -4.937       51.967       77.939       42.746     2700.530     6074.428     1827.222        1.857        0.530      162.853       40.566        0.062      344.211       20.867      861.711
10/09/2014  11:56:00       81.803       64.909       40.365       81.416       53.137       34.349     6628.518     2823.551     1179.847        1.158        0.532      104.427       30.462        0.085      344.299       21.018      861.706
10/09/2014  11:57:00      139.548      101.987       21.315       91.385       81.861       50.194     8351.158     6701.304     2519.409        2.395        0.879      172.844       38.412        0.049      344.185       20.823      861.701
10/09/2014  11:58:00      157.887      124.283       25.605       64.220       46.490       48.479     4124.259     2161.295     2350.253        2.483        0.432      200.934       19.353        0.009      343.990       20.489      861.695
10/09/2014  11:59:00      115.661       84.453       16.566       49.224       48.822       41.613     2422.966     2383.543     1731.664        1.366        0.327      143.212       23.223        0.026      344.183       20.821      861.678
10/09/2014  12:00:00      117.782       95.981       35.726      106.232       64.351       41.180    11285.202     4141.019     1695.809        2.074        0.856      151.937       38.216        0.063      344.206       20.859      861.673
10/09/2014  12:01:00      168.524       68.992       24.997       76.117       56.022       43.058     5793.771     3138.411     1853.956        2.228        0.539      182.100       37.441        0.042      344.000       20.506      861.659
10/09/2014  12:02:00      119.806       63.799       22.759      101.179       79.049       80.369    10237.128     6248.710     6459.242        2.094        1.147      135.734       60.402        0.198      344.113       20.698      861.653
10/09/2014  12:03:00      133.098       93.842       71.108      103.127       69.857       65.289    10635.181     4880.036     4262.614        2.567        0.989      162.853       58.518        0.129      344.300       21.019      861.656
10/09/2014  12:04:00      196.382      122.867       30.858       53.899       44.613       45.042     2905.156     1990.289     2028.771        3.077        0.346      231.651       25.725        0.012      344.128       20.724      861.648
10/09/2014  12:05:00      144.084       74.035       30.730       76.790       47.811       43.180     5896.759     2285.910     1864.550        1.861        0.502      161.992       33.236        0.042      344.273       20.973      861.642
10/09/2014  12:06:00      105.254       65.938       12.255       56.353       50.105       33.975     3175.618     2510.501     1154.329        1.121        0.342      124.202       19.115        0.024      344.345       21.096      861.647
10/09/2014  12:07:00       59.833       43.818       29.379       55.054       44.728       25.598     3030.909     2000.573      655.264        0.602        0.284       74.162       26.269        0.125      344.347       21.102      861.640
10/09/2014  12:08:00       77.125       68.280       15.795       43.260       41.415       42.287     1871.387     1715.220     1788.181        0.812        0.269      103.007       23.830        0.054      344.302       21.023      861.626
10/09/2014  12:09:00       56.162       60.702        2.965       69.679       37.709       43.787     4855.124     1421.957     1917.302        0.752        0.410       82.698       31.096        0.141      344.190       20.831      861.625
10/09/2014  12:10:00       66.521       52.705       11.493       66.377       59.449       48.389     4405.932     3534.224     2341.520        0.881        0.514       84.869       32.428        0.146      344.297       21.015      861.609
10/09/2014  12:11:00       77.321       96.204       10.948       66.027       57.912       55.979     4359.513     3353.835     3133.597        1.310        0.542      123.426       44.340        0.129      344.194       20.839      861.601
10/09/2014  12:12:00       34.108       80.703        8.947       47.345       49.789       39.158     2241.586     2478.936     1533.383        0.700        0.313       87.615       26.197        0.089      344.486       21.338      861.603
10/09/2014  12:13:00       47.563       78.597        7.143       50.364       40.300       36.433     2536.575     1624.122     1327.396        0.699        0.274       91.868       28.778        0.098      344.414       21.216      861.594
10/09/2014  12:14:00       -9.825      127.619      -18.523       29.994       79.001       33.402      899.666     6241.198     1115.725        1.249        0.413      127.996       41.401        0.105      344.295       21.013      861.576
10/09/2014  12:15:00       14.856       18.506       20.254       26.479       21.554       25.144      701.160      464.571      632.198        0.139        0.090       23.731       17.147        0.522      344.834       21.933      861.566
10/09/2014  12:16:00       45.748       29.604        1.889       39.271       38.731       26.965     1542.227     1500.088      727.124        0.337        0.188       54.491       15.499        0.081      344.233       20.906      861.551
10/09/2014  12:17:00      -42.506       98.475       -9.216       34.036       64.326       31.956     1158.465     4137.796     1021.157        0.895        0.316      107.258       20.366        0.036      344.424       21.233      861.539
10/09/2014  12:18:00       -7.171       21.402       22.017       41.127       19.611       19.108     1691.448      384.609      365.107        0.172        0.122       22.571       11.911        0.278      344.771       21.827      861.530
10/09/2014  12:19:00       28.443       72.813        6.543       41.468       38.344       32.082     1719.573     1470.239     1029.227        0.519        0.211       78.171       26.198        0.112      344.644       21.610      861.535
10/09/2014  12:20:00       14.051       59.261       20.868       33.340       38.758       24.929     1111.576     1502.191      621.442        0.369        0.162       60.904       18.738        0.095      344.708       21.720      861.530
10/09/2014  12:21:00        4.079       63.871        3.426       31.895       49.398       36.336     1017.319     2440.195     1320.290        0.444        0.239       64.002       32.250        0.254      344.587       21.513      861.523
10/09/2014  12:22:00      -10.559      156.785      -20.204       30.546       56.571       29.317      933.088     3200.277      859.464        1.505        0.250      157.140       28.293        0.032      344.362       21.127      861.516
10/09/2014  12:23:00      -18.823      164.702      -23.070       25.830       34.929       20.260      667.183     1220.015      410.463        1.516        0.115      165.774       10.525        0.004      344.103       20.682      861.504
10/09/2014  12:24:00      -26.438       78.725       -0.596       50.379       65.409       40.550     2538.078     4278.332     1644.321        0.768        0.423       83.045       39.602        0.227      344.475       21.320      861.488
10/09/2014  12:25:00      -14.484       68.995        9.474       36.276       38.365       23.173     1315.919     1471.900      537.005        0.419        0.166       70.499       16.722        0.056      344.790       21.858      861.481
10/09/2014  12:26:00      -18.465       20.009        3.814       29.110       36.412       21.791      847.392     1325.802      474.844        0.170        0.132       27.227       11.869        0.190      344.526       21.407      861.468
10/09/2014  12:27:00       15.425       39.240       35.006       25.991       27.879       26.948      675.512      777.245      726.175        0.259        0.109       42.162       16.720        0.157      344.755       21.800      861.464
10/09/2014  12:28:00       24.712       59.956       -8.617       39.873       58.831       48.056     1589.866     3461.098     2309.418        0.582        0.368       64.849       46.588        0.516      344.690       21.687      861.454
10/09/2014  12:29:00       66.973      -63.482       11.396       55.292       75.032       42.234     3057.153     5629.793     1783.736        0.956        0.524       92.278       38.691        0.176      344.451       21.279      861.434
10/09/2014  12:30:00       59.295      -44.953       16.449       47.777       75.575       47.747     2282.671     5711.589     2279.795        0.804        0.514       74.409       45.034        0.366      344.681       21.672      861.426
10/09/2014  12:31:00      143.561      -99.822       -0.720       66.616      106.428       48.976     4437.626    11326.943     2398.645        2.437        0.908      174.855       49.849        0.081      344.562       21.467      861.400
10/09/2014  12:32:00       42.275      -36.577        7.543       54.436       83.746       33.821     2963.320     7013.397     1143.888        0.715        0.556       55.902       26.124        0.218      344.799       21.873      861.415
10/09/2014  12:33:00       35.622      -16.889       28.905       38.080       36.943       30.454     1450.070     1364.783      927.433        0.307        0.187       39.422       26.522        0.453      344.868       21.993      861.402
10/09/2014  12:34:00       33.196      -12.337       43.091       38.922       34.143       23.406     1514.909     1165.739      547.860        0.317        0.161       35.414       23.290        0.432      344.814       21.899      861.394
10/09/2014  12:35:00       12.569      -23.079       23.219       36.790       47.448       25.893     1353.468     2251.307      670.435        0.275        0.214       26.280       26.641        1.028      344.442       21.264      861.388
10/09/2014  12:36:00       12.725      -35.063       47.615       38.110       76.318       36.855     1452.337     5824.420     1358.296        0.615        0.432       37.301       45.468        1.486      344.708       21.720      861.371
10/09/2014  12:37:00       90.761       44.539       66.592       80.274       73.951       55.585     6443.941     5468.819     3089.674        1.483        0.750      101.101       50.997        0.254      344.315       21.048      861.374
10/09/2014  12:38:00       57.508       31.491       36.925       63.504       59.938       39.777     4032.804     3592.619     1582.174        0.743        0.460       65.566       30.344        0.214      344.268       20.967      861.371
10/09/2014  12:39:00      108.850       42.734       27.702       75.262       43.857       38.879     5664.350     1923.398     1511.557        1.177        0.455      116.938       30.202        0.067      344.518       21.392      861.358
10/09/2014  12:40:00      116.002       79.833       19.909       51.746       48.158       36.372     2677.674     2319.152     1322.903        1.327        0.316      140.818       29.816        0.045      344.615       21.559      861.348
10/09/2014  12:41:00      111.735       90.189       29.732       61.108       60.048       56.613     3734.246     3605.731     3205.005        1.602        0.527      143.592       31.803        0.049      344.688       21.683      861.333
10/09/2014  12:42:00       68.741       84.508       59.275       77.781       60.285       56.821     6049.938     3634.308     3228.646        1.414        0.646      108.936       52.172        0.229      344.647       21.614      861.340
10/09/2014  12:43:00       68.184      -67.786       41.885       63.948       96.638       53.025     4089.329     9338.825     2811.657        1.362        0.812       96.145       64.197        0.446      344.698       21.702      861.341
10/09/2014  12:44:00       15.782       10.782       42.361       33.374       53.438       41.746     1113.827     2855.620     1742.758        0.394        0.286       19.113       36.373        3.621      344.652       21.623      861.334
10/09/2014  12:45:00       65.784       22.473       28.428       27.172       35.418       30.624      738.303     1254.441      937.829        0.429        0.147       69.517       12.983        0.035      344.603       21.538      861.328
10/09/2014  12:46:00       18.823      -85.019       -6.278       44.586       56.208       23.779     1987.877     3159.346      565.464        0.667        0.286       87.078       19.189        0.049      344.367       21.135      861.318
10/09/2014  12:47:00      -22.250      -97.057      -41.133       50.612       47.873       20.822     2561.596     2291.823      433.564        0.845        0.264       99.574       10.248        0.011      344.529       21.412      861.308
10/09/2014  12:48:00       -7.853      -14.722       -8.235       22.842       33.314       24.295      521.743     1109.809      590.223        0.128        0.111       16.685       23.485        1.981      345.013       22.241      861.289
10/09/2014  12:49:00       14.089       20.317        6.192       51.507       36.838       19.315     2652.996     1357.040      373.061        0.252        0.219       24.724       19.486        0.621      344.716       21.731      861.267
10/09/2014  12:50:00      150.562      119.618       64.435       61.509       45.535       42.838     3783.395     2073.459     1835.130        2.441        0.385      192.295       20.563        0.011      344.680       21.667      861.258
10/09/2014  12:51:00       28.401      -51.902        8.400       33.167       68.369       35.828     1100.035     4674.326     1283.660        0.531        0.353       59.164       45.085        0.581      344.488       21.343      861.247
10/09/2014  12:52:00       20.368      -59.407        9.432       23.843       51.857       26.642      568.489     2689.191      709.812        0.400        0.198       62.801       25.912        0.170      344.926       22.093      861.206
10/09/2014  12:53:00       22.875       15.043       17.301       25.996       20.966       21.703      675.799      439.562      471.012        0.132        0.079       27.378       15.013        0.301      344.778       21.837      861.196
10/09/2014  12:54:00       27.262      -27.467       -3.260       39.374       27.087       28.645     1550.301      733.724      820.526        0.231        0.155       38.700       20.473        0.280      344.512       21.382      861.179
10/09/2014  12:55:00       45.371      -29.844       33.558       50.150       81.545       36.328     2514.982     6649.568     1319.727        0.728        0.524       54.306       40.874        0.566      344.825       21.918      861.140
10/09/2014  12:56:00       58.927      137.730      123.088       78.680       62.619       66.425     6190.476     3921.146     4412.294        2.606        0.726      149.806       55.050        0.135      344.941       22.114      861.123
10/09/2014  12:57:00       75.918       78.039       68.971       66.469       59.431       43.144     4418.095     3532.070     1861.432        1.321        0.491      108.875       38.793        0.127      344.721       21.740      861.124
10/09/2014  12:58:00      114.378      112.398       67.936       70.300       49.157       40.843     4942.047     2416.416     1668.167        1.968        0.451      160.361       25.160        0.025      344.861       21.979      861.104
10/09/2014  12:59:00       29.441      -10.026        1.962       39.310       53.843       45.130     1545.291     2899.074     2036.747        0.373        0.324       31.102       40.604        1.704      344.900       22.048      861.103
10/09/2014  13:00:00      102.015       99.207       30.135       81.331       56.157       49.380     6614.797     3153.574     2438.346        1.668        0.610      142.299       20.750        0.021      344.642       21.605      861.075
10/09/2014  13:01:00      125.885       99.339        4.672       56.427       48.793       50.610     3184.006     2380.802     2561.380        1.693        0.406      160.360       34.735        0.047      344.873       21.999      861.081
10/09/2014  13:02:00       12.073       76.280       -5.107       30.315       44.741       25.391      918.993     2001.792      644.695        0.478        0.178       77.229       24.245        0.099      344.925       22.090      861.086
10/09/2014  13:03:00       42.271       28.584       46.931       41.339       42.175       25.938     1708.909     1778.691      672.768        0.448        0.208       51.028       11.752        0.053      345.061       22.323      861.066
10/09/2014  13:04:00       44.852        4.119       31.429       67.987       45.140       47.704     4622.193     2037.607     2275.677        0.597        0.447       45.040       44.299        0.967      344.800       21.876      861.065
10/09/2014  13:05:00       62.173        3.542       53.262       51.018       47.783       35.361     2602.815     2283.177     1250.377        0.642        0.307       62.274       35.083        0.317      344.887       22.026      861.064
10/09/2014  13:06:00       22.204      -16.970       15.580       25.607       40.164       27.380      655.738     1613.184      749.663        0.202        0.151       27.946       24.945        0.797      344.971       22.167      861.047
10/09/2014  13:07:00       46.071      -29.384       12.243       25.021       38.325       31.363      626.049     1468.791      983.649        0.311        0.154       54.644       27.612        0.255      344.590       21.518      861.033
10/09/2014  13:08:00       12.280      -34.479       -2.680       29.804       26.657       28.253      888.302      710.614      798.230        0.187        0.120       36.600       19.291        0.278      344.419       21.226      861.023
10/09/2014  13:09:00        2.910        2.075        6.907       16.229       29.560       21.408      263.392      873.786      458.289        0.083        0.080        3.574        9.328        6.813      345.046       22.298      861.001
10/09/2014  13:10:00       56.957       -5.177       27.528       33.333       34.657       27.273     1111.074     1201.091      743.804        0.354        0.153       57.192       19.855        0.121      344.810       21.894      860.979
10/09/2014  13:11:00       31.938       10.502       -1.441       27.368       26.188       22.684      749.014      685.798      514.575        0.154        0.097       33.621       12.131        0.130      344.781       21.842      860.963
10/09/2014  13:12:00       21.817       -1.020       22.759       22.809       41.460       29.875      520.233     1718.927      892.502        0.206        0.157       21.841       30.586        1.961      345.333       22.788      860.933
10/09/2014  13:13:00       37.706      -54.836       15.561       47.252       62.623       35.187     2232.743     3921.629     1238.095        0.603        0.370       66.549       35.681        0.287      345.474       23.031      860.897
10/09/2014  13:14:00       55.591       94.477       69.363      107.504       76.422       76.276    11557.148     5840.395     5818.089        2.002        1.161      109.619       65.288        0.355      345.456       22.999      860.883
10/09/2014  13:15:00       44.364       58.338       60.696       55.755       65.182       56.956     3108.651     4248.635     3243.957        0.983        0.530       73.291       46.799        0.408      345.650       23.333      860.874
10/09/2014  13:16:00       53.452       67.822       51.376       53.660       39.992       46.037     2879.438     1599.386     2119.396        0.835        0.330       86.353       15.539        0.032      345.430       22.954      860.869
10/09/2014  13:17:00       86.715      120.245      125.556       66.281       52.204       47.017     4393.215     2725.237     2210.573        2.353        0.466      148.251       35.634        0.058      345.170       22.508      860.854
10/09/2014  13:18:00       63.457       65.954       83.762       48.403       45.968       39.501     2342.887     2113.031     1560.297        1.070        0.301       91.525       31.499        0.118      345.181       22.528      860.853
10/09/2014  13:19:00       57.144       61.364       87.311       36.502       45.813       26.079     1332.401     2098.830      680.106        0.938        0.206       83.851       28.632        0.117      345.271       22.682      860.851
10/09/2014  13:20:00       78.384       63.925       24.181       54.644       41.150       46.523     2985.991     1693.341     2164.415        0.883        0.342      101.145       31.238        0.095      345.330       22.782      860.835
10/09/2014  13:21:00       29.053       23.026       51.119       42.863       44.537       35.293     1837.241     1983.554     1245.599        0.453        0.253       37.072       19.659        0.281      345.843       23.664      860.812
10/09/2014  13:22:00       10.186       39.350       89.203       36.655       39.495       27.014     1343.619     1559.870      729.759        0.662        0.182       40.647       26.153        0.414      345.646       23.326      860.799
10/09/2014  13:23:00       23.320       55.172       27.981       35.902       41.445       38.444     1288.984     1717.664     1477.954        0.443        0.224       59.898       19.657        0.108      345.468       23.019      860.801
10/09/2014  13:24:00       -6.786       58.843      -12.267       17.272       34.034       18.621      298.333     1158.301      346.747        0.273        0.090       59.233       14.133        0.057      345.121       22.426      860.800
10/09/2014  13:25:00       85.895       61.106       34.589       52.101       38.228       30.887     2714.546     1461.403      953.987        0.872        0.256      105.413       14.404        0.019      345.310       22.749      860.783
10/09/2014  13:26:00       17.342       28.314       10.486       53.376       57.006       29.214     2849.014     3249.658      853.450        0.408        0.348       33.203       29.906        0.811      345.155       22.485      860.787
10/09/2014  13:27:00       33.547       -9.546       27.076       35.322       62.157       40.476     1247.630     3863.459     1638.305        0.435        0.337       34.878       27.546        0.624      345.514       23.097      860.770
10/09/2014  13:28:00       -5.118       22.081       -1.470       22.374       38.632       21.280      500.585     1492.435      452.846        0.148        0.122       22.667       18.849        0.692      345.734       23.476      860.763
10/09/2014  13:29:00      -44.912       88.231       -1.506       44.452       43.168       31.094     1976.024     1863.503      966.838        0.730        0.240       99.004       22.475        0.052      345.902       23.764      860.738
10/09/2014  13:30:00      -35.506      238.627      -30.601       53.935       77.444       29.522     2908.969     5997.538      871.548        3.446        0.489      241.254       12.907        0.003      345.244       22.634      860.750
10/09/2014  13:31:00      -54.263      182.315      -17.198       70.356       94.015       42.343     4949.999     8838.911     1792.948        2.603        0.779      190.219       47.781        0.063      345.393       22.889      860.740
10/09/2014  13:32:00      -33.110       52.325        3.749       51.624       38.766       33.898     2665.084     1502.787     1149.089        0.458        0.266       61.920       24.520        0.157      345.696       23.410      860.734
10/09/2014  13:33:00       42.750       69.202        7.166       40.060       56.288       39.441     1604.809     3168.284     1555.581        0.650        0.316       81.342       35.972        0.196      345.337       22.795      860.716
10/09/2014  13:34:00       28.222       53.910       -1.650       39.021       34.766       35.223     1522.606     1208.658     1240.643        0.384        0.199       60.850       25.274        0.173      345.441       22.973      860.699
10/09/2014  13:35:00      -83.629       -0.463       -7.437       80.716       58.080       21.963     6515.148     3373.293      482.384        0.871        0.519       83.630       18.032        0.046      345.433       22.959      860.684
10/09/2014  13:36:00     -211.509      -95.060      -19.824       47.504       52.727       28.278     2256.602     2780.123      799.619        3.000        0.292      231.889       19.695        0.007      345.112       22.405      860.671
10/09/2014  13:37:00     -158.962      -61.453      -11.292       42.764       40.447       25.915     1828.789     1635.955      671.602        1.665        0.207      170.427       11.180        0.004      345.226       22.605      860.660
10/09/2014  13:38:00     -111.892      -40.130      -11.737       75.057       33.045       30.349     5633.522     1091.964      921.051        1.096        0.382      118.871       33.120        0.078      345.128       22.437      860.647
10/09/2014  13:39:00      -81.920      -54.974       -4.797       53.172       41.098       29.017     2827.290     1689.077      841.992        0.756        0.268       98.656       16.186        0.027      345.353       22.824      860.637
10/09/2014  13:40:00     -130.465      -40.299      -16.833       35.333       30.577       20.892     1248.416      934.981      436.474        1.077        0.131      136.547       11.641        0.007      345.009       22.234      860.626
10/09/2014  13:41:00     -107.689      -55.542      -22.812       56.069       32.331       22.135     3143.694     1045.269      489.939        0.994        0.234      121.168       14.194        0.014      345.234       22.618      860.617
10/09/2014  13:42:00      -10.668      -64.706       -1.474       33.563       47.027       28.975     1126.465     2211.531      839.533        0.424        0.209       65.579       20.284        0.096      345.290       22.715      860.608
10/09/2014  13:43:00      -26.766      -25.862       -7.406       25.676       22.455       13.189      659.245      504.246      173.962        0.139        0.067       37.219        2.732        0.005      345.199       22.559      860.587
10/09/2014  13:44:00      -51.037      -60.895        5.158       65.120       32.608       33.052     4240.641     1063.294     1092.417        0.637        0.320       79.454       34.849        0.192      345.576       23.206      860.583
10/09/2014  13:45:00      -41.611      -24.796      -10.574       59.854       40.321       36.751     3582.556     1625.822     1350.604        0.451        0.328       48.439       27.016        0.311      345.558       23.174      860.587
10/09/2014  13:46:00     -115.212      -19.998       -8.517       27.085       40.575       20.712      733.602     1646.369      428.975        0.828        0.140      116.934        9.336        0.006      345.156       22.486      860.570
10/09/2014  13:47:00      -68.145      -12.838       -3.774       28.971       23.968       13.652      839.305      574.452      186.377        0.321        0.080       69.343       10.385        0.022      345.297       22.726      860.557
10/09/2014  13:48:00      -70.549      -17.429        1.196       45.420       29.895       19.962     2063.008      893.714      398.474        0.432        0.168       72.670       15.177        0.044      345.623       23.286      860.535
10/09/2014  13:49:00        8.969      -35.861       -3.094       42.454       29.807       24.112     1802.366      888.458      581.375        0.232        0.164       36.966       21.746        0.346      345.381       22.871      860.515
10/09/2014  13:50:00       76.504       55.521        0.963       53.170       42.156       34.635     2827.008     1777.099     1199.605        0.737        0.290       94.527       26.476        0.078      345.396       22.896      860.497
10/09/2014  13:51:00      126.118      108.839       48.930       64.933       31.817       43.297     4216.345     1012.349     1874.602        1.862        0.355      166.589       36.131        0.047      345.467       23.018      860.454
10/09/2014  13:52:00       98.736       86.141       13.868       77.382       48.908       44.146     5987.950     2392.022     1948.887        1.384        0.516      131.031       31.913        0.059      345.654       23.337      860.419
10/09/2014  13:53:00      100.491       60.839        6.771       69.031       42.771       44.429     4765.306     1829.326     1973.932        1.121        0.428      117.473       24.153        0.042      345.538       23.140      860.411
10/09/2014  13:54:00       75.415       55.928       -5.052       63.253       48.676       37.519     4000.961     2369.369     1407.709        0.831        0.389       93.891       31.033        0.109      345.569       23.194      860.403
10/09/2014  13:55:00       68.290       39.850        6.075       49.247       39.146       33.255     2425.284     1532.379     1105.928        0.568        0.253       79.067       25.425        0.103      345.672       23.369      860.395
10/09/2014  13:56:00        0.855       76.322       -0.508       49.205       43.559       36.856     2421.176     1897.367     1358.364        0.575        0.284       76.327       25.934        0.115      345.425       22.947      860.384
10/09/2014  13:57:00      -24.124       64.165       -9.449       24.886       28.087       21.910      619.290      788.868      480.047        0.334        0.094       68.550       17.734        0.067      345.472       23.027      860.378
10/09/2014  13:58:00       10.806       36.982       10.955       18.264       39.980       21.835      333.589     1598.404      476.749        0.201        0.120       38.528       22.485        0.341      345.732       23.472      860.356
10/09/2014  13:59:00       10.177       30.235       19.033       20.753       25.611       21.510      430.673      655.935      462.680        0.146        0.077       31.902        9.826        0.095      345.885       23.737      860.344
10/09/2014  14:00:00      -29.032       79.102       -5.843       22.548       44.995       25.499      508.413     2024.536      650.194        0.516        0.159       84.261       25.835        0.094      345.524       23.115      860.334
10/09/2014  14:01:00       16.192       24.061       25.320       39.399       38.297       28.868     1552.246     1466.681      833.378        0.267        0.193       29.002       25.558        0.777      345.971       23.884      860.302
10/09/2014  14:02:00      -19.335       37.708       -7.974       26.083       37.071       26.095      680.333     1374.286      680.964        0.230        0.137       42.376       26.311        0.386      345.800       23.588      860.288
10/09/2014  14:03:00       -2.505       80.060       -2.170       32.184       48.273       23.558     1035.792     2330.292      554.961        0.517        0.196       80.100       20.409        0.065      345.775       23.546      860.269
10/09/2014  14:04:00      -54.586       21.674       18.052       60.158       43.196       32.998     3618.993     1865.914     1088.891        0.517        0.329       58.731       29.798        0.257      346.164       24.214      860.255
10/09/2014  14:05:00      -64.957       24.157        3.459       45.323       50.535       28.336     2054.181     2553.773      802.948        0.511        0.271       69.303       27.654        0.159      345.836       23.652      860.251
10/09/2014  14:06:00       25.760        4.949       12.708       40.485       47.222       24.920     1639.009     2229.927      621.005        0.267        0.224       26.231       15.997        0.372      345.833       23.647      860.236
10/09/2014  14:07:00       63.965       72.689       14.478       47.439       49.121       34.459     2250.501     2412.846     1187.423        0.772        0.293       96.826       30.444        0.099      345.891       23.745      860.232
10/09/2014  14:08:00       57.529       74.265       18.101       52.784       59.915       45.851     2786.178     3589.776     2102.284        0.881        0.424       93.941       29.519        0.099      345.876       23.720      860.247
10/09/2014  14:09:00      -31.518      264.790      -36.751       69.316       84.047       40.527     4804.661     7063.862     1642.436        4.298        0.676      266.659       33.355        0.016      345.726       23.459      860.234
10/09/2014  14:10:00      -30.579      196.815      -11.547       66.007       83.673       53.029     4356.877     7001.151     2812.052        2.698        0.709      199.176       54.335        0.074      345.753       23.506      860.234
10/09/2014  14:11:00      -46.277      243.995      -38.234       55.869       89.909       38.049     3121.316     8083.697     1447.736        3.789        0.633      248.345       36.628        0.022      345.430       22.951      860.210
10/09/2014  14:12:00      -33.062      304.873      -28.941       62.861       78.537       49.666     3951.465     6168.023     2466.750        5.373        0.629      306.660       39.693        0.017      345.718       23.444      860.192
10/09/2014  14:13:00      -50.547      352.732      -45.298       44.098       72.332       29.345     1944.675     5231.878      861.103        6.853        0.402      356.335       30.433        0.007      345.455       22.993      860.195
10/09/2014  14:14:00      -49.731      355.436      -47.067       52.449       53.786       33.287     2750.920     2892.899     1107.993        6.889        0.338      358.899       26.178        0.005      345.434       22.957      860.184
10/09/2014  14:15:00       22.358      265.456      -45.795       73.000       68.773       37.299     5328.960     4729.740     1391.240        4.226        0.572      266.396       33.107        0.015      345.402       22.902      860.179
10/09/2014  14:16:00        9.270      159.682      -12.254       52.002       67.332       45.951     2704.255     4533.539     2111.514        1.754        0.467      159.951       40.952        0.066      345.647       23.327      860.176
10/09/2014  14:17:00       67.539       54.705       11.666       31.910       23.426       24.949     1018.237      548.784      622.434        0.494        0.109       86.914       15.177        0.030      345.533       23.131      860.150
10/09/2014  14:18:00       44.742       36.885       24.697       44.347       31.098       17.643     1966.699      967.099      311.260        0.361        0.162       57.986       16.042        0.077      345.889       23.743      860.121
10/09/2014  14:19:00      -14.129       49.120       15.593       32.183       50.957       24.553     1035.750     2596.606      602.859        0.354        0.212       51.112       20.552        0.162      346.225       24.319      860.103
10/09/2014  14:20:00        9.800       77.038        5.397       23.345       48.108       28.050      545.008     2314.370      786.784        0.485        0.182       77.659       26.500        0.116      345.954       23.854      860.096
10/09/2014  14:21:00       32.502       43.130        8.651       23.859       29.650       21.783      569.253      879.151      474.483        0.246        0.096       54.005       15.959        0.087      345.803       23.596      860.073
10/09/2014  14:22:00       38.131       64.138       -2.900       50.074       45.045       27.520     2507.394     2029.049      757.336        0.543        0.265       74.617       23.652        0.100      345.682       23.389      860.074
10/09/2014  14:23:00       87.547       52.859        4.004       80.550       48.961       27.635     6488.306     2397.192      763.714        1.006        0.482      102.267       25.509        0.062      345.696       23.412      860.076
10/09/2014  14:24:00      -52.621      161.891      -18.070       42.910       68.828       29.827     1841.298     4737.297      889.672        1.838        0.373      170.228       28.875        0.029      345.796       23.583      860.075
10/09/2014  14:25:00      -20.981      123.141      -15.790       32.985       73.420       29.095     1088.003     5390.562      846.504        1.159        0.366      124.916       39.275        0.099      345.668       23.362      860.071
10/09/2014  14:26:00       99.538       94.967       -2.886       46.035       50.390       29.743     2119.225     2539.158      884.648        1.224        0.277      137.573       28.798        0.044      345.516       23.101      860.053
10/09/2014  14:27:00       10.881       50.322       -0.213       62.067       38.220       33.276     3852.281     1460.739     1107.325        0.453        0.321       51.485       13.050        0.064      345.915       23.789      860.044
10/09/2014  14:28:00      -16.294      218.155      -26.616       35.965       58.048       28.613     1293.476     3369.531      818.692        2.702        0.274      218.763       32.754        0.022      345.633       23.301      860.039
10/09/2014  14:29:00      -45.044      131.713      -16.569       25.799       43.885       20.505      665.602     1925.886      420.447        1.133        0.151      139.202       23.102        0.028      345.613       23.268      860.037
10/09/2014  14:30:00      -12.329       57.502        0.679       30.992       40.395       27.271      960.498     1631.768      743.720        0.340        0.167       58.809       23.188        0.155      346.031       23.988      860.019
10/09/2014  14:31:00      -19.747       17.724        4.869       28.769       35.713       23.476      827.669     1275.391      551.115        0.169        0.133       26.535       12.906        0.237      346.051       24.022      860.006
10/09/2014  14:32:00      -59.860      112.112      -12.570       46.933       51.158       32.625     2202.730     2617.171     1064.380        1.110        0.294      127.092       32.840        0.067      345.951       23.849      859.985
10/09/2014  14:33:00      -20.916       52.363       14.394       58.676       37.365       42.685     3442.900     1396.138     1822.043        0.502        0.333       56.386       38.873        0.475      346.243       24.350      859.960
10/09/2014  14:34:00      -63.352      156.435      -21.222       62.402       87.958       38.566     3894.044     7736.635     1487.340        2.102        0.656      168.776       36.802        0.048      345.983       23.902      859.950
10/09/2014  14:35:00      -66.278      134.390      -29.784       31.235       44.784       21.039      975.656     2005.565      442.625        1.338        0.171      149.845       11.449        0.006      345.733       23.474      859.947
10/09/2014  14:36:00      -14.132        0.987      -16.897       40.810       52.145       26.039     1665.477     2719.128      678.053        0.277        0.253       14.166       23.682        2.795      345.746       23.496      859.945
10/09/2014  14:37:00       10.991      -33.131        8.218       21.620       31.588       21.211      467.423      997.803      449.901        0.160        0.096       34.907       21.024        0.363      346.120       24.140      859.925
10/09/2014  14:38:00       19.075        3.945        2.252       20.172       27.103       24.034      406.902      734.570      577.610        0.105        0.086       19.479       14.689        0.569      346.090       24.087      859.916
10/09/2014  14:39:00       50.221       34.613       57.168       63.581       58.297       42.945     4042.598     3398.504     1844.238        0.814        0.464       60.993       42.979        0.497      346.101       24.106      859.912
10/09/2014  14:40:00       52.490       -6.892       52.591       60.074       74.757       44.168     3608.901     5588.609     1950.770        0.836        0.557       52.940       46.741        0.780      345.986       23.910      859.910
10/09/2014  14:41:00       29.109        9.601       39.614       44.363       51.412       41.461     1968.102     2643.178     1719.015        0.442        0.317       30.652       40.821        1.774      345.889       23.743      859.902
10/09/2014  14:42:00       28.454      -20.953      -13.725       39.675       38.950       19.912     1574.097     1517.138      396.487        0.246        0.174       35.336        8.555        0.059      345.723       23.457      859.886
10/09/2014  14:43:00       21.895       25.560       33.833       22.543       21.048       14.882      508.200      443.008      221.477        0.172        0.059       33.656       11.395        0.115      346.248       24.360      859.875
10/09/2014  14:44:00       51.427       49.185       14.833       28.393       34.778       32.830      806.165     1209.536     1077.832        0.419        0.155       71.161       24.498        0.119      346.184       24.248      859.866
10/09/2014  14:45:00       81.640       57.455       57.652       57.401       60.652       35.756     3294.929     3678.688     1278.468        1.077        0.413       99.831       14.521        0.021      346.198       24.273      859.854
10/09/2014  14:46:00       34.742      -41.961       28.357       34.256       78.903       37.745     1173.472     6225.760     1424.711        0.630        0.441       54.477       42.417        0.606      346.113       24.128      859.842
10/09/2014  14:47:00       32.325       42.433       50.998       39.077       31.912       25.918     1527.030     1018.359      671.725        0.433        0.161       53.343       23.235        0.190      346.382       24.588      859.829
10/09/2014  14:48:00       78.799       63.666       21.351       55.599       35.561       40.085     3091.240     1264.611     1606.818        0.834        0.298      101.304       34.315        0.115      346.146       24.184      859.838
10/09/2014  14:49:00       18.631        0.583       -4.370       48.041       60.472       23.012     2307.943     3656.847      529.545        0.343        0.325       18.640       25.693        1.900      346.262       24.383      859.835
10/09/2014  14:50:00       20.048        4.553       17.884       22.714       34.286       19.683      515.906     1175.555      387.409        0.141        0.104       20.558       14.916        0.526      346.459       24.722      859.826
10/09/2014  14:51:00       52.590       33.999       12.675       26.221       26.882       21.773      687.534      722.663      474.051        0.298        0.094       62.622       12.987        0.043      346.284       24.419      859.816
10/09/2014  14:52:00       23.223       48.133       17.323       43.042       41.096       27.809     1852.626     1688.851      773.317        0.373        0.216       53.443       20.080        0.141      346.575       24.921      859.806
10/09/2014  14:53:00      131.375      116.912       92.902      113.548       79.481       69.618    12893.085     6317.272     4846.603        3.180        1.203      175.863       69.115        0.154      346.212       24.294      859.786
10/09/2014  14:54:00      135.775       93.617       81.536      113.802       89.401       80.256    12951.008     7992.563     6441.064        3.061        1.369      164.921       77.443        0.221      346.083       24.074      859.764
10/09/2014  14:55:00       57.306       13.823       81.227       74.105       77.211       47.061     5491.615     5961.592     2214.711        1.187        0.683       58.949       50.681        0.739      346.318       24.480      859.746
10/09/2014  14:56:00      114.147      -14.457       34.754       63.359       90.107       59.964     4014.396     8119.238     3595.675        1.509        0.786      115.059       60.191        0.274      346.149       24.189      859.740
10/09/2014  14:57:00       18.410      204.725      -19.084       85.432      216.405       66.374     7298.611    46831.222     4405.500        5.057        2.927      205.551      104.451        0.258      345.958       23.860      859.772
10/09/2014  14:58:00      -37.703      362.106      -51.293       72.498      102.979       32.930     5255.937    10604.662     1084.390        7.606        0.847      364.063       34.393        0.009      345.819       23.617      859.762
10/09/2014  14:59:00      -93.718      235.088      -31.247       73.511       92.471       40.909     5403.921     8550.869     1673.556        4.032        0.781      253.080       47.019        0.035      346.112       24.122      859.753
10/09/2014  15:00:00     -112.427      223.555      -43.751       38.177       98.471       27.627     1457.456     9696.487      763.261        3.822        0.596      250.233        5.659        0.001      345.785       23.561      859.772
10/09/2014  15:01:00      -18.891       21.988        0.643       30.054       34.066       22.515      903.271     1160.463      506.942        0.171        0.129       28.989       21.391        0.544      346.427       24.667      859.760
10/09/2014  15:02:00      -51.080      108.629      -25.027       42.703       68.471       41.362     1823.585     4688.247     1710.820        1.163        0.411      120.039       33.753        0.079      346.133       24.162      859.762
10/09/2014  15:03:00      -82.643      122.353      -13.569       58.425       78.050       37.867     3413.476     6091.818     1433.889        1.646        0.547      147.648       40.740        0.076      346.107       24.115      859.756
10/09/2014  15:04:00      -22.186       59.025       11.360       83.150       51.296       37.001     6913.968     2631.288     1369.037        0.751        0.546       63.057       52.877        0.703      346.277       24.409      859.751
10/09/2014  15:05:00      -38.133      163.652      -13.635       63.488      105.677       39.989     4030.679    11167.665     1599.159        2.261        0.840      168.036       43.982        0.069      346.263       24.383      859.751
10/09/2014  15:06:00      -15.914      166.969      -17.742       80.026       95.165       43.704     6404.091     9056.371     1910.071        2.291        0.869      167.726       48.522        0.084      346.189       24.257      859.766
10/09/2014  15:07:00     -102.841      201.688      -22.481       51.059       88.927       42.829     2607.015     7908.032     1834.284        3.205        0.617      226.394       38.065        0.028      346.314       24.470      859.764
10/09/2014  15:08:00     -113.989      159.738      -25.983       64.507       55.945       39.033     4161.178     3129.869     1523.609        2.400        0.441      196.239       36.027        0.034      346.225       24.315      859.772
10/09/2014  15:09:00      -50.641      126.080      -16.902       53.163       72.048       34.831     2826.325     5190.970     1213.217        1.399        0.462      135.870       34.231        0.063      346.278       24.408      859.777
10/09/2014  15:10:00      -13.861      249.386      -36.291       40.511       56.041       25.592     1641.131     3140.562      654.962        3.457        0.272      249.771       16.336        0.004      345.826       23.629      859.783
10/09/2014  15:11:00       39.388      192.391      -18.548       64.100       89.314       49.670     4108.756     7976.904     2467.122        2.673        0.728      196.382       56.752        0.084      346.018       23.962      859.773
10/09/2014  15:12:00       50.846      124.779        1.386       65.478      105.588       62.275     4287.416    11148.881     3878.133        1.873        0.966      134.741       65.064        0.233      346.156       24.200      859.759
10/09/2014  15:13:00      -25.736      150.614      -27.413       58.941       47.560       30.405     3474.085     2261.922      924.473        1.538        0.333      152.797       26.600        0.030      346.228       24.324      859.769
10/09/2014  15:14:00     -137.935       98.490      -12.699       83.170       66.070       34.912     6917.189     4365.297     1218.873        2.069        0.625      169.488       28.907        0.029      346.144       24.178      859.758
10/09/2014  15:15:00      -73.037       -6.020       -7.130       86.657       53.378       38.436     7509.378     2849.161     1477.313        0.863        0.592       73.285       31.949        0.190      346.091       24.089      859.749
10/09/2014  15:16:00      -77.501        3.907        3.504      112.906       77.366       62.260    12747.731     5985.466     3876.356        1.432        1.130       77.600       68.984        0.790      346.444       24.697      859.725
10/09/2014  15:17:00     -166.390       41.806      -35.825       49.579       96.212       45.872     2458.098     9256.703     2104.258        2.227        0.691      171.561       45.121        0.069      346.170       24.224      859.726
10/09/2014  15:18:00      -86.094      103.003      -17.017      102.623       98.423       47.366    10531.512     9687.172     2243.568        2.038        1.123      134.246       54.726        0.166      346.383       24.591      859.717
10/09/2014  15:19:00        9.420      138.090      -20.370       61.084       60.625       40.836     3731.312     3675.343     1667.546        1.432        0.454      138.411       38.927        0.079      346.212       24.296      859.715
10/09/2014  15:20:00       37.245      138.333      -13.546       48.400       96.089       46.011     2342.570     9233.026     2116.983        1.720        0.685      143.259       55.357        0.149      346.191       24.259      859.708
10/09/2014  15:21:00        3.768      127.774       -2.738       70.912       60.479       42.921     5028.570     3657.681     1842.197        1.344        0.526      127.829       36.401        0.081      346.179       24.240      859.712
10/09/2014  15:22:00       12.183      121.947       -2.455       44.640       67.663       41.278     1992.711     4578.295     1703.846        1.165        0.414      122.554       44.859        0.134      346.098       24.101      859.705
10/09/2014  15:23:00       53.547       96.330       11.609       65.837       48.264       35.049     4334.446     2329.395     1228.407        1.009        0.395      110.213       34.803        0.100      346.193       24.264      859.704
10/09/2014  15:24:00       59.509      122.553       -1.486       73.127       82.781       66.931     5347.625     6852.706     4479.741        1.762        0.834      136.237       59.157        0.189      346.205       24.284      859.704
10/09/2014  15:25:00      101.140      160.507      -10.030       89.474       86.019       54.595     8005.622     7399.243     2980.652        2.724        0.919      189.715       55.264        0.085      346.245       24.351      859.710
10/09/2014  15:26:00       25.292      184.164       -5.130       63.305      135.288       56.968     4007.551    18302.821     3245.342        3.006        1.278      185.893       71.867        0.149      346.178       24.236      859.721
10/09/2014  15:27:00       40.028      222.010      -25.943       57.901      101.708       53.996     3352.524    10344.614     2915.522        3.409        0.831      225.589       56.077        0.062      346.196       24.265      859.729
10/09/2014  15:28:00       12.278      148.163      -19.351       52.305       74.449       47.970     2735.861     5542.693     2301.126        1.653        0.529      148.671       42.440        0.081      346.345       24.525      859.738
10/09/2014  15:29:00      -73.962      151.002      -21.027       68.884       62.114       43.416     4745.071     3858.129     1884.920        1.960        0.524      168.142       35.910        0.046      346.409       24.634      859.759
10/09/2014  15:30:00       10.788      199.421      -26.253       76.230       67.332       39.097     5810.958     4533.577     1528.575        2.622        0.594      199.712       34.959        0.031      345.982       23.898      859.762
10/09/2014  15:31:00      -68.780       70.037        7.193      102.325       66.141       51.507    10470.446     4374.602     2652.921        1.359        0.875       98.163       53.115        0.293      346.358       24.546      859.749
10/09/2014  15:32:00     -178.340       78.401      -40.553       36.811       63.771       27.017     1355.047     4066.691      729.917        2.287        0.308      194.813       18.277        0.009      346.024       23.974      859.741
10/09/2014  15:33:00       -7.614       33.983       20.860       73.023       38.254       30.304     5332.326     1463.370      918.320        0.468        0.386       34.825       30.543        0.769      346.186       24.251      859.733
10/09/2014  15:34:00       28.603       24.186        0.605       29.219       18.314       19.353      853.745      335.387      374.530        0.148        0.078       37.458        6.528        0.030      346.163       24.213      859.731
10/09/2014  15:35:00       34.383      144.471      -12.603       48.670       95.841       41.895     2368.760     9185.547     1755.168        1.776        0.665      148.506       45.353        0.093      346.161       24.209      859.729
10/09/2014  15:36:00       11.805       34.258        6.786       28.441       29.454       19.253      808.872      867.552      370.694        0.170        0.102       36.235       15.781        0.190      346.167       24.221      859.711
10/09/2014  15:37:00       26.392       26.299       -5.440       20.284       46.467       20.245      411.460     2159.222      409.870        0.220        0.149       37.258       19.959        0.287      346.066       24.045      859.698
10/09/2014  15:38:00       75.473       45.383       15.053       37.441       42.167       37.535     1401.791     1778.018     1408.912        0.628        0.229       88.067       23.874        0.073      346.241       24.346      859.673
10/09/2014  15:39:00       52.258       39.907        7.706       51.902       52.740       27.025     2693.791     2781.524      730.337        0.529        0.310       65.753       25.862        0.155      346.390       24.604      859.657
10/09/2014  15:40:00       38.475      129.829      -19.030       50.005       63.883       42.715     2500.528     4081.028     1824.584        1.355        0.420      135.410       28.133        0.043      346.277       24.407      859.653
10/09/2014  15:41:00       75.371      189.579      -10.727       73.857      100.065       59.384     5454.889    10013.088     3526.467        3.036        0.950      204.012       61.226        0.090      346.281       24.414      859.645
10/09/2014  15:42:00       29.322      185.196       -6.013       53.540      124.361       59.871     2866.553    15465.666     3584.546        2.855        1.096      187.503       74.398        0.157      346.381       24.585      859.654
10/09/2014  15:43:00       24.975       94.080        6.241       51.117       71.787       41.396     2612.950     5153.333     1713.668        0.950        0.474       97.339       37.406        0.148      346.423       24.657      859.654
10/09/2014  15:44:00       66.838      148.326        6.702       96.112      112.050       48.802     9237.526    12555.124     2381.612        2.534        1.209      162.690       68.316        0.176      346.130       24.154      859.650
10/09/2014  15:45:00      -70.889      194.003      -20.382       54.976       71.245       42.745     3022.365     5075.871     1827.115        2.650        0.496      206.548       40.005        0.038      346.179       24.239      859.652
10/09/2014  15:46:00      -77.022      182.202      -36.526       60.159       73.204       34.677     3619.106     5358.872     1202.484        2.532        0.509      197.813       35.151        0.032      346.176       24.232      859.658
10/09/2014  15:47:00      -74.407      148.815      -12.460       57.242       94.635       37.572     3276.613     8955.751     1411.668        2.074        0.682      166.380       42.958        0.067      346.372       24.569      859.659
10/09/2014  15:48:00     -100.741      103.935      -22.686       40.616       62.860       30.572     1649.673     3951.381      934.627        1.400        0.327      144.745       25.472        0.031      346.371       24.570      859.660
10/09/2014  15:49:00       31.921       55.786       -8.079       49.307       55.006       34.777     2431.153     3025.606     1209.461        0.543        0.333       64.273       19.053        0.088      346.224       24.317      859.653
10/09/2014  15:50:00      128.333       65.786       20.820       52.052       33.614       42.806     2709.451     1129.900     1832.382        1.345        0.284      144.212       15.857        0.012      346.098       24.101      859.622
10/09/2014  15:51:00      108.267       60.139       10.346       24.195       36.884       21.914      585.397     1360.425      480.210        0.894        0.121      123.848       18.859        0.023      345.984       23.904      859.618
10/09/2014  15:52:00       94.664       39.193       20.445       41.903       39.093       30.270     1755.849     1528.280      916.297        0.756        0.210      102.456       22.365        0.048      346.096       24.098      859.600
10/09/2014  15:53:00       48.109       18.394       23.776       48.650       47.641       32.190     2366.775     2269.702     1036.212        0.444        0.284       51.506       25.631        0.248      346.240       24.345      859.584
10/09/2014  15:54:00       11.891      104.930       -8.262       46.997       80.231       33.639     2208.693     6437.032     1131.579        1.050        0.489      105.602       40.145        0.145      346.333       24.503      859.582
10/09/2014  15:55:00       38.526      102.973       -9.981       30.241       58.549       34.648      914.524     3428.031     1200.497        0.886        0.277      109.944       35.134        0.102      346.247       24.356      859.575
10/09/2014  15:56:00      -29.345      199.795      -26.215       49.418       71.469       32.864     2442.169     5107.879     1080.019        2.505        0.432      201.938       26.308        0.017      346.179       24.237      859.580
10/09/2014  15:57:00      -19.431       50.422      -22.831       32.233       39.826       28.231     1038.981     1586.091      796.983        0.343        0.171       54.036       14.250        0.070      346.266       24.391      859.570
10/09/2014  15:58:00      -40.747        7.286       -7.211       91.128       34.277       32.090     8304.261     1174.909     1029.790        0.614        0.525       41.393       29.162        0.496      346.316       24.475      859.557
10/09/2014  15:59:00      -98.574       56.946      -19.317       27.883       61.094       28.278      777.452     3732.466      799.651        0.932        0.265      113.841       31.323        0.076      346.418       24.650      859.551
10/09/2014  16:00:00      -77.687      159.363      -14.811       42.476       67.315       31.630     1804.240     4531.321     1000.432        1.949        0.367      177.290       31.283        0.031      346.356       24.543      859.537
10/09/2014  16:01:00     -214.384      163.194      -64.100      114.055      147.182       64.251    13008.563    21662.584     4128.254        5.774        1.940      269.430       71.007        0.069      346.366       24.559      859.513
10/09/2014  16:02:00      117.743      201.281       -7.705      177.013      115.572       75.666    31333.759    13356.797     5725.315        5.242        2.521      233.190       71.431        0.094      346.405       24.627      859.476
10/09/2014  16:03:00      201.459      123.416       38.914       52.573       46.080       51.651     2763.911     2123.382     2667.806        3.244        0.378      236.257       28.715        0.015      346.409       24.630      859.508
10/09/2014  16:04:00      191.037       85.431        8.307      118.652       84.717       60.995    14078.403     7176.980     3720.371        3.442        1.249      209.269       48.625        0.054      346.457       24.715      859.513
10/09/2014  16:05:00      103.059       67.015       19.725       86.829       66.701       42.662     7539.298     4449.043     1820.014        1.465        0.690      122.932       12.657        0.011      346.442       24.692      859.519
10/09/2014  16:06:00      171.062      108.108       11.548       81.511       78.372       47.125     6644.055     6142.178     2220.786        2.804        0.750      202.360       33.819        0.028      346.352       24.535      859.526
10/09/2014  16:07:00       76.480       98.008        4.615       68.810       63.643       36.387     4734.758     4050.434     1324.033        1.279        0.505      124.317       38.505        0.096      346.258       24.376      859.534
10/09/2014  16:08:00      118.848       56.280       12.167       75.764       46.041       35.508     5740.163     2119.756     1260.786        1.328        0.456      131.501       32.584        0.061      346.285       24.422      859.534
10/09/2014  16:09:00       32.517       19.080       -1.478       45.169       36.369       25.812     2040.256     1322.713      666.239        0.273        0.201       37.701       18.470        0.240      346.318       24.478      859.535
10/09/2014  16:10:00      117.493       67.003       27.001       39.284       39.708       36.093     1543.227     1576.696     1302.675        1.172        0.221      135.255       18.177        0.018      346.283       24.418      859.530
10/09/2014  16:11:00       39.776       44.963       58.905       46.901       44.882       32.735     2199.673     2014.357     1071.605        0.618        0.264       60.032       30.722        0.262      346.445       24.696      859.515
10/09/2014  16:12:00       95.567       63.811       34.616       81.537       52.549       38.689     6648.294     2761.415     1496.819        1.265        0.545      114.913       16.930        0.022      346.500       24.792      859.511
10/09/2014  16:13:00      129.464       62.631       24.889       42.026       43.303       52.008     1766.207     1875.193     2704.780        1.382        0.317      143.818       32.390        0.051      346.313       24.471      859.522
10/09/2014  16:14:00       79.778       45.732        2.642       50.842       33.833       26.667     2584.901     1144.675      711.108        0.645        0.222       91.956       27.193        0.087      346.210       24.292      859.531
10/09/2014  16:15:00       34.988       10.408       31.472       56.512       54.572       34.322     3193.645     2978.056     1177.998        0.484        0.367       36.504       36.845        1.019      346.580       24.929      859.522
10/09/2014  16:16:00       13.691       51.847       67.092       37.288       31.686       34.476     1390.359     1004.016     1188.570        0.548        0.179       53.624       20.536        0.147      346.431       24.674      859.524
10/09/2014  16:17:00       18.842       54.888       59.925       25.917       27.119       18.695      671.688      735.431      349.493        0.436        0.088       58.032       14.239        0.060      346.488       24.771      859.527
10/09/2014  16:18:00       14.474       43.458       54.072       34.576       32.437       33.484     1195.465     1052.136     1121.147        0.419        0.168       45.805       28.199        0.379      346.449       24.704      859.532
10/09/2014  16:19:00      -11.826       38.220       -0.611       16.735       29.535       15.454      280.052      872.338      238.811        0.150        0.070       40.008       14.539        0.132      346.445       24.698      859.532
10/09/2014  16:20:00      -39.488       77.400       -2.714       26.644       43.058       25.743      709.885     1853.948      662.688        0.539        0.161       86.891       24.343        0.078      346.525       24.835      859.535
10/09/2014  16:21:00      -43.402       28.453        0.740       35.253       24.969       20.157     1242.786      623.433      406.291        0.248        0.114       51.897        9.618        0.034      346.543       24.864      859.527
10/09/2014  16:22:00      -52.357       86.302      -10.686       43.202       37.091       20.508     1866.446     1375.721      420.589        0.698        0.183      100.942       17.847        0.031      346.375       24.579      859.516
10/09/2014  16:23:00      -69.969       -3.262      -11.041       37.619       49.069       25.487     1415.154     2407.790      649.605        0.475        0.224       70.045       18.238        0.068      346.462       24.726      859.507
10/09/2014  16:24:00       19.616       37.941       28.638       54.564       26.676       23.911     2977.270      711.589      571.746        0.345        0.213       42.712       25.237        0.349      346.441       24.692      859.497
10/09/2014  16:25:00       36.050       80.352        1.488       30.130       58.776       27.756      907.799     3454.669      770.378        0.644        0.257       88.069       33.932        0.148      346.379       24.585      859.503
10/09/2014  16:26:00       47.303       87.904       -5.827       41.717       48.482       34.879     1740.348     2350.462     1216.557        0.765        0.265       99.824       30.702        0.095      346.255       24.372      859.503
10/09/2014  16:27:00       88.521       66.139       10.094       24.075       17.181       27.747      579.628      295.201      769.922        0.698        0.082      110.501       13.082        0.014      346.190       24.259      859.496
10/09/2014  16:28:00       27.047       49.997       57.726       46.781       33.545       32.737     2188.425     1125.290     1071.687        0.547        0.219       56.844       26.716        0.221      346.317       24.476      859.483
10/09/2014  16:29:00       15.118       53.068       54.337       22.688       25.721       22.347      514.734      661.579      499.399        0.384        0.084       55.179       13.628        0.061      346.293       24.437      859.481
10/09/2014  16:30:00       11.729      -34.221       13.606       35.607       47.188       20.719     1267.865     2226.719      429.266        0.271        0.196       36.175       30.013        0.688      346.550       24.878      859.476
10/09/2014  16:31:00       60.980      -67.230      -15.409       22.279       23.471       19.435      496.343      550.877      377.703        0.495        0.071       90.765        7.999        0.008      346.395       24.612      859.472
10/09/2014  16:32:00       -9.143      -23.444       -7.180       56.729       28.307       15.184     3218.171      801.310      230.566        0.247        0.213       25.163       17.938        0.508      346.426       24.665      859.468
10/09/2014  16:33:00      -81.366      -23.705       -9.184       22.113       27.256       13.977      488.983      742.907      195.351        0.435        0.071       84.749        7.548        0.008      346.647       25.044      859.460
10/09/2014  16:34:00      -74.818        9.110       -5.584       32.292       26.009       19.993     1042.769      676.454      399.703        0.392        0.106       75.371        9.136        0.015      346.468       24.736      859.460
10/09/2014  16:35:00      -11.377       -7.846        3.325       24.783       37.448       20.073      614.202     1402.354      402.934        0.131        0.121       13.820        6.353        0.211      346.935       25.541      859.455
10/09/2014  16:36:00       -3.821        3.818       10.019       27.746       31.645       15.785      769.814     1001.435      249.177        0.107        0.101        5.401       16.701        9.560      346.809       25.323      859.457
10/09/2014  16:37:00       36.434       29.892        2.657       32.293       17.944       11.271     1042.854      321.985      127.024        0.186        0.075       47.127        7.883        0.028      346.382       24.590      859.457
10/09/2014  16:38:00       49.796      -12.264        3.293       47.114       48.446       28.980     2219.703     2346.987      839.812        0.402        0.270       51.284       26.387        0.265      346.419       24.654      859.460
10/09/2014  16:39:00       29.179      -34.827       21.624       24.183       44.161       23.151      584.834     1950.222      535.970        0.280        0.154       45.435       24.577        0.293      346.592       24.951      859.458
10/09/2014  16:40:00        9.178      -10.131        8.292       18.759       19.949       17.448      351.915      397.957      304.422        0.065        0.053       13.670       16.109        1.389      346.778       25.270      859.463
10/09/2014  16:41:00       10.735      -16.548       10.472       15.295       27.273       17.680      233.928      743.836      312.579        0.089        0.065       19.725       15.559        0.622      346.598       24.962      859.458
10/09/2014  16:42:00       16.633        9.732       24.785       14.989       19.439       14.627      224.661      377.878      213.963        0.090        0.041       19.271       10.169        0.278      346.444       24.696      859.459
10/09/2014  16:43:00       20.686       13.101        4.671       17.323       15.938       10.493      300.099      254.024      110.096        0.064        0.033       24.486        8.552        0.122      346.392       24.608      859.467
10/09/2014  16:44:00      -51.655       70.707      -19.283       76.532       48.784       26.759     5857.086     2379.895      716.022        0.849        0.448       87.566       38.982        0.198      346.499       24.790      859.488
10/09/2014  16:45:00      -70.760      160.201      -27.557       35.552       67.480       38.599     1263.975     4553.583     1489.870        1.937        0.365      175.132       11.492        0.004      346.328       24.495      859.497
10/09/2014  16:46:00      -31.523       93.838      -18.139       87.086       60.707       39.194     7583.908     3685.357     1536.170        1.146        0.640       98.991       53.209        0.289      346.331       24.501      859.503
10/09/2014  16:47:00      -84.659      139.095      -30.995       52.860       56.321       34.535     2794.154     3172.000     1192.680        1.732        0.358      162.833       30.565        0.035      346.336       24.508      859.511
10/09/2014  16:48:00        4.191       60.892      -28.235       44.609       88.029       15.448     1989.946     7749.042      238.648        0.725        0.499       61.036       18.230        0.089      346.271       24.400      859.503
10/09/2014  16:49:00       74.953      -56.777       -8.467       24.709       32.369       27.634      610.533     1047.779      763.611        0.567        0.121       94.030       16.792        0.032      346.294       24.439      859.486
10/09/2014  16:50:00       -1.858      -63.556      -17.214       51.499       44.190       18.090     2652.176     1952.795      327.235        0.463        0.247       63.583        7.368        0.013      346.341       24.520      859.472
10/09/2014  16:51:00      -54.858       25.845      -10.344       30.403       34.064       18.647      924.320     1160.347      347.712        0.311        0.122       60.641       17.929        0.087      346.505       24.799      859.485
10/09/2014  16:52:00      -65.590      -51.440       -8.387       60.803       39.456       24.180     3697.042     1556.769      584.690        0.643        0.292       83.356       27.033        0.105      346.499       24.790      859.482
10/09/2014  16:53:00      -20.372      -77.267       23.734       67.351       62.419       38.297     4536.199     3896.147     1466.660        0.842        0.495       79.908       32.425        0.165      346.434       24.679      859.479
10/09/2014  16:54:00       37.997       62.225       16.257       40.712       37.764       43.939     1657.500     1426.091     1930.637        0.530        0.251       72.908       37.237        0.261      346.303       24.455      859.485
10/09/2014  16:55:00      -54.536      104.052      -27.500       33.162       57.643       25.505     1099.730     3322.666      650.514        0.981        0.254      117.478       19.807        0.028      346.330       24.500      859.509
10/09/2014  16:56:00       -5.108       70.024       -8.806       33.157       31.878       21.970     1099.398     1016.227      482.699        0.380        0.130       70.210       21.704        0.096      346.278       24.411      859.504
10/09/2014  16:57:00      -36.654      101.680      -25.703       22.307       21.524       12.243      497.600      463.298      149.883        0.673        0.056      108.085       10.170        0.009      346.285       24.425      859.497
10/09/2014  16:58:00        1.384      101.799       -5.688       43.514       36.313       30.840     1893.456     1318.655      951.134        0.728        0.208      101.808       23.175        0.052      346.288       24.426      859.496
10/09/2014  16:59:00       14.320       75.639       -5.663       30.238       43.331       22.375      914.326     1877.535      500.651        0.462        0.165       76.983       21.445        0.078      346.327       24.496      859.493
10/09/2014  17:00:00       20.596       18.968        6.245       22.534       26.812       19.188      507.800      718.858      368.176        0.121        0.080       28.000       17.879        0.408      346.395       24.611      859.487
10/09/2014  17:01:00       26.234       62.361       -2.042       22.776       53.460       24.584      518.753     2857.994      604.387        0.428        0.199       67.654       27.255        0.162      346.306       24.459      859.490
10/09/2014  17:02:00      -56.516       45.694       -6.834       59.701       51.396       33.860     3564.215     2641.596     1146.493        0.634        0.368       72.677       48.712        0.449      346.496       24.786      859.479
10/09/2014  17:03:00     -125.730      123.094      -36.818       45.269       57.752       30.172     2049.254     3335.251      910.368        1.930        0.315      175.955       30.381        0.030      346.479       24.755      859.502
10/09/2014  17:04:00      -90.620      132.709      -26.450       65.669       70.212       40.713     4312.452     4929.724     1657.521        1.871        0.545      160.698       49.971        0.097      346.482       24.761      859.494
10/09/2014  17:05:00       27.299      114.396      -17.014       39.102       61.451       22.838     1528.984     3776.214      521.587        0.997        0.291      117.608       23.716        0.041      346.347       24.528      859.496
10/09/2014  17:06:00        6.910      109.891      -16.988       44.958       35.250       17.770     2021.200     1242.529      315.764        0.800        0.179      110.108       17.244        0.025      346.356       24.544      859.484
10/09/2014  17:07:00      -34.121       65.431      -24.378       46.264       29.997       20.335     2140.325      899.845      413.506        0.475        0.173       73.793       10.949        0.022      346.451       24.707      859.478
10/09/2014  17:08:00        6.606       45.560      -14.170       22.628       23.709       13.283      512.045      562.137      176.447        0.179        0.063       46.036       12.053        0.069      346.433       24.675      859.475
10/09/2014  17:09:00      -54.410      114.522      -22.782       35.720       48.161       28.995     1275.888     2319.456      840.685        1.051        0.222      126.790       23.030        0.033      346.484       24.763      859.476
10/09/2014  17:10:00      -34.647      -29.401      -11.604       38.177       49.523       22.403     1457.458     2452.520      501.909        0.330        0.221       45.440       13.007        0.082      346.656       25.060      859.482
10/09/2014  17:11:00      -54.992      -11.224        2.167       51.531       32.315       25.563     2655.484     1044.284      653.466        0.375        0.218       56.126       31.453        0.314      346.718       25.167      859.489
10/09/2014  17:12:00     -108.695       24.093       -3.689       45.375       41.218       29.005     2058.867     1698.892      841.286        0.850        0.230      111.334       22.068        0.039      346.453       24.712      859.504
10/09/2014  17:13:00      -74.706       11.211        0.569       55.952       50.793       25.106     3130.599     2579.977      630.291        0.602        0.317       75.543       27.647        0.134      346.483       24.763      859.507
10/09/2014  17:14:00      -68.303       80.220      -13.392       38.373       43.089       28.831     1472.478     1856.661      831.231        0.772        0.208      105.359       24.390        0.054      346.412       24.643      859.507
10/09/2014  17:15:00     -127.239       76.269      -24.716       66.526       80.749       36.944     4425.733     6520.356     1364.869        1.746        0.616      148.347       43.123        0.085      346.396       24.611      859.503
10/09/2014  17:16:00      -86.369        2.623       -8.863       52.949       67.411       29.249     2803.634     4544.223      855.478        0.787        0.410       86.408       22.780        0.070      346.556       24.887      859.498
10/09/2014  17:17:00      -47.179       16.191      -14.098       41.936       59.375       26.815     1758.647     3525.430      719.020        0.434        0.300       49.880       19.672        0.156      346.491       24.777      859.492
10/09/2014  17:18:00      -23.452       87.190      -15.745       39.374       49.709       17.574     1550.325     2470.953      308.835        0.636        0.217       90.288       17.243        0.036      346.384       24.595      859.492
10/09/2014  17:19:00      -52.795      106.738      -14.274       26.956       57.962       21.464      726.637     3359.548      460.693        0.946        0.227      119.081       21.062        0.031      346.384       24.593      859.494
10/09/2014  17:20:00      -16.671       59.931       -4.838       23.283       36.346       14.587      542.103     1321.056      212.769        0.298        0.104       62.206       15.558        0.063      346.411       24.639      859.504
10/09/2014  17:21:00        3.642      103.495      -22.866       26.057       31.249       15.265      678.978      976.491      233.010        0.657        0.094      103.559       16.309        0.025      346.409       24.637      859.501
10/09/2014  17:22:00       -1.359      195.290      -31.188       42.080       57.646       25.374     1770.716     3323.022      643.847        2.242        0.287      195.294       24.305        0.015      346.377       24.578      859.513
10/09/2014  17:23:00      -45.812      101.000      -17.256       33.259       42.727       29.788     1106.136     1825.561      887.334        0.821        0.191      110.904       18.688        0.028      346.413       24.644      859.510
10/09/2014  17:24:00     -103.139       12.581      -15.365       46.332       52.646       22.933     2146.627     2771.606      525.900        0.824        0.272      103.904       22.934        0.049      346.566       24.905      859.508
10/09/2014  17:25:00      -82.028       28.225       -9.841       65.596       60.870       39.986     4302.784     3705.142     1598.907        0.861        0.480       86.748       39.999        0.213      346.620       24.999      859.516
10/09/2014  17:26:00      -29.556       71.011       -0.250       50.875       49.223       29.788     2588.224     2422.891      887.352        0.591        0.295       76.916       28.739        0.140      346.442       24.692      859.522
10/09/2014  17:27:00      -62.923      160.705      -15.616       87.636      102.751       63.064     7680.139    10557.845     3977.027        2.612        1.111      172.585       43.392        0.063      346.420       24.653      859.538
10/09/2014  17:28:00     -152.143      224.381      -32.424       88.703      110.807       62.529     7868.230    12278.178     3909.876        4.930        1.203      271.099       64.601        0.057      346.429       24.666      859.533
10/09/2014  17:29:00     -195.601      226.623      -38.997      101.801       94.213       57.107    10363.342     8876.038     3261.162        5.682        1.125      299.362       59.930        0.040      346.412       24.637      859.539
10/09/2014  17:30:00     -153.566      167.050      -23.176       72.911       79.115       55.982     5316.035     6259.180     3134.012        3.336        0.735      226.910       40.871        0.032      346.415       24.642      859.546
10/09/2014  17:31:00     -144.231      195.777      -25.995       76.237       82.709       47.463     5812.043     6840.832     2252.750        3.735        0.745      243.169       38.926        0.026      346.391       24.599      859.566
10/09/2014  17:32:00     -114.550      113.980      -20.815       59.448       79.733       35.063     3534.023     6357.375     1229.384        1.883        0.556      161.596       29.291        0.033      346.440       24.686      859.556
10/09/2014  17:33:00     -137.117       29.245       -4.355       89.244       85.271       44.490     7964.565     7271.196     1979.317        1.844        0.861      140.201       40.513        0.084      346.431       24.675      859.553
10/09/2014  17:34:00     -135.846      -63.170       -3.442       88.236       87.390       41.064     7785.528     7637.084     1686.247        1.978        0.855      149.815       23.196        0.024      346.489       24.772      859.557
10/09/2014  17:35:00     -158.557      187.102      -43.338       88.892       90.225       53.486     7901.834     8140.608     2860.722        4.046        0.945      245.250       59.651        0.059      346.401       24.618      859.562
10/09/2014  17:36:00      -74.936      182.784      -19.799       57.380       69.252       31.545     3292.443     4795.801      995.074        2.425        0.454      197.548       17.852        0.008      346.379       24.581      859.575
10/09/2014  17:37:00     -153.329      172.839      -41.968       68.733       67.818       42.083     4724.162     4599.223     1770.982        3.312        0.555      231.048       38.577        0.028      346.412       24.639      859.587
10/09/2014  17:38:00     -187.194      267.224      -49.092       83.504      122.631       54.469     6972.966    15038.245     2966.915        6.692        1.249      326.268       52.444        0.026      346.366       24.558      859.601
10/09/2014  17:39:00     -186.546      188.309      -45.335       69.064       74.137       47.672     4769.903     5496.357     2272.651        4.242        0.627      265.065       37.157        0.020      346.364       24.555      859.604
10/09/2014  17:40:00     -143.647      172.705      -39.483       77.714       99.968       44.144     6039.529     9993.625     1948.705        3.500        0.899      224.637       39.683        0.031      346.339       24.512      859.608
10/09/2014  17:41:00     -104.997      159.415      -13.374       73.942       77.343       53.308     5467.387     5981.952     2841.699        2.545        0.715      190.886       41.983        0.048      346.352       24.535      859.611
10/09/2014  17:42:00      -94.838      108.068      -21.053       73.867       77.257       40.933     5456.307     5968.621     1675.484        1.711        0.655      143.781       25.291        0.031      346.360       24.550      859.629
10/09/2014  17:43:00      -80.536       22.795      -22.869       51.459       67.823       43.847     2648.017     4599.942     1922.541        0.835        0.459       83.700       22.638        0.073      346.413       24.642      859.637
10/09/2014  17:44:00     -164.963        7.136      -20.856       71.346       92.298       49.047     5090.305     8518.948     2405.629        2.185        0.801      165.117       31.192        0.036      346.374       24.573      859.634
10/09/2014  17:45:00     -153.176      177.142      -22.022       91.067      138.510       59.241     8293.201    19185.082     3509.498        4.315        1.549      234.184       56.161        0.058      346.284       24.417      859.653
10/09/2014  17:46:00     -169.265      229.833      -43.596       84.939      146.190       70.162     7214.590    21371.485     4922.757        5.844        1.675      285.436       71.392        0.063      346.192       24.258      859.664
10/09/2014  17:47:00     -137.947      267.399      -36.811       75.630       95.360       50.100     5719.971     9093.571     2510.009        5.460        0.866      300.885       47.391        0.025      346.181       24.239      859.682
10/09/2014  17:48:00      -85.080      130.700       -4.200       95.669       97.487       44.858     9152.552     9503.780     2012.229        2.250        1.033      155.952       51.802        0.110      346.139       24.169      859.694
10/09/2014  17:49:00     -111.574      205.983      -18.221       77.044      109.718       52.988     5935.763    12038.082     2807.757        3.799        1.039      234.260       47.092        0.040      346.133       24.158      859.693
10/09/2014  17:50:00     -185.110      232.862      -48.852      100.924       91.811       60.530    10185.714     8429.350     3663.904        5.657        1.114      297.474       52.428        0.031      346.140       24.168      859.698
10/09/2014  17:51:00     -217.446      206.216      -52.087      134.333      102.407       58.478    18045.362    10487.117     3419.620        6.223        1.598      299.679       67.606        0.051      346.115       24.126      859.708
10/09/2014  17:52:00     -199.945      271.404      -53.843       94.772       90.427       54.736     8981.642     8177.070     2996.022        6.834        1.008      337.103       47.533        0.020      346.064       24.037      859.715
10/09/2014  17:53:00     -221.613      287.017      -62.691      103.046      104.618       59.093    10618.445    10944.864     3491.940        8.023        1.253      362.617       60.330        0.028      346.051       24.017      859.730
10/09/2014  17:54:00     -136.639      178.797      -26.109       77.003       95.555       55.425     5929.401     9130.819     3071.983        3.472        0.907      225.030       55.788        0.061      346.005       23.939      859.725
10/09/2014  17:55:00     -109.684      279.303      -40.718       71.709      131.981       46.679     5142.250    17419.050     2178.910        5.822        1.237      300.068       34.140        0.013      345.930       23.808      859.720
10/09/2014  17:56:00     -126.725      141.372      -11.669       95.249      122.757       58.691     9072.314    15069.265     3444.614        3.188        1.379      189.856       43.684        0.053      345.958       23.861      859.723
10/09/2014  17:57:00     -117.591      106.921      -20.412       73.086      100.150       48.936     5341.632    10030.014     2394.691        2.172        0.888      158.933       43.667        0.075      345.996       23.926      859.742
10/09/2014  17:58:00     -191.184      216.513      -39.421      118.891       98.360       69.490    14134.977     9674.642     4828.860        5.681        1.432      288.841       72.547        0.063      345.937       23.821      859.752
10/09/2014  17:59:00     -137.283      215.217      -26.770       76.008       90.861       55.322     5777.235     8255.795     3060.481        4.148        0.855      255.274       46.050        0.033      345.881       23.725      859.750
10/09/2014  18:00:00     -171.368      175.700      -42.206       79.102      138.456       47.052     6257.181    19170.019     2213.876        4.483        1.382      245.434       40.539        0.027      345.940       23.826      859.780
10/09/2014  18:01:00     -122.068      135.279      -12.141       78.248      131.992       55.873     6122.750    17421.834     3121.773        3.000        1.333      182.211       41.044        0.051      345.874       23.714      859.808
10/09/2014  18:02:00     -118.980       73.272      -12.683       92.744       92.047       38.715     8601.489     8472.712     1498.865        1.913        0.929      139.732       14.415        0.011      345.839       23.655      859.806
10/09/2014  18:03:00     -133.252      157.301      -19.030       82.467       88.040       53.160     6800.795     7750.959     2825.962        3.012        0.869      206.154       47.936        0.054      345.764       23.526      859.820
10/09/2014  18:04:00     -210.327      187.426      -48.462      116.630      114.668       53.803    13602.668    13148.645     2894.773        5.568        1.482      281.720       71.916        0.065      345.774       23.542      859.827
10/09/2014  18:05:00     -181.614      194.170      -32.374      112.495      113.797       65.459    12655.025    12949.821     4284.875        5.081        1.494      265.868       72.692        0.075      345.744       23.490      859.847
10/09/2014  18:06:00     -209.195      198.267      -47.096       98.301       98.776       66.784     9663.109     9756.795     4460.096        5.458        1.194      288.223       71.577        0.062      345.727       23.461      859.840
10/09/2014  18:07:00     -144.155      180.828      -30.304       78.758       75.543       42.935     6202.878     5706.746     1843.412        3.407        0.688      231.256       40.584        0.031      345.667       23.359      859.855
10/09/2014  18:08:00     -158.384      239.861      -43.738      109.201       92.404       62.987    11924.903     8538.484     3967.351        5.448        1.222      287.435       59.360        0.043      345.679       23.379      859.866
10/09/2014  18:09:00     -111.133      137.126        5.072      100.779      124.315       79.597    10156.436    15454.237     6335.652        3.156        1.597      176.505       62.044        0.124      345.646       23.323      859.859
10/09/2014  18:10:00     -211.516      248.054      -34.962      121.366      121.908       74.131    14729.734    14861.446     5495.385        7.128        1.754      325.990       82.936        0.065      345.730       23.466      859.884
10/09/2014  18:11:00     -218.305       63.395      -28.837      109.325       78.451       52.717    11951.984     6154.547     2779.083        3.669        1.044      227.324       38.555        0.029      345.746       23.496      859.916
10/09/2014  18:12:00     -135.224       19.824      -23.501       56.997       64.589       41.450     3248.656     4171.717     1718.096        1.418        0.457      136.669       27.370        0.040      345.730       23.470      859.922
10/09/2014  18:13:00     -136.891       35.995      -17.800       53.895       74.417       41.013     2904.686     5537.910     1682.056        1.524        0.506      141.544       36.916        0.068      345.667       23.360      859.934
10/09/2014  18:14:00     -206.573       62.505      -32.187      155.313      104.581       51.208    24122.028    10937.131     2622.309        4.264        1.884      215.822       50.293        0.054      345.659       23.343      859.951
10/09/2014  18:15:00     -176.341       46.869      -12.183       74.846      107.891       52.098     5601.869    11640.377     2714.221        2.670        0.998      182.464       45.874        0.063      345.608       23.258      859.948
10/09/2014  18:16:00     -175.956       -4.413      -47.059       75.911      120.583       52.938     5762.484    14540.257     2802.415        2.815        1.155      176.011       37.957        0.047      345.565       23.184      859.953
10/09/2014  18:17:00     -150.368       29.982      -24.914      105.767      106.983       50.994    11186.681    11445.439     2600.366        2.468        1.262      153.328       55.602        0.132      345.530       23.124      859.977
10/09/2014  18:18:00     -245.661      -24.297      -21.142      106.792       72.939       43.621    11404.572     5320.070     1902.810        4.000        0.931      246.859       35.032        0.020      345.609       23.257      860.002
10/09/2014  18:19:00     -253.437      -57.519      -23.954       71.519       68.861       37.457     5114.924     4741.816     1403.050        3.968        0.563      259.883       24.511        0.009      345.504       23.077      860.033
10/09/2014  18:20:00     -232.313      -66.540      -14.494       55.096       63.438       31.617     3035.558     4024.412      999.605        3.333        0.403      241.654       21.067        0.008      345.501       23.073      860.052
10/09/2014  18:21:00     -164.757       -0.080       -2.561       76.846       59.750       36.131     5905.275     3570.086     1305.440        1.896        0.539      164.757       36.567        0.049      345.475       23.029      860.063
10/09/2014  18:22:00     -128.373       -8.701      -27.061       59.459       43.171       25.574     3535.313     1863.714      654.016        1.167        0.303      128.668       26.627        0.043      345.477       23.035      860.084
10/09/2014  18:23:00     -175.119      -23.392      -23.206       57.944       68.688       36.012     3357.502     4718.075     1296.895        2.056        0.469      176.674       30.339        0.029      345.493       23.060      860.083
10/09/2014  18:24:00     -167.914        9.154      -11.030       68.627       54.710       41.876     4709.659     2993.189     1753.574        1.893        0.473      168.163       38.754        0.053      345.449       22.985      860.101
10/09/2014  18:25:00     -165.187       63.363      -23.805       71.971       72.136       46.885     5179.820     5203.592     2198.215        2.222        0.629      176.922       39.593        0.050      345.450       22.986      860.115
10/09/2014  18:26:00     -154.550      -43.608       -7.004       79.638       60.127       38.729     6342.139     3615.273     1499.971        1.865        0.573      160.585       33.063        0.042      345.383       22.872      860.129
10/09/2014  18:27:00     -149.900      -65.311      -18.507       39.665       55.800       34.230     1573.303     3113.654     1171.697        1.647        0.293      163.510       22.027        0.018      345.395       22.895      860.156
10/09/2014  18:28:00     -110.365       -6.015       -5.126       66.508       52.187       38.556     4423.351     2723.450     1486.601        1.044        0.432      110.528       41.091        0.138      345.368       22.847      860.164
10/09/2014  18:29:00     -130.999      -11.888      -15.937       52.623       51.255       28.042     2769.195     2627.028      786.372        1.187        0.309      131.537       28.020        0.045      345.363       22.840      860.180
10/09/2014  18:30:00     -119.815      -54.072      -19.120       62.041       59.663       46.262     3849.114     3559.639     2140.173        1.360        0.477      131.451       33.468        0.065      345.402       22.906      860.201
10/09/2014  18:31:00      -64.324       -8.628       12.827       57.128       55.592       36.398     3263.604     3090.470     1324.838        0.603        0.384       64.900       27.877        0.184      345.370       22.851      860.213
10/09/2014  18:32:00     -147.514      110.830      -21.287       67.063       72.984       43.026     4497.490     5326.609     1851.213        2.308        0.584      184.509       43.573        0.056      345.318       22.761      860.231
10/09/2014  18:33:00     -132.774      163.459      -35.269       79.246       72.460       44.704     6279.920     5250.507     1998.429        2.956        0.676      210.589       40.155        0.036      345.239       22.623      860.252
10/09/2014  18:34:00     -108.283      142.971      -12.003       82.567       96.040       51.977     6817.346     9223.598     2701.615        2.552        0.937      179.348       63.235        0.124      345.114       22.411      860.272
10/09/2014  18:35:00      -99.356      146.369      -21.452       51.855       72.502       38.819     2688.972     5256.519     1506.922        2.060        0.473      176.905       41.325        0.055      345.056       22.313      860.281
10/09/2014  18:36:00      -72.312      136.483      -15.077       60.206       77.129       30.600     3624.754     5948.863      936.377        1.730        0.525      154.456       35.305        0.052      345.034       22.275      860.279
10/09/2014  18:37:00     -112.383       95.841      -13.501       62.119       66.975       40.903     3858.730     4485.627     1673.059        1.601        0.501      147.700       27.715        0.035      345.017       22.247      860.300
10/09/2014  18:38:00     -156.889      133.599      -16.615       83.852      101.290       56.579     7031.179    10259.684     3201.165        3.161        1.025      206.065       66.762        0.105      345.035       22.276      860.322
10/09/2014  18:39:00     -201.238      217.333      -39.794      118.995       97.549       60.044    14159.882     9515.833     3605.290        5.829        1.364      296.193       68.213        0.053      345.027       22.263      860.328
10/09/2014  18:40:00     -120.969      166.157      -24.589       53.210       74.952       41.025     2831.344     5617.740     1683.088        2.649        0.507      205.528       39.514        0.037      344.966       22.156      860.320
10/09/2014  18:41:00     -150.447      214.344      -42.146       72.510       77.615       40.078     5257.767     6024.163     1606.227        4.162        0.644      261.873       36.524        0.019      345.046       22.293      860.328
10/09/2014  18:42:00     -214.990      119.731      -35.803       72.629      108.616       36.033     5274.945    11797.433     1298.379        4.010        0.919      246.082       31.079        0.016      345.092       22.372      860.316
10/09/2014  18:43:00     -192.347      -47.047      -12.766       91.810       53.734       42.817     8429.027     2887.310     1833.261        2.626        0.657      198.017       47.070        0.057      345.049       22.299      860.324
10/09/2014  18:44:00     -133.830       42.763      -17.682      108.073       97.404       42.380    11679.717     9487.561     1796.025        2.150        1.148      140.496       38.711        0.076      344.990       22.199      860.349
10/09/2014  18:45:00      -91.393      -37.404       -9.433       61.230       57.759       30.815     3749.091     3336.117      949.536        0.894        0.402       98.751       27.479        0.077      344.953       22.137      860.362
10/09/2014  18:46:00     -103.954      -11.347       -5.477       66.248       50.465       33.256     4388.839     2546.735     1105.934        0.950        0.402      104.571       29.859        0.082      344.913       22.068      860.387
10/09/2014  18:47:00      -65.701      -14.433       -2.673       63.890       34.846       26.368     4081.981     1214.240      695.252        0.526        0.300       67.268       32.890        0.239      344.821       21.912      860.387
10/09/2014  18:48:00      -62.219       42.587      -16.000       67.053       50.183       31.595     4496.048     2518.326      998.247        0.698        0.401       75.398       37.304        0.245      344.826       21.921      860.396
10/09/2014  18:49:00      -49.342      -29.479        0.506       50.741       38.310       29.527     2574.698     1467.668      871.873        0.411        0.246       57.477       22.161        0.149      344.760       21.808      860.406
10/09/2014  18:50:00     -121.471      -32.651       -6.607       48.625       60.474       38.426     2364.355     3657.073     1476.577        1.168        0.375      125.782       23.559        0.035      344.782       21.846      860.424
10/09/2014  18:51:00     -138.699      -64.457        3.697       71.994       78.908       37.222     5183.111     6226.449     1385.480        1.810        0.640      152.945       40.744        0.071      344.656       21.628      860.445
10/09/2014  18:52:00     -280.174        3.667      -20.813      125.933       83.340       47.986    15859.115     6945.599     2302.632        5.202        1.255      280.198       55.070        0.039      344.881       22.012      860.441
10/09/2014  18:53:00     -289.891      -50.492      -25.320      105.682       63.791       42.325    11168.679     4069.278     1791.414        5.213        0.851      294.256       50.611        0.030      344.877       22.004      860.453
10/09/2014  18:54:00     -182.212       32.640      -26.159       85.171      113.686       48.028     7254.087    12924.531     2306.723        2.871        1.124      185.113       51.124        0.076      344.810       21.890      860.468
10/09/2014  18:55:00     -284.368      -19.340      -10.210      122.248      102.161       63.823    14944.692    10436.882     4073.382        5.539        1.473      285.025       68.812        0.058      344.936       22.104      860.482
10/09/2014  18:56:00     -276.383       36.306      -18.504      157.548       78.346       65.704    24821.411     6138.147     4317.031        5.666        1.764      278.757       84.334        0.092      344.927       22.090      860.501
10/09/2014  18:57:00     -181.574       18.758      -23.150       75.558       59.423       34.782     5708.947     3531.073     1209.801        2.215        0.522      182.540       33.559        0.034      344.977       22.177      860.509
10/09/2014  18:58:00     -189.537      -54.881      -16.571      106.036       61.560       36.994    11243.605     3789.622     1368.580        2.780        0.820      197.322       24.152        0.015      344.931       22.097      860.518
10/09/2014  18:59:00     -277.216     -103.229        1.765      117.119      162.512       59.286    13716.868    26410.023     3514.791        6.557        2.182      295.812       46.785        0.025      344.944       22.120      860.517
10/09/2014  19:00:00     -258.284     -107.006        3.020      121.172       96.856       66.105    14682.685     9381.177     4369.816        5.330        1.422      279.573       63.112        0.051      344.951       22.131      860.516
10/09/2014  19:01:00     -176.881      -35.506      -27.348       73.044       56.073       39.229     5335.418     3144.177     1538.880        2.166        0.501      180.410       33.519        0.035      344.885       22.020      860.543
10/09/2014  19:02:00     -207.847      -40.725       -8.167       79.103       78.737       42.471     6257.341     6199.522     1803.821        2.959        0.713      211.799       42.231        0.040      344.891       22.028      860.563
10/09/2014  19:03:00     -320.762     -102.788      -34.661      115.673       88.880       53.588    13380.291     7899.592     2871.663        6.940        1.208      336.829       42.286        0.016      344.940       22.111      860.561
10/09/2014  19:04:00     -321.858      -91.690      -18.265      135.103      103.844       61.321    18252.769    10783.619     3760.269        7.256        1.640      334.663       62.041        0.034      344.933       22.100      860.580
10/09/2014  19:05:00     -197.661      -35.376       -9.661      109.347       73.842       47.049    11956.842     5452.635     2213.584        3.002        0.981      200.801       54.210        0.073      344.831       21.924      860.579
10/09/2014  19:06:00     -235.029        5.725      -20.560       82.979       69.403       48.551     6885.500     4816.744     2357.236        3.487        0.703      235.099       44.318        0.036      344.830       21.923      860.596
10/09/2014  19:07:00     -310.739      -57.257      -27.829       91.350       85.340       44.433     8344.888     7282.980     1974.331        5.910        0.880      315.970       36.534        0.013      344.870       21.992      860.618
10/09/2014  19:08:00     -243.123      -28.461      -26.137      109.594       93.113       54.473    12010.869     8670.069     2967.288        4.212        1.182      244.783       64.593        0.070      344.867       21.987      860.621
10/09/2014  19:09:00     -214.849      -40.334      -23.659       70.139       97.625       48.727     4919.418     9530.604     2374.363        3.258        0.841      218.603       23.991        0.012      344.863       21.981      860.639
10/09/2014  19:10:00     -163.136      -56.452      -10.410       75.204       48.310       36.162     5655.590     2333.818     1307.683        1.960        0.465      172.627       35.506        0.042      344.737       21.766      860.657
10/09/2014  19:11:00     -245.683      -56.412       -9.419       93.783       71.810       38.969     8795.317     5156.712     1518.582        3.955        0.774      252.076       38.871        0.024      344.724       21.743      860.667
10/09/2014  19:12:00     -110.655        4.118        3.594       88.860       74.719       50.239     7896.061     5582.981     2523.957        1.414        0.800      110.731       56.701        0.262      344.678       21.665      860.662
10/09/2014  19:13:00     -135.393       -9.239      -17.600       83.532       71.052       42.791     6977.545     5048.329     1831.075        1.629        0.693      135.708       26.934        0.039      344.703       21.708      860.671
10/09/2014  19:14:00     -295.240       22.475      -19.192      121.366       82.958       50.344    14729.815     6882.000     2534.537        5.609        1.207      296.094       55.883        0.036      344.733       21.759      860.674
10/09/2014  19:15:00     -301.073      -92.738      -19.887      113.718      129.053       57.786    12931.747    16654.730     3339.270        6.628        1.646      315.032       42.326        0.018      344.714       21.725      860.675
10/09/2014  19:16:00     -367.860      -95.126      -28.142      153.129      113.962       65.309    23448.598    12987.349     4265.305        9.292        2.035      379.960       80.691        0.045      344.770       21.821      860.677
10/09/2014  19:17:00     -181.797     -117.492        5.054       86.337       89.719       50.476     7454.039     8049.510     2547.795        3.246        0.903      216.459       32.413        0.022      344.756       21.796      860.688
10/09/2014  19:18:00     -104.188      -38.540       11.157       85.897       62.768       32.846     7378.226     3939.866     1078.876        1.243        0.620      111.088       44.041        0.157      344.622       21.569      860.701
10/09/2014  19:19:00     -160.803      -19.977      -15.471       53.977       63.769       32.033     2913.541     4066.493     1026.100        1.725        0.400      162.039       26.512        0.027      344.620       21.567      860.709
10/09/2014  19:20:00     -200.943      -18.362      -17.488       85.556       56.559       37.136     7319.790     3198.956     1379.104        2.646        0.595      201.780       38.090        0.036      344.647       21.611      860.720
10/09/2014  19:21:00     -213.318      -28.784      -13.375       88.684       78.234       43.133     7864.798     6120.602     1860.461        3.118        0.792      215.252       39.784        0.034      344.667       21.645      860.723
10/09/2014  19:22:00     -188.477     -103.162        9.737      127.829       85.039       48.057    16340.306     7231.564     2309.439        3.607        1.294      214.863       61.677        0.082      344.569       21.477      860.737
10/09/2014  19:23:00     -244.561      -56.617      -23.073       91.435       86.893       42.756     8360.344     7550.386     1828.100        4.064        0.887      251.029       44.309        0.031      344.569       21.477      860.743
10/09/2014  19:24:00     -208.895      -23.878       -8.645      107.209       63.798       44.921    11493.696     4070.167     2017.925        3.093        0.879      210.255       54.069        0.066      344.508       21.373      860.761
10/09/2014  19:25:00     -274.196      -90.588        1.596       69.622       70.555       46.228     4847.192     4978.039     2137.054        4.768        0.598      288.772       42.593        0.022      344.528       21.406      860.779
10/09/2014  19:26:00     -205.426      -14.838       -7.302       97.676       65.378       42.159     9540.685     4274.303     1777.345        2.903        0.780      205.961       49.869        0.059      344.431       21.243      860.791
10/09/2014  19:27:00     -307.651       32.634      -26.091      141.396       83.051       68.240    19992.861     6897.402     4656.705        6.397        1.577      309.377       81.905        0.070      344.475       21.317      860.787
10/09/2014  19:28:00     -386.792       29.506      -30.335      128.931      100.182       66.548    16623.251    10036.364     4428.653        9.124        1.554      387.916       62.277        0.026      344.498       21.355      860.794
10/09/2014  19:29:00     -306.673      -67.527      -25.520      104.586      106.354       47.763    10938.145    11311.256     2281.345        6.189        1.227      314.020       41.364        0.017      344.451       21.276      860.813
10/09/2014  19:30:00     -312.301        7.448      -25.370      116.342      103.697       56.346    13535.482    10752.981     3174.870        6.284        1.373      312.390       52.070        0.028      344.411       21.207      860.819
10/09/2014  19:31:00     -340.859      -71.046      -30.365       98.947       86.774       49.707     9790.532     7529.644     2470.758        7.097        0.990      348.185       51.949        0.022      344.434       21.246      860.832
10/09/2014  19:32:00     -261.891      -42.176      -14.032      109.430       99.863       49.888    11974.934     9972.649     2488.811        4.750        1.222      265.266       51.092        0.037      344.370       21.137      860.830
10/09/2014  19:33:00     -358.847     -112.799      -10.937      150.841      120.047       67.171    22752.988    14411.285     4511.892        9.164        2.084      376.158       84.374        0.050      344.395       21.181      860.830
10/09/2014  19:34:00     -372.119      -82.526      -19.794      168.272      123.239       68.728    28315.468    15187.837     4723.500        9.694        2.411      381.160       79.904        0.044      344.391       21.173      860.852
10/09/2014  19:35:00     -280.991      -87.337       -4.404      127.073      118.003       69.442    16147.449    13924.604     4822.252        6.074        1.745      294.251       71.217        0.059      344.369       21.136      860.848
10/09/2014  19:36:00     -324.134        2.916      -18.838      180.792       98.258       60.591    32685.605     9654.595     3671.325        7.571        2.301      324.147       62.223        0.037      344.344       21.093      860.872
10/09/2014  19:37:00     -409.483      -30.408      -12.323      176.127      136.787       73.015    31020.692    18710.783     5331.213       11.190        2.753      410.610       82.066        0.040      344.341       21.088      860.883
10/09/2014  19:38:00     -237.947      -24.463        6.632      152.094      123.268       59.108    23132.614    15195.004     3493.732        4.953        2.091      239.202       67.092        0.079      344.293       21.007      860.912
10/09/2014  19:39:00     -329.822      -53.552       -8.802      166.150      154.898       68.715    27605.970    23993.272     4721.704        8.402        2.816      334.142       70.100        0.044      344.318       21.049      860.918
10/09/2014  19:40:00     -263.463      -34.762        0.937      132.534      102.196       66.496    17565.173    10444.090     4421.778        5.152        1.622      265.747       64.075        0.058      344.335       21.077      860.941
10/09/2014  19:41:00     -272.331      -58.319      -12.721      195.085      101.144       62.973    38058.030    10230.102     3965.545        6.498        2.613      278.505       67.517        0.059      344.315       21.043      860.935
10/09/2014  19:42:00     -262.880      -61.886       10.288      199.730      177.198      101.034    39891.975    31399.129    10207.932        7.726        4.075      270.066      108.341        0.161      344.364       21.128      860.938
10/09/2014  19:43:00     -315.095      -51.591        0.809      197.186      147.371       93.440    38882.301    21718.246     8731.003        8.563        3.467      319.290       91.627        0.082      344.386       21.166      860.940
10/09/2014  19:44:00     -322.848     -102.729       -4.234      131.958      116.835       60.810    17412.866    13650.376     3697.824        7.478        1.738      338.798       57.933        0.029      344.398       21.185      860.959
10/09/2014  19:45:00     -350.892      -61.967      -20.382      172.049      185.243       75.259    29600.941    34314.882     5663.898        9.847        3.479      356.322       77.318        0.047      344.360       21.120      860.966
10/09/2014  19:46:00     -405.475     -116.368      -22.692      170.405      109.410       71.256    29037.703    11970.549     5077.363       11.227        2.304      421.843       79.039        0.035      344.317       21.045      860.982
10/09/2014  19:47:00     -300.790        1.579      -35.681       81.233       86.138       42.153     6598.782     7419.705     1776.877        5.377        0.790      300.794       25.151        0.007      344.254       20.939      860.988
10/09/2014  19:48:00     -293.648      -98.626      -15.383      129.648      112.543       53.465    16808.642    12665.970     2858.533        6.426        1.617      309.768       51.383        0.028      344.225       20.889      861.005
10/09/2014  19:49:00     -352.275      -96.126       -8.902      154.676      137.698       73.087    23924.817    18960.786     5341.766        9.081        2.411      365.155       80.601        0.049      344.259       20.949      860.998
10/09/2014  19:50:00     -197.971      -43.714       -3.340      130.055       98.668       60.052    16914.392     9735.326     3606.257        3.568        1.513      202.740       61.994        0.094      344.175       20.804      861.006
10/09/2014  19:51:00     -279.251        5.203      -23.194      145.052       93.994       58.237    21040.040     8834.911     3391.517        5.590        1.663      279.299       59.643        0.046      344.189       20.827      861.032
10/09/2014  19:52:00     -265.816      -54.319      -11.714       86.044      100.176       54.177     7403.533    10035.214     2935.163        4.706        1.019      271.310       49.325        0.033      344.165       20.786      861.054
10/09/2014  19:53:00     -288.419      -24.908        0.494      185.310      117.503       68.845    34339.674    13806.948     4739.593        6.834        2.644      289.493       79.223        0.075      344.167       20.792      861.060
10/09/2014  19:54:00     -155.097      -65.413       28.353      186.704      112.261       74.430    34858.287    12602.583     5539.844        4.106        2.650      168.327       89.868        0.285      344.148       20.761      861.069
10/09/2014  19:55:00     -378.239      -93.844      -15.974      130.952      122.575       70.340    17148.403    15024.710     4947.728        9.462        1.856      389.707       67.493        0.030      344.208       20.861      861.080
10/09/2014  19:56:00     -329.317      -47.493      -27.470      211.202      103.668       81.737    44606.127    10747.025     6680.976        8.674        3.102      332.724      101.274        0.093      344.197       20.843      861.090
10/09/2014  19:57:00     -253.993      -61.632      -19.096      197.191      110.158       61.486    38884.344    12134.756     3780.495        6.173        2.740      261.363       52.748        0.041      344.192       20.835      861.102
10/09/2014  19:58:00     -148.314      -43.981       19.674      183.056       99.861       88.853    33509.449     9972.133     7894.826        3.784        2.569      154.698      102.740        0.441      344.137       20.741      861.096
10/09/2014  19:59:00     -416.127      -75.181      -24.131      128.508      135.030       49.177    16514.423    18232.970     2418.366       10.827        1.858      422.864       50.951        0.015      344.211       20.866      861.119
10/09/2014  20:00:00     -146.751      -71.593       11.383      155.967      127.797       60.963    24325.641    16332.084     3716.524        3.558        2.219      163.284       54.158        0.110      344.172       20.799      861.112
10/09/2014  20:01:00     -225.516      -72.093      -16.163      119.965      111.304       74.131    14391.606    12388.587     5495.339        4.429        1.614      236.759       66.991        0.080      344.146       20.756      861.132
10/09/2014  20:02:00     -201.277      -57.575       -1.369      157.620      106.669       60.463    24844.141    11378.286     3655.833        4.185        1.994      209.350       64.614        0.095      344.106       20.686      861.140
10/09/2014  20:03:00     -355.082      -51.585      -24.209      130.740      111.963       58.688    17093.032    12535.631     3444.247        8.120        1.654      358.810       62.982        0.031      344.109       20.691      861.175
10/09/2014  20:04:00     -313.026      -26.392      -11.107      151.729      111.750       58.526    23021.658    12488.035     3425.307        6.886        1.947      314.136       59.541        0.036      344.071       20.627      861.183
10/09/2014  20:05:00     -359.568      -84.010       -9.733      132.308      103.518       66.901    17505.334    10715.971     4475.777        8.456        1.635      369.252       66.081        0.032      344.101       20.679      861.180
10/09/2014  20:06:00     -205.610        9.804        3.284      159.614      101.376       61.755    25476.669    10277.158     3813.623        4.097        1.978      205.844       74.974        0.133      344.012       20.526      861.182
10/09/2014  20:07:00     -234.096      -24.789       -9.228      131.142       94.081       62.264    17198.343     8851.173     3876.811        4.271        1.496      235.405       72.175        0.094      343.998       20.503      861.204
10/09/2014  20:08:00     -229.762      -47.415       -3.865      100.461       73.541       48.466    10092.504     5408.318     2348.982        3.645        0.892      234.604       43.681        0.035      344.016       20.533      861.193
10/09/2014  20:09:00     -250.693      -44.557       -0.579      162.267       99.652       57.260    26330.720     9930.522     3278.666        5.218        1.977      254.622       64.201        0.064      344.020       20.542      861.193
10/09/2014  20:10:00     -241.145      -10.912      -13.494      177.483      126.914       58.470    31500.182    16107.169     3418.759        5.473        2.551      241.392       73.925        0.094      344.023       20.546      861.181
10/09/2014  20:11:00     -244.183      -55.124       -1.215      134.480       94.824       61.540    18084.823     8991.614     3787.226        4.676        1.543      250.328       62.954        0.063      343.971       20.456      861.173
10/09/2014  20:12:00     -157.858      -47.878        2.288       90.157       79.387       38.503     8128.366     6302.344     1482.477        2.156        0.796      164.958       34.813        0.045      343.960       20.438      861.187
10/09/2014  20:13:00     -319.011     -101.419      -20.008      157.076       92.312       61.271    24672.953     8521.500     3754.162        7.470        1.847      334.744       67.240        0.040      343.978       20.469      861.181
10/09/2014  20:14:00     -253.580     -100.721       -5.179      138.847       94.992       57.985    19278.489     9023.481     3362.229        5.306        1.583      272.851       55.998        0.042      343.954       20.427      861.187
10/09/2014  20:15:00     -167.216      -63.268       -3.003      111.061      124.232       49.000    12334.545    15433.685     2401.008        3.107        1.508      178.784       53.958        0.091      343.967       20.449      861.209
10/09/2014  20:16:00     -276.606       25.664      -18.630      113.492      109.549       70.637    12880.464    12000.915     4989.654        5.369        1.494      277.794       52.037        0.035      343.975       20.462      861.222
10/09/2014  20:17:00     -143.728      -31.638       18.384      137.854      120.225       62.411    19003.710    14454.151     3895.148        2.967        1.868      147.169       69.570        0.223      343.915       20.361      861.234
10/09/2014  20:18:00     -272.082      -79.101       -5.257      139.416      117.665       60.503    19436.744    13844.944     3660.620        5.862        1.847      283.348       62.590        0.049      343.952       20.423      861.252
10/09/2014  20:19:00     -322.719       -7.207      -11.028      184.687       96.528       82.709    34109.141     9317.663     6840.834        7.729        2.513      322.799       91.651        0.081      343.944       20.409      861.252
10/09/2014  20:20:00     -160.527      -44.215       33.152      143.816      119.905       75.836    20682.989    14377.155     5751.124        3.481        2.041      166.505       88.909        0.285      343.905       20.344      861.285
10/09/2014  20:21:00     -253.723      -52.964       12.969      181.563      157.890       79.698    32964.961    24929.219     6351.789        6.579        3.212      259.192       97.789        0.142      343.941       20.405      861.290
10/09/2014  20:22:00     -297.698      -52.344      -12.463      111.334       85.739       60.928    12395.307     7351.099     3712.265        5.749        1.173      302.265       55.941        0.034      343.898       20.330      861.304
10/09/2014  20:23:00     -354.477        0.347      -32.250      134.320       81.618       51.350    18041.993     6661.468     2636.785        7.701        1.367      354.477       57.163        0.026      343.872       20.287      861.323
10/09/2014  20:24:00     -328.827      -19.944      -26.127      108.293      121.012       48.043    11727.325    14643.935     2308.084        6.894        1.434      329.431       31.917        0.009      343.850       20.249      861.332
10/09/2014  20:25:00     -304.523      -22.355      -20.881      160.027       91.628       66.906    25608.728     8395.614     4476.419        6.607        1.924      305.343       75.588        0.061      343.811       20.183      861.348
10/09/2014  20:26:00     -331.939      -61.504      -27.931      125.509      105.520       52.634    15752.575    11134.502     2770.301        7.220        1.483      337.589       50.132        0.022      343.835       20.222      861.361
10/09/2014  20:27:00     -181.956      -77.098        2.575       69.455      107.348       42.375     4823.992    11523.596     1795.671        2.860        0.907      197.615       25.171        0.016      343.770       20.114      861.359
10/09/2014  20:28:00     -281.539      -14.890      -16.336      170.685       98.675       68.018    29133.253     9736.688     4626.439        6.162        2.175      281.932       85.916        0.093      343.778       20.127      861.361
10/09/2014  20:29:00     -284.014      -47.400      -19.930      120.526       84.973       52.445    14526.628     7220.445     2750.479        5.390        1.225      287.943       47.674        0.027      343.750       20.077      861.361
10/09/2014  20:30:00     -170.752      -12.482      -11.429       74.260       87.777       49.402     5514.534     7704.785     2440.568        2.255        0.783      171.207       37.729        0.049      343.696       19.988      861.368
10/09/2014  20:31:00     -223.768        2.598      -18.085      100.547       82.627       53.217    10109.614     6827.246     2831.996        3.508        0.988      223.783       49.576        0.049      343.736       20.055      861.378
10/09/2014  20:32:00     -261.229      -39.507       -8.016      145.646       82.696       55.866    21212.670     6838.601     3120.960        5.051        1.559      264.200       63.538        0.058      343.683       19.963      861.373
10/09/2014  20:33:00     -332.905      -49.626      -21.416      163.353      140.155       64.777    26684.248    19643.298     4196.067        8.213        2.526      336.583       72.158        0.046      343.750       20.078      861.383
10/09/2014  20:34:00     -301.209      -77.461       -3.310      146.300       93.547       54.179    21403.640     8751.095     2935.323        6.491        1.655      311.010       58.448        0.035      343.747       20.073      861.388
10/09/2014  20:35:00     -275.592      -76.564      -16.099      126.288       99.297       69.326    15948.713     9859.966     4806.080        5.634        1.531      286.029       69.245        0.059      343.746       20.071      861.385
10/09/2014  20:36:00     -325.051      -13.696      -41.319       90.268      101.803       46.900     8148.391    10363.929     2199.588        6.413        1.036      325.340       32.479        0.010      343.751       20.078      861.392
10/09/2014  20:37:00     -370.297       12.878      -25.740      107.623       80.967       55.194    11582.760     6555.650     3046.417        7.956        1.059      370.521       52.063        0.020      343.723       20.032      861.394
10/09/2014  20:38:00     -316.739      -89.244      -21.661       96.697      128.894       62.559     9350.324    16613.548     3913.612        6.931        1.494      329.071       54.442        0.027      343.706       20.002      861.399
10/09/2014  20:39:00     -249.054      -92.698       -2.071      109.765       94.234       52.758    12048.332     8879.973     2783.360        4.716        1.186      265.746       53.962        0.041      343.652       19.911      861.431
10/09/2014  20:40:00     -240.350      -27.426      -17.994      119.472       89.347       56.378    14273.445     7982.807     3178.437        4.214        1.272      241.910       66.450        0.075      343.647       19.903      861.443
10/09/2014  20:41:00     -316.680      -49.446       -9.221      127.756      118.361       58.710    16321.501    14009.428     3446.809        6.829        1.689      320.517       53.858        0.028      343.649       19.904      861.450
10/09/2014  20:42:00     -322.034      -93.033      -26.325      124.446       94.090       61.917    15486.747     8853.015     3833.696        7.061        1.409      335.203       59.605        0.032      343.675       19.950      861.466
10/09/2014  20:43:00     -279.319      -21.250      -26.928      104.679       99.060       58.580    10957.644     9812.966     3431.615        5.169        1.210      280.126       53.008        0.036      343.665       19.932      861.460
10/09/2014  20:44:00     -374.545     -128.159      -35.803       91.189       76.276       53.115     8315.471     5818.100     2821.179        8.747        0.848      395.864       48.217        0.015      343.616       19.850      861.485
10/09/2014  20:45:00     -267.445      -79.039      -11.665       98.095       88.322       58.025     9622.552     7800.708     3366.931        4.935        1.040      278.880       52.669        0.036      343.581       19.790      861.512
10/09/2014  20:46:00     -264.295     -135.900      -13.019       95.836      108.189       58.896     9184.499    11704.859     3468.787        5.642        1.218      297.187       45.218        0.023      343.564       19.761      861.516
10/09/2014  20:47:00     -237.027      -51.774      -11.201      121.986       78.682       52.974    14880.586     6190.823     2806.196        4.143        1.194      242.616       59.756        0.061      343.593       19.812      861.523
10/09/2014  20:48:00     -215.041      -58.054       -8.555       66.218       64.519       44.789     4384.828     4162.693     2006.083        3.012        0.528      222.740       33.992        0.023      343.556       19.747      861.530
10/09/2014  20:49:00     -221.958      -23.694      -35.220      168.520       83.182       52.142    28398.838     6919.242     2718.776        4.455        1.902      223.219       63.680        0.081      343.590       19.807      861.516
10/09/2014  20:50:00     -243.455      -68.784      -24.002       77.593       95.743       45.398     6020.608     9166.751     2060.947        4.091        0.862      252.985       29.612        0.014      343.546       19.730      861.514
10/09/2014  20:51:00     -408.378      -83.438      -26.953      138.675      102.732       55.774    19230.664    10553.816     3110.690       10.367        1.645      416.815       56.480        0.018      343.557       19.749      861.541
10/09/2014  20:52:00     -290.127     -102.387      -26.443      112.141       93.137       54.470    12575.533     8674.557     2966.992        5.978        1.211      307.664       52.672        0.029      343.515       19.679      861.539
10/09/2014  20:53:00     -270.802     -101.735      -16.113      107.571       93.450       59.937    11571.578     8732.965     3592.494        5.392        1.195      289.282       43.566        0.023      343.491       19.637      861.549
10/09/2014  20:54:00     -207.847      -32.551      -12.043      137.822      102.336       63.491    18994.985    10472.658     4031.125        3.895        1.675      210.380       62.394        0.088      343.518       19.683      861.569
10/09/2014  20:55:00     -283.603     -125.870      -20.508       95.226       76.772       57.234     9067.980     5893.918     3275.728        5.746        0.912      310.280       55.014        0.031      343.551       19.738      861.578
10/09/2014  20:56:00     -285.128        2.018      -23.950       96.583       96.675       49.222     9328.184     9346.149     2422.771        5.148        1.055      285.135       41.563        0.021      343.558       19.752      861.595
10/09/2014  20:57:00     -257.339      -55.134      -42.231      102.347       77.157       54.102    10474.983     5953.193     2927.034        4.520        0.968      263.179       40.023        0.023      343.562       19.757      861.601
10/09/2014  20:58:00     -157.821      -14.342       -6.452      100.648       67.191       51.738    10129.981     4514.590     2676.815        2.124        0.866      158.471       48.731        0.095      343.525       19.696      861.593
10/09/2014  20:59:00     -314.292      -32.840      -26.825      105.177       82.781       39.301    11062.201     6852.668     1544.602        6.002        0.973      316.003       38.613        0.015      343.538       19.716      861.621
10/09/2014  21:00:00     -375.679       13.563      -19.700      116.462      122.204       62.387    13563.377    14933.709     3892.113        8.704        1.619      375.924       60.196        0.026      343.541       19.723      861.648
10/09/2014  21:01:00     -271.675       36.752      -24.739       99.928       91.811       48.099     9985.523     8429.213     2313.491        4.825        1.036      274.150       46.099        0.028      343.544       19.726      861.632
10/09/2014  21:02:00     -164.010      -80.436      -15.763       76.930       51.391       30.863     5918.295     2641.066      952.506        2.156        0.476      182.673       23.680        0.017      343.526       19.697      861.637
10/09/2014  21:03:00     -159.137      -25.421      -19.385      140.271       53.873       41.926    19676.024     2902.350     1757.811        2.534        1.217      161.154       43.234        0.072      343.455       19.578      861.647
10/09/2014  21:04:00     -291.992      -16.308      -41.468      108.777       78.078       46.121    11832.396     6096.194     2127.123        5.365        1.003      292.447       50.754        0.030      343.453       19.571      861.663
10/09/2014  21:05:00     -294.921      -34.093      -15.662      109.804       79.883       44.474    12056.934     6381.351     1977.934        5.440        1.021      296.885       49.430        0.028      343.407       19.494      861.678
10/09/2014  21:06:00     -282.167      -78.530      -15.345      163.984      131.152       76.454    26890.625    17200.940     5845.161        6.797        2.497      292.891       85.059        0.084      343.423       19.522      861.684
10/09/2014  21:07:00     -225.213      -93.804      -20.611      100.161       92.969       47.329    10032.276     8643.280     2240.052        4.043        1.046      243.968       44.136        0.033      343.404       19.490      861.701
10/09/2014  21:08:00     -330.202      -65.682      -15.084      120.660       80.989       65.321    14558.879     6559.294     4266.781        6.948        1.269      336.671       65.626        0.038      343.480       19.618      861.718
10/09/2014  21:09:00     -258.877      -21.336      -15.461       94.658       66.516       41.083     8960.167     4424.345     1687.775        4.139        0.754      259.755       31.890        0.015      343.487       19.630      861.725
10/09/2014  21:10:00     -188.536      -16.249      -14.547       72.001       74.434       38.475     5184.124     5540.392     1480.358        2.411        0.610      189.235       29.206        0.024      343.466       19.597      861.704
10/09/2014  21:11:00     -231.471       20.237      -10.997       87.925      101.377       41.569     7730.782    10277.288     1727.943        3.692        0.987      232.354       28.310        0.015      343.472       19.605      861.693
10/09/2014  21:12:00     -169.326        2.461      -18.222      113.516      101.385       44.050    12885.993    10278.944     1940.370        2.705        1.255      169.344       47.546        0.079      343.415       19.508      861.705
10/09/2014  21:13:00     -202.590      -35.595      -10.933       82.099       52.171       35.002     6740.269     2721.822     1225.124        2.656        0.534      205.694       22.154        0.012      343.351       19.400      861.702
10/09/2014  21:14:00     -350.340      -29.275      -29.814       89.653      115.000       52.961     8037.681    13224.932     2804.895        7.427        1.203      351.561       44.426        0.016      343.414       19.507      861.712
10/09/2014  21:15:00     -269.224      -34.433      -18.536      112.668      118.633       53.514    12694.072    14073.779     2863.732        5.182        1.482      271.417       54.607        0.040      343.390       19.464      861.707
10/09/2014  21:16:00     -328.526        7.966      -21.816      103.451       91.722       50.367    10702.006     8412.983     2536.839        6.506        1.083      328.622       42.580        0.017      343.466       19.593      861.721
10/09/2014  21:17:00     -294.355      -80.417      -27.337      152.252       88.337       52.368    23180.574     7803.425     2742.364        6.379        1.686      305.142       75.831        0.062      343.482       19.622      861.725
10/09/2014  21:18:00     -258.685     -107.650      -20.874      102.393       80.829       51.786    10484.378     6533.328     2681.789        4.932        0.985      280.190       38.385        0.019      343.435       19.542      861.724
10/09/2014  21:19:00     -336.781     -123.417      -25.572      157.255      115.010       65.999    24729.140    13227.300     4355.878        8.580        2.116      358.683       79.259        0.049      343.434       19.539      861.723
10/09/2014  21:20:00     -251.432      -82.711       -9.286      138.607       89.831       62.254    19212.021     8069.614     3875.536        5.065        1.558      264.687       65.655        0.062      343.470       19.600      861.723
10/09/2014  21:21:00     -330.296      -88.904      -34.534      109.317      159.488       68.181    11950.131    25436.555     4648.604        8.011        2.102      342.051       50.643        0.022      343.450       19.567      861.731
10/09/2014  21:22:00     -344.413      -78.966       -3.388      186.972      114.872       74.593    34958.511    13195.516     5564.184        8.928        2.686      353.350       86.080        0.059      343.460       19.584      861.725
10/09/2014  21:23:00     -339.808      -73.300       -9.151      144.511      111.861       59.483    20883.460    12512.820     3538.196        7.892        1.847      347.623       57.878        0.028      343.482       19.622      861.734
10/09/2014  21:24:00     -287.859      -41.719       -9.399      150.930      131.774       69.139    22779.858    17364.488     4780.210        6.480        2.246      290.866       68.357        0.055      343.470       19.602      861.720
10/09/2014  21:25:00     -349.447     -112.198      -11.915      156.916       96.265       61.602    24622.515     9267.011     3794.865        8.626        1.884      367.018       53.570        0.021      343.443       19.556      861.732
10/09/2014  21:26:00     -371.953      -98.339      -18.365      156.360      122.811       64.909    24448.456    15082.438     4213.156        9.604        2.187      384.733       72.214        0.035      343.448       19.562      861.739
10/09/2014  21:27:00     -365.825      -47.353      -18.193      147.451       99.218       65.709    21741.653     9844.147     4317.618        8.615        1.795      368.877       76.054        0.043      343.430       19.534      861.725
10/09/2014  21:28:00     -363.927      -31.537      -17.976      182.458      126.410       61.190    33290.965    15979.392     3744.227        9.338        2.651      365.291       65.962        0.033      343.415       19.508      861.721
10/09/2014  21:29:00     -367.298      -49.753      -17.832      179.770      139.694       77.583    32317.329    19514.281     6019.047        9.777        2.893      370.653       89.081        0.058      343.394       19.471      861.703
10/09/2014  21:30:00     -254.020      -68.518      -10.194      163.986      117.907       69.792    26891.446    13902.050     4870.890        5.749        2.283      263.099       85.937        0.107      343.419       19.514      861.699
10/09/2014  21:31:00     -312.063      -50.007       -2.028      219.479      127.258       87.806    48171.066    16194.718     7709.858        8.597        3.604      316.044      114.051        0.130      343.441       19.552      861.704
10/09/2014  21:32:00     -315.644      -87.460      -11.342      184.484      185.502       78.905    34034.518    34410.945     6225.929        9.103        3.734      327.537       90.220        0.076      343.434       19.539      861.710
10/09/2014  21:33:00     -409.937       30.186      -34.405      143.862      142.780       64.905    20696.316    20386.017     4212.718       10.771        2.265      411.047       72.377        0.031      343.453       19.571      861.727
10/09/2014  21:34:00     -450.241      -24.563      -35.911      145.020      148.551       66.034    21030.849    22067.308     4360.548       12.603        2.373      450.910       73.463        0.027      343.460       19.584      861.734
10/09/2014  21:35:00     -344.541      -71.908      -11.071      179.004       98.658       59.491    32042.567     9733.467     3539.152        8.465        2.266      351.965       68.216        0.038      343.371       19.433      861.738
10/09/2014  21:36:00     -418.699      -56.978      -24.443      172.228      156.910       74.983    29662.514    24620.808     5622.453       11.952        2.995      422.558       85.676        0.041      343.387       19.459      861.752
10/09/2014  21:37:00     -309.117      -66.328       -3.555      181.748      144.477       88.282    33032.436    20873.607     7793.717        8.082        3.085      316.153       97.010        0.094      343.360       19.413      861.773
10/09/2014  21:38:00     -486.345      -39.210      -39.645      140.338      117.660       72.303    19694.714    13843.831     5227.761       13.920        1.938      487.923       58.793        0.015      343.445       19.557      861.780
10/09/2014  21:39:00     -383.699      -82.289      -21.413      128.095       99.618       66.017    16408.212     9923.705     4358.240        9.257        1.535      392.424       58.282        0.022      343.387       19.459      861.774
10/09/2014  21:40:00     -480.777      -72.428      -19.901      170.383      122.302       66.602    29030.219    14957.893     4435.780       14.260        2.421      486.202       59.798        0.015      343.434       19.540      861.764
10/09/2014  21:41:00     -388.746     -124.849      -19.316      192.857      120.544       67.671    37193.661    14530.948     4579.416       11.168        2.815      408.302       60.384        0.022      343.441       19.552      861.775
10/09/2014  21:42:00     -353.560      -19.015       -8.528      165.207      144.378       65.337    27293.445    20844.980     4268.938        8.891        2.620      354.071       75.242        0.045      343.433       19.539      861.785
10/09/2014  21:43:00     -308.290      -49.361       -1.187      167.053      116.193       78.518    27906.807    13500.923     6165.151        7.252        2.379      312.217       84.232        0.073      343.363       19.420      861.789
10/09/2014  21:44:00     -363.000      -63.091       -8.635      120.157      124.681       63.490    14437.799    15545.268     4030.988        8.491        1.701      368.442       60.860        0.027      343.367       19.423      861.795
10/09/2014  21:45:00     -389.085      -30.214      -34.343      140.460      118.878       68.463    19729.082    14131.918     4687.136        9.601        1.927      390.257       64.771        0.028      343.372       19.434      861.789
10/09/2014  21:46:00     -440.099      -32.183      -32.025      156.536       96.471       68.835    24503.529     9306.732     4738.310       11.714        1.927      441.274       73.097        0.027      343.359       19.411      861.784
10/09/2014  21:47:00     -440.577       11.371      -31.088      185.238      135.691       70.842    34313.221    18412.054     5018.539       12.646        2.887      440.723       77.239        0.031      343.387       19.462      861.792
10/09/2014  21:48:00     -378.680      -48.496      -22.130      175.002      102.279       60.145    30625.789    10461.004     3617.375        9.546        2.235      381.772       72.327        0.036      343.363       19.419      861.802
10/09/2014  21:49:00     -394.823     -121.208       -7.376      190.869      134.345       77.696    36431.159    18048.631     6036.635       11.556        3.026      413.009       89.915        0.047      343.367       19.425      861.790
10/09/2014  21:50:00     -334.504      -52.689      -21.466      120.476      111.235       63.369    14514.472    12373.294     4015.634        7.301        1.545      338.628       61.054        0.033      343.364       19.422      861.802
10/09/2014  21:51:00     -269.827      -27.146      -10.093      116.834       80.359       59.612    13650.270     6457.489     3553.589        4.865        1.183      271.189       57.791        0.045      343.319       19.344      861.801
10/09/2014  21:52:00     -261.732      -67.658       -0.553      155.098      112.770       61.664    24055.518    12717.106     3802.422        5.682        2.029      270.336       59.117        0.048      343.335       19.371      861.796
10/09/2014  21:53:00     -286.293      -87.522       -7.982      124.879       79.436       52.930    15594.660     6310.135     2801.614        5.719        1.235      299.372       48.617        0.026      343.370       19.429      861.790
10/09/2014  21:54:00     -298.398      -81.911      -19.204      117.204       94.391       53.729    13736.812     8909.634     2886.806        6.082        1.277      309.436       52.242        0.029      343.340       19.379      861.799
10/09/2014  21:55:00     -234.026      -23.292      -10.265      148.644      104.077       68.365    22095.163    10832.048     4673.786        4.650        1.880      235.183       70.167        0.089      343.271       19.262      861.810
10/09/2014  21:56:00     -317.669        2.569      -16.652      151.201       85.867       69.767    22861.792     7373.105     4867.488        6.814        1.755      317.679       76.852        0.059      343.311       19.330      861.806
10/09/2014  21:57:00     -329.228      -84.360      -22.640       97.770       72.925       54.752     9558.945     5318.100     2997.772        6.694        0.894      339.864       50.087        0.022      343.290       19.294      861.802
10/09/2014  21:58:00     -254.962      -15.666      -10.785      124.938       91.548       57.399    15609.483     8381.017     3294.646        4.632        1.364      255.443       55.265        0.047      343.262       19.247      861.808
10/09/2014  21:59:00     -236.632      -28.815      -10.922      100.859       85.692       42.711    10172.612     7343.143     1824.193        3.814        0.967      238.380       45.538        0.036      343.244       19.216      861.825
10/09/2014  22:00:00     -287.205      -43.222      -16.009      119.219       87.586       60.137    14213.222     7671.223     3616.411        5.505        1.275      290.439       49.902        0.030      343.249       19.223      861.821
10/09/2014  22:01:00     -308.629      -41.782      -20.451      134.127       83.925       57.939    17989.966     7043.399     3356.876        6.290        1.420      311.444       64.482        0.043      343.258       19.239      861.817
10/09/2014  22:02:00     -217.845     -109.574       -5.978       87.250       76.471       57.876     7612.505     5847.882     3349.590        3.815        0.840      243.850       46.650        0.037      343.197       19.136      861.810
10/09/2014  22:03:00     -245.464      -47.483        8.008      140.882      126.231       54.725    19847.613    15934.246     2994.826        5.067        1.939      250.014       58.039        0.054      343.160       19.072      861.814
10/09/2014  22:04:00     -308.499      -47.743       -8.821      117.915       83.396       49.705    13903.914     6954.841     2470.570        6.043        1.166      312.172       58.287        0.035      343.200       19.140      861.823
10/09/2014  22:05:00     -214.728      -49.281       -7.291      138.234       69.098       52.923    19108.686     4774.598     2800.863        3.763        1.334      220.310       72.590        0.109      343.148       19.053      861.814
10/09/2014  22:06:00     -131.815      -72.992       -2.938       71.492       75.935       44.273     5111.148     5766.095     1960.135        1.777        0.642      150.676       19.651        0.017      343.116       19.000      861.809
10/09/2014  22:07:00     -158.903      -26.892       -6.664       61.710       47.243       38.055     3808.104     2231.921     1448.176        1.675        0.374      161.162       39.419        0.060      343.087       18.949      861.804
10/09/2014  22:08:00     -137.271        7.032      -11.314       46.422       32.614       25.735     2155.019     1063.673      662.301        1.145        0.194      137.451       15.632        0.013      343.044       18.879      861.810
10/09/2014  22:09:00     -143.325      -30.964        0.276       68.034       88.785       47.793     4628.611     7882.815     2284.143        1.815        0.740      146.632       44.712        0.093      343.041       18.872      861.825
10/09/2014  22:10:00     -166.752      -44.302        1.914       66.907       90.175       48.231     4476.499     8131.579     2326.185        2.235        0.747      172.536       42.137        0.060      343.036       18.864      861.843
10/09/2014  22:11:00     -150.860      -30.423        4.531      101.553       66.052       43.132    10313.012     4362.844     1860.379        2.012        0.827      153.897       50.330        0.107      342.984       18.773      861.845
10/09/2014  22:12:00     -227.230      -59.643       -3.775      116.005       69.754       39.329    13457.157     4865.559     1546.761        3.753        0.993      234.927       44.247        0.035      343.072       18.924      861.852
10/09/2014  22:13:00     -269.555      -47.439        2.103      129.312       78.335       56.244    16721.560     6136.421     3163.354        5.046        1.301      273.698       65.936        0.058      343.102       18.975      861.860
10/09/2014  22:14:00     -262.033      -20.693      -16.535      102.646       86.110       51.510    10536.262     7414.872     2653.229        4.498        1.030      262.849       53.242        0.041      343.121       19.006      861.861
10/09/2014  22:15:00     -229.139      -58.839       -8.910      110.555       69.101       48.486    12222.512     4774.983     2350.870        3.769        0.967      236.573       48.953        0.043      343.121       19.007      861.872
10/09/2014  22:16:00     -180.772      -49.152      -10.187       92.270       61.255       42.825     8513.670     3752.153     1833.974        2.465        0.705      187.335       47.920        0.065      343.142       19.042      861.871
10/09/2014  22:17:00     -145.187      -64.155       -2.147       81.368       54.455       35.898     6620.812     2965.310     1288.663        1.804        0.544      158.729       40.559        0.065      343.060       18.904      861.871
10/09/2014  22:18:00     -135.965      -22.968        2.084       84.933       72.715       46.955     7213.578     5287.499     2204.779        1.686        0.735      137.892       38.566        0.078      343.016       18.830      861.868
10/09/2014  22:19:00     -269.290      -72.394      -23.202       96.955      104.305       46.469     9400.272    10879.501     2159.414        5.036        1.122      278.851       45.892        0.027      343.143       19.042      861.877
10/09/2014  22:20:00     -128.930      -29.443       11.309       92.838       69.747       46.424     8618.874     4864.608     2155.166        1.663        0.782      132.249       55.980        0.179      343.060       18.905      861.878
10/09/2014  22:21:00     -191.835       -5.242      -13.909       78.418       63.481       46.024     6149.396     4029.803     2118.200        2.466        0.615      191.907       36.609        0.036      343.210       19.158      861.898
10/09/2014  22:22:00     -172.661      -52.247        4.787       92.759       69.826       42.003     8604.269     4875.652     1764.285        2.390        0.762      180.393       47.410        0.069      343.112       18.992      861.905
10/09/2014  22:23:00     -141.828      -29.181        8.041       71.389       77.408       40.012     5096.412     5991.941     1600.935        1.686        0.634      144.799       36.055        0.062      343.031       18.855      861.909
10/09/2014  22:24:00     -197.546      -37.173       -8.934       85.584       81.269       41.544     7324.688     6604.595     1725.902        2.807        0.783      201.013       41.852        0.043      343.088       18.951      861.926
10/09/2014  22:25:00     -209.340      -64.087      -10.548       60.991       60.485       34.795     3719.854     3658.468     1210.684        2.831        0.429      218.930       26.414        0.015      343.155       19.064      861.947
10/09/2014  22:26:00     -120.283      -30.858       -6.743       61.503       51.533       35.383     3782.599     2655.678     1251.984        1.158        0.385      124.178       21.616        0.030      343.116       19.001      861.967
10/09/2014  22:27:00     -119.231      -18.525      -12.225       55.040       45.480       26.219     3029.348     2068.425      687.450        1.025        0.289      120.661       24.219        0.040      343.164       19.083      861.992
10/09/2014  22:28:00     -109.618      -28.033       -3.680       37.910       31.729       20.865     1437.166     1006.760      435.330        0.785        0.144      113.146       13.857        0.015      343.176       19.104      862.021
10/09/2014  22:29:00      -43.812        4.955        2.961       49.729       35.572       24.417     2472.994     1265.338      596.212        0.314        0.217       44.091       26.611        0.364      343.049       18.886      862.053
10/09/2014  22:30:00      -21.606       39.046       -7.620       65.015       50.418       26.249     4226.984     2541.963      689.031        0.475        0.373       44.625       25.323        0.322      343.164       19.084      862.092
10/09/2014  22:31:00       15.243       50.205        6.830       30.218       34.156       18.468      913.125     1166.642      341.056        0.261        0.121       52.468       14.704        0.079      343.077       18.935      862.129
10/09/2014  22:32:00      124.477       74.108        3.676       62.625       48.588       40.334     3921.898     2360.797     1626.855        1.445        0.395      144.868       21.499        0.022      342.917       18.661      862.171
10/09/2014  22:33:00      132.361       84.404       32.100       50.662       42.311       37.564     2566.608     1790.214     1411.064        1.572        0.288      156.982       25.268        0.026      342.583       18.093      862.201
10/09/2014  22:34:00      158.316       85.380       19.886       55.512       50.290       39.856     3081.603     2529.041     1588.525        1.997        0.360      179.872       34.866        0.038      342.419       17.814      862.255
10/09/2014  22:35:00      148.091       90.414       11.943       78.018       48.943       38.480     6086.793     2395.425     1480.693        2.010        0.498      173.510       22.240        0.016      342.300       17.609      862.278
10/09/2014  22:36:00      159.934      115.700       25.591       85.645       64.738       53.150     7335.050     4190.976     2824.970        2.698        0.718      197.396       33.979        0.030      342.251       17.529      862.318
10/09/2014  22:37:00      143.681      111.724       11.622       64.134       49.221       48.547     4113.158     2422.738     2356.780        2.108        0.445      182.006       26.894        0.022      342.420       17.816      862.351
10/09/2014  22:38:00      191.953      139.441       23.231       62.853       44.533       47.863     3950.479     1983.202     2290.904        3.253        0.411      237.254       21.544        0.008      342.474       17.904      862.366
10/09/2014  22:39:00      173.498      114.858       19.592       44.854       41.829       32.651     2011.903     1749.678     1066.116        2.425        0.241      208.072       23.402        0.013      342.390       17.763      862.382
10/09/2014  22:40:00      109.194       62.914       26.392       46.713       40.883       36.367     2182.078     1671.444     1322.540        1.088        0.259      126.022       22.054        0.031      342.395       17.777      862.374
10/09/2014  22:41:00      148.291       65.455       33.505       33.098       36.733       33.591     1095.447     1349.296     1128.324        1.548        0.179      162.094       17.990        0.012      342.332       17.668      862.379
10/09/2014  22:42:00      177.981       75.479       23.920       46.697       36.185       44.526     2180.598     1309.353     1982.593        2.171        0.274      193.324       30.104        0.024      342.278       17.575      862.376
10/09/2014  22:43:00      158.376       97.911       60.986       63.313       39.591       44.364     4008.540     1567.408     1968.144        2.297        0.377      186.198       34.403        0.034      342.364       17.720      862.374
10/09/2014  22:44:00      146.396       16.126       72.403       71.862       72.839       55.935     5164.108     5305.593     3128.721        2.026        0.680      147.282       59.140        0.161      342.334       17.670      862.399
10/09/2014  22:45:00      -17.445      -86.877        5.350      128.552       94.107       65.294    16525.586     8856.099     4263.333        1.876        1.482       88.611       72.675        0.673      342.877       18.594      862.432
10/09/2014  22:46:00      -31.830     -135.819      -10.679       43.360       44.862       31.214     1880.072     2012.621      974.288        1.222        0.243      139.499       23.407        0.028      343.113       18.997      862.413
10/09/2014  22:47:00       51.495     -100.472       -8.747       46.733       72.939       44.585     2183.971     5320.043     1987.789        1.116        0.475      112.900       46.538        0.170      342.775       18.420      862.409
10/09/2014  22:48:00       42.784      -28.795       22.803       55.404       67.899       45.971     3069.656     4610.311     2113.365        0.648        0.490       51.572       42.557        0.681      342.557       18.048      862.402
10/09/2014  22:49:00       -0.137        6.679       48.146       20.534       40.206       29.238      421.644     1616.561      854.859        0.263        0.145        6.680       23.426       12.297      342.401       17.783      862.418
10/09/2014  22:50:00       34.669       31.707       43.461       41.850       38.670       26.998     1751.427     1495.337      728.913        0.404        0.199       46.982       27.369        0.339      342.684       18.265      862.432
10/09/2014  22:51:00       94.847       70.194       43.634       55.884       39.107       44.163     3122.975     1529.330     1950.351        1.121        0.330      117.996       39.170        0.110      342.902       18.636      862.401
10/09/2014  22:52:00       99.220       45.134       15.686       26.954       26.794       24.860      726.498      717.923      618.019        0.709        0.103      109.003       20.682        0.036      342.763       18.401      862.399
10/09/2014  22:53:00       51.608       11.757       19.949       38.524       24.952       27.657     1484.094      622.607      764.912        0.304        0.144       52.930       14.068        0.071      342.888       18.613      862.401
10/09/2014  22:54:00       43.245       39.892       -1.819       21.711       25.737       18.785      471.372      662.400      352.863        0.248        0.074       58.835       13.631        0.054      342.449       17.865      862.414
10/09/2014  22:55:00      -33.184       24.028       -0.542       31.624       24.719       20.441     1000.103      611.021      417.816        0.185        0.101       40.970       13.136        0.103      342.749       18.377      862.405
10/09/2014  22:56:00        9.980      102.225       -8.631       27.467       43.255       18.699      754.436     1871.002      349.669        0.680        0.149      102.711       19.771        0.037      342.938       18.698      862.390
10/09/2014  22:57:00       -1.273       38.846       -3.863       12.949       31.243       18.992      167.669      976.123      360.714        0.151        0.075       38.867       22.500        0.335      342.980       18.771      862.391
10/09/2014  22:58:00       33.232       13.450       10.255       19.133       15.476       13.333      366.079      239.509      177.778        0.109        0.039       35.850        9.924        0.077      342.672       18.246      862.390
10/09/2014  22:59:00       31.306       16.299       13.084       20.817       27.054       26.798      433.351      731.899      718.134        0.165        0.094       35.294       23.448        0.441      342.372       17.736      862.372
10/09/2014  23:00:00       19.728       38.946       24.716       38.359       31.537       25.765     1471.397      994.607      663.830        0.282        0.156       43.658       23.397        0.287      342.345       17.689      862.357
10/09/2014  23:01:00        0.484        5.191       37.064       15.444       20.969       17.385      238.510      439.700      302.237        0.119        0.049        5.213       10.640        4.165      342.369       17.730      862.369
10/09/2014  23:02:00       16.133      -66.830       -7.895       36.078       30.622       20.315     1301.592      937.715      412.714        0.372        0.133       68.750       13.279        0.037      342.446       17.863      862.382
10/09/2014  23:03:00       58.607      -75.783       -2.708       27.332       25.526       17.418      747.049      651.564      303.375        0.544        0.085       95.801       15.141        0.025      342.458       17.880      862.397
10/09/2014  23:04:00       -7.434      -12.188        5.155       38.855       21.799       11.012     1509.745      475.193      121.262        0.117        0.105       14.276       12.474        0.763      342.315       17.639      862.419
10/09/2014  23:05:00      -61.337      -44.821       -4.325       39.085       41.016       19.088     1527.666     1682.326      364.364        0.468        0.179       75.968        6.057        0.006      342.202       17.447      862.440
10/09/2014  23:06:00      -71.035      -68.005        2.722       37.364       24.152       27.456     1396.086      583.314      753.853        0.621        0.137       98.340       23.354        0.056      342.228       17.490      862.457
10/09/2014  23:07:00      -45.034      -98.441       -2.134       25.578       24.556       19.472      654.256      603.018      379.161        0.668        0.082      108.253       16.094        0.022      342.417       17.813      862.468
10/09/2014  23:08:00      -32.907      -81.543       -1.342       36.094       21.433       16.900     1302.795      459.382      285.614        0.489        0.102       87.933       19.502        0.049      342.496       17.946      862.476
10/09/2014  23:09:00      -37.811      -64.816        5.327       40.468       36.947       20.835     1637.671     1365.092      434.099        0.455        0.172       75.038       24.496        0.107      342.544       18.028      862.484
10/09/2014  23:10:00      -14.520      -45.352       -2.714       33.923       26.025       16.418     1150.797      677.316      269.560        0.219        0.105       47.620        5.959        0.016      342.514       17.977      862.493
10/09/2014  23:11:00       16.260      -48.731       -8.265       21.170       27.561       20.620      448.154      759.620      425.180        0.217        0.082       51.372        7.303        0.020      342.511       17.974      862.500
10/09/2014  23:12:00       18.875        5.635       20.864       24.354       19.344       14.884      593.132      374.208      221.521        0.101        0.059       19.698       13.891        0.497      342.298       17.610      862.504
10/09/2014  23:13:00       80.578      -13.530       16.186       33.085       25.944       23.549     1094.616      673.070      554.557        0.463        0.116       81.706       22.802        0.078      342.585       18.097      862.507
10/09/2014  23:14:00       86.390       75.337       42.950       27.267       26.077       24.674      743.486      679.985      608.805        0.851        0.102      114.626       19.339        0.028      342.291       17.598      862.493
10/09/2014  23:15:00       88.427       60.509       28.067       38.393       31.842       32.178     1474.042     1013.939     1035.454        0.790        0.176      107.148       25.536        0.057      342.390       17.765      862.487
10/09/2014  23:16:00       23.404       51.275       62.068       31.849       26.389       22.383     1014.382      696.397      501.009        0.462        0.111       56.364       19.465        0.119      342.492       17.940      862.474
10/09/2014  23:17:00       -6.627       16.024       31.709       22.148       33.981       27.368      490.532     1154.693      749.026        0.185        0.120       17.340       29.709        2.935      342.424       17.823      862.473
10/09/2014  23:18:00      -47.650      -36.908       -2.450       33.281       24.624       12.835     1107.601      606.355      164.728        0.276        0.094       60.272        8.904        0.022      342.333       17.668      862.472
10/09/2014  23:19:00      -65.337      -39.388       -7.070       25.982       10.650       13.702      675.056      113.431      187.747        0.342        0.049       76.291        4.843        0.004      342.387       17.760      862.483
10/09/2014  23:20:00      -25.493      -46.801       -3.674       18.915       22.954       16.389      357.762      526.880      268.588        0.200        0.058       53.293       13.532        0.064      342.339       17.680      862.490
10/09/2014  23:21:00      -43.070      -26.442       -4.053       24.094       15.289       13.925      580.514      233.758      193.897        0.179        0.050       50.539       14.927        0.087      342.481       17.919      862.493
10/09/2014  23:22:00     -117.063      -79.875       -4.573       44.181       36.488       26.557     1951.926     1331.387      705.297        1.205        0.199      141.717       19.770        0.019      342.422       17.821      862.507
10/09/2014  23:23:00      -98.566      -41.339      -15.329       63.861       59.401       33.345     4078.283     3528.523     1111.880        1.019        0.436      106.884       30.271        0.080      342.813       18.485      862.523
10/09/2014  23:24:00     -177.205      -74.524       -4.672       34.704       51.388       25.676     1204.366     2640.681      659.260        2.074        0.225      192.238       20.117        0.011      342.848       18.542      862.534
10/09/2014  23:25:00     -100.720     -107.151        7.412       82.333       79.002       36.877     6778.800     6241.375     1359.893        1.803        0.719      147.058       47.237        0.103      342.645       18.198      862.551
10/09/2014  23:26:00     -122.685      -49.961        2.917       49.143       45.401       29.152     2415.051     2061.282      849.844        1.144        0.266      132.467       23.694        0.032      342.632       18.177      862.563
10/09/2014  23:27:00      -61.123      -24.444       -4.862       42.883       26.675       19.049     1838.991      711.579      362.869        0.363        0.146       65.829       15.690        0.057      342.540       18.021      862.575
10/09/2014  23:28:00      -96.396      -26.647       -2.103       25.333       21.030       15.146      641.753      442.244      229.413        0.566        0.066      100.012       13.119        0.017      342.552       18.041      862.585
10/09/2014  23:29:00      -52.826      -10.791       -0.251       30.572       28.027       12.584      934.665      785.533      158.367        0.239        0.094       53.917       10.385        0.037      342.456       17.880      862.592
10/09/2014  23:30:00      -17.181       38.662       -8.533       14.444       11.055        8.787      208.616      122.221       77.205        0.114        0.020       42.307        7.632        0.033      342.448       17.866      862.603
10/09/2014  23:31:00      -17.294       37.285       -9.752        8.731       12.526        5.469       76.227      156.897       29.911        0.102        0.013       41.100        4.000        0.009      342.299       17.609      862.621
10/09/2014  23:32:00      -32.412       15.974       -4.056       12.866       10.828        7.668      165.539      117.250       58.805        0.083        0.017       36.134        5.027        0.019      342.345       17.690      862.632
10/09/2014  23:33:00       -5.511        1.074        4.618        8.202        5.123        5.285       67.267       26.243       27.936        0.009        0.006        5.615        4.192        0.558      342.231       17.496      862.634
10/09/2014  23:34:00      -18.761       11.314       -3.704       11.291       12.231        7.789      127.488      149.597       60.675        0.042        0.017       21.908        6.969        0.101      342.238       17.510      862.643
10/09/2014  23:35:00      -28.388       -0.757       -1.070        8.774        6.870        4.888       76.984       47.201       23.891        0.048        0.007       28.398        3.502        0.015      342.204       17.451      862.667
10/09/2014  23:36:00      -25.672        9.193       -4.410        8.959        6.743        4.054       80.260       45.466       16.434        0.045        0.007       27.268        1.682        0.004      342.216       17.470      862.691
10/09/2014  23:37:00      -10.615       12.311        0.395        6.426        4.193        3.975       41.293       17.582       15.804        0.017        0.004       16.256        2.762        0.029      342.249       17.526      862.713
10/09/2014  23:38:00       -3.963        2.185       -2.200        6.744        9.125        4.668       45.477       83.269       21.790        0.009        0.008        4.525        5.068        1.254      342.280       17.581      862.723
10/09/2014  23:39:00      -13.599      -22.697       -2.681       12.129       15.882        9.022      147.110      252.229       81.389        0.059        0.024       26.459        9.435        0.127      341.823       16.804      862.727
10/09/2014  23:40:00      -28.436      -26.166       -5.824       14.121        8.827        7.505      199.398       77.924       56.329        0.093        0.017       38.643        7.117        0.034      341.807       16.777      862.726
10/09/2014  23:41:00      -48.427      -22.629       -7.261       18.632        9.368        9.723      347.153       87.752       94.535        0.172        0.026       53.453        7.248        0.018      341.701       16.597      862.728
10/09/2014  23:42:00      -60.436      -46.290       -0.244       33.264       24.374       16.190     1106.476      594.090      262.130        0.388        0.098       76.127       12.504        0.027      341.635       16.485      862.737
10/09/2014  23:43:00      -78.747      -44.941        3.175       25.373       24.597       22.234      643.802      605.029      494.335        0.499        0.087       90.668       14.853        0.027      341.481       16.223      862.745
10/09/2014  23:44:00      -81.920      -54.365        1.844       36.987       25.821       21.465     1368.056      666.730      460.753        0.608        0.125       98.318       17.802        0.033      341.552       16.343      862.736
10/09/2014  23:45:00      -53.031      -45.655        6.737       38.388       35.156       22.799     1473.616     1235.911      519.786        0.409        0.161       69.976       19.565        0.078      341.561       16.359      862.721
10/09/2014  23:46:00      -65.259      -56.547       -0.158       33.898       26.098       18.765     1149.091      681.115      352.133        0.482        0.109       86.350       17.092        0.039      341.569       16.372      862.710
10/09/2014  23:47:00      -60.833      -55.032        3.464       36.020       25.314       22.633     1297.438      640.808      512.238        0.460        0.123       82.031       20.824        0.064      341.722       16.632      862.697
10/09/2014  23:48:00      -79.409      -76.169       -2.255       38.514       26.500       22.262     1483.316      702.241      495.599        0.740        0.134      110.034       21.376        0.038      341.681       16.562      862.698
10/09/2014  23:49:00     -104.017      -55.911        2.550       22.686       21.320       15.628      514.658      454.531      244.220        0.758        0.061      118.092       12.834        0.012      341.629       16.474      862.702
10/09/2014  23:50:00      -71.587      -42.538        3.685       38.145       32.746       16.721     1455.039     1072.298      279.596        0.488        0.140       83.272       13.502        0.026      341.637       16.488      862.704
10/09/2014  23:51:00      -96.498      -51.367      -10.851       36.294       35.321       19.045     1317.236     1247.559      362.729        0.750        0.146      109.318        5.618        0.003      341.680       16.561      862.708
10/09/2014  23:52:00      -79.925      -46.110       -0.856       33.088       36.312       21.223     1094.798     1318.541      450.410        0.569        0.143       92.272       19.019        0.042      341.605       16.435      862.718
10/09/2014  23:53:00     -119.961      -58.082      -12.181       38.920       30.795       21.099     1514.734      948.324      445.147        1.041        0.145      133.282       17.193        0.017      341.752       16.683      862.739
10/09/2014  23:54:00      -89.276      -42.913        1.136       27.982       27.985       16.481      783.012      783.178      271.612        0.583        0.092       99.054        9.422        0.009      341.617       16.455      862.750
10/09/2014  23:55:00      -39.816      -17.686        0.118       23.998       27.887       13.939      575.884      777.685      194.298        0.172        0.077       43.568        9.643        0.049      341.452       16.175      862.751
10/09/2014  23:56:00      -63.667       -2.837       -3.038       40.081       27.335       14.729     1606.463      747.211      216.942        0.332        0.129       63.730       14.355        0.051      341.194       15.738      862.751
10/09/2014  23:57:00      -58.930      -22.947        3.669       32.638       32.191       17.064     1065.209     1036.260      291.175        0.320        0.120       63.240       13.707        0.047      340.949       15.321      862.756
10/09/2014  23:58:00      -81.129       -3.378       -1.767       40.668       30.834       16.870     1653.882      950.709      284.586        0.474        0.144       81.199       20.172        0.062      340.894       15.231      862.762
10/09/2014  23:59:00      -31.333      -22.252        8.990       19.256       19.513       14.589      370.777      380.747      212.850        0.126        0.048       38.430        8.238        0.046      340.892       15.227      862.753
